[[{"header":{"parameterUnit":"m.s-1","parameterCategory":1,"la1":30.6,"la2":29.2853,"lo1":-89.7004,"lo2":-87.6739,"dy":0.0162,"dx":0.0183,"nx":112,"ny":82,"refTime":"2024-02-27T18:00:00:Z","depth":0,"parameterNumber":2,"parameterNumberName":"U-component_of_WINDS"},"data":[0.0,0.0,0.0,0.0,0.0,0.0,0.0,0.0,0.0,0.0,0.0,0.0,0.0,0.0,0.0,0.0,0.0,0.0,0.0,0.0,0.0,0.0,0.0,0.0,0.0,0.0,0.0,0.0,0.0,0.0,0.0,0.0,0.0,0.0,0.0,0.0,0.0,0.0,0.0,0.0,0.0,0.0,0.0,0.0,0.0,0.0,0.0,0.0,0.0,0.0,0.0,0.0,0.0,0.0,0.0,0.0,0.0,0.0,0.0,0.0,0.0,0.0,0.0,0.0,0.0,0.0,0.0,0.0,0.0,0.0,0.0,0.0,0.0,0.0,0.0,0.0,0.0,0.0,0.0,0.0,0.0,0.0,0.0,0.0,0.0,0.0,0.0,0.0,0.0,0.0,-5.7881,-5.7881,-5.7881,-5.7881,-5.7881,-5.7881,-5.7881,-5.7881,0.0,0.0,0.0,0.0,0.0,0.0,0.0,0.0,0.0,0.0,0.0,0.0,0.0,0.0,0.0,0.0,0.0,0.0,0.0,0.0,0.0,0.0,0.0,0.0,0.0,0.0,0.0,0.0,0.0,0.0,0.0,0.0,0.0,0.0,0.0,0.0,0.0,0.0,0.0,0.0,0.0,0.0,0.0,0.0,0.0,0.0,0.0,0.0,0.0,0.0,0.0,0.0,0.0,0.0,0.0,0.0,0.0,0.0,0.0,0.0,0.0,0.0,0.0,0.0,0.0,0.0,0.0,0.0,0.0,0.0,0.0,0.0,0.0,0.0,0.0,0.0,0.0,0.0,0.0,0.0,0.0,0.0,0.0,0.0,0.0,0.0,0.0,0.0,0.0,0.0,0.0,0.0,0.0,0.0,0.0,0.0,0.0,0.0,0.0,0.0,0.0,0.0,0.0,0.0,-5.7881,-5.7881,-5.7881,-5.7881,-5.7881,-5.7881,-5.7881,-5.7881,0.0,0.0,0.0,0.0,0.0,0.0,0.0,0.0,0.0,0.0,0.0,0.0,0.0,0.0,0.0,0.0,0.0,0.0,0.0,0.0,0.0,0.0,0.0,0.0,0.0,0.0,0.0,0.0,0.0,0.0,0.0,0.0,0.0,0.0,0.0,0.0,0.0,0.0,0.0,0.0,0.0,0.0,0.0,0.0,0.0,0.0,0.0,0.0,0.0,0.0,0.0,0.0,0.0,0.0,0.0,0.0,0.0,0.0,0.0,0.0,0.0,0.0,0.0,0.0,0.0,0.0,0.0,0.0,0.0,0.0,0.0,0.0,0.0,0.0,0.0,0.0,0.0,0.0,0.0,0.0,0.0,0.0,0.0,0.0,0.0,0.0,0.0,0.0,0.0,0.0,0.0,0.0,0.0,0.0,0.0,0.0,0.0,0.0,0.0,0.0,0.0,0.0,0.0,-5.7881,-5.7881,-5.7881,-5.7881,-5.7881,-5.7881,-5.7881,-5.7881,-5.7881,-5.7881,0.0,0.0,0.0,0.0,0.0,0.0,0.0,0.0,0.0,0.0,0.0,0.0,0.0,0.0,0.0,0.0,0.0,0.0,0.0,0.0,0.0,0.0,0.0,0.0,0.0,0.0,0.0,0.0,0.0,0.0,0.0,0.0,0.0,0.0,0.0,0.0,0.0,0.0,0.0,0.0,0.0,0.0,0.0,0.0,0.0,0.0,0.0,0.0,0.0,0.0,0.0,0.0,0.0,0.0,0.0,0.0,0.0,0.0,0.0,0.0,0.0,0.0,0.0,0.0,0.0,0.0,0.0,0.0,0.0,0.0,0.0,0.0,0.0,0.0,0.0,0.0,0.0,0.0,0.0,0.0,0.0,0.0,0.0,0.0,0.0,0.0,0.0,0.0,0.0,0.0,0.0,0.0,0.0,0.0,0.0,0.0,0.0,0.0,0.0,0.0,0.0,0.0,-5.7881,-5.7881,-5.7881,-5.7881,-5.7881,-5.7881,-5.7881,-5.7881,-5.7881,-5.7881,0.0,0.0,0.0,0.0,0.0,0.0,0.0,0.0,0.0,0.0,0.0,0.0,0.0,0.0,0.0,0.0,0.0,0.0,0.0,0.0,0.0,0.0,0.0,0.0,0.0,0.0,0.0,0.0,0.0,0.0,0.0,0.0,0.0,0.0,0.0,0.0,0.0,0.0,0.0,0.0,0.0,0.0,0.0,0.0,0.0,0.0,0.0,0.0,0.0,0.0,0.0,0.0,0.0,0.0,0.0,0.0,0.0,0.0,0.0,0.0,0.0,0.0,0.0,0.0,0.0,0.0,0.0,0.0,0.0,0.0,0.0,0.0,0.0,0.0,0.0,0.0,0.0,0.0,0.0,0.0,0.0,0.0,0.0,0.0,0.0,0.0,0.0,0.0,0.0,0.0,0.0,0.0,0.0,0.0,0.0,0.0,0.0,0.0,0.0,0.0,0.0,0.0,-5.7881,-5.7881,-5.7881,-5.7881,-5.7881,-5.7881,-5.7881,-5.7881,-5.7881,-5.7881,0.0,0.0,0.0,0.0,0.0,0.0,0.0,0.0,0.0,0.0,0.0,0.0,0.0,0.0,0.0,0.0,0.0,0.0,0.0,0.0,0.0,0.0,0.0,0.0,0.0,0.0,0.0,0.0,0.0,0.0,0.0,0.0,0.0,0.0,0.0,0.0,0.0,0.0,0.0,0.0,0.0,0.0,0.0,0.0,0.0,0.0,0.0,0.0,0.0,0.0,0.0,0.0,0.0,0.0,0.0,0.0,0.0,0.0,0.0,0.0,0.0,0.0,0.0,0.0,0.0,0.0,0.0,0.0,0.0,0.0,0.0,0.0,0.0,0.0,0.0,0.0,0.0,0.0,0.0,0.0,0.0,0.0,0.0,0.0,0.0,0.0,0.0,0.0,0.0,0.0,0.0,0.0,0.0,0.0,0.0,0.0,0.0,0.0,0.0,0.0,0.0,0.0,-5.7881,-5.7881,-5.7881,-5.7881,-5.7881,-5.7881,-5.7881,-5.7881,-5.7881,0.0,0.0,0.0,0.0,0.0,0.0,0.0,0.0,0.0,0.0,0.0,0.0,0.0,0.0,0.0,0.0,0.0,0.0,0.0,0.0,0.0,0.0,0.0,0.0,0.0,0.0,0.0,0.0,0.0,0.0,0.0,0.0,0.0,0.0,0.0,0.0,0.0,0.0,0.0,0.0,0.0,0.0,0.0,0.0,0.0,0.0,0.0,0.0,0.0,0.0,0.0,0.0,0.0,0.0,0.0,0.0,0.0,0.0,0.0,0.0,0.0,0.0,0.0,0.0,0.0,0.0,0.0,0.0,0.0,0.0,0.0,0.0,0.0,0.0,0.0,0.0,0.0,0.0,0.0,0.0,0.0,0.0,0.0,0.0,0.0,0.0,0.0,0.0,0.0,0.0,0.0,0.0,0.0,0.0,0.0,0.0,0.0,0.0,0.0,0.0,0.0,0.0,-5.7881,-5.7881,-5.7881,-5.7881,-5.7881,-5.7881,-5.7881,-5.7881,-5.7881,-5.7881,0.0,0.0,0.0,0.0,0.0,0.0,0.0,0.0,0.0,0.0,0.0,0.0,0.0,0.0,0.0,0.0,0.0,0.0,0.0,0.0,0.0,0.0,0.0,0.0,0.0,0.0,0.0,0.0,0.0,0.0,0.0,0.0,0.0,0.0,0.0,0.0,0.0,0.0,0.0,0.0,0.0,0.0,0.0,0.0,0.0,0.0,0.0,0.0,0.0,0.0,0.0,0.0,0.0,0.0,0.0,0.0,0.0,0.0,0.0,0.0,0.0,0.0,0.0,0.0,0.0,0.0,0.0,0.0,0.0,0.0,0.0,0.0,0.0,0.0,0.0,0.0,0.0,0.0,0.0,0.0,0.0,0.0,0.0,0.0,0.0,0.0,0.0,0.0,0.0,0.0,0.0,0.0,0.0,0.0,0.0,0.0,0.0,0.0,0.0,0.0,0.0,0.0,-5.7881,-5.7881,-5.7881,-5.7881,-5.7881,-5.7881,-5.7881,-5.7881,-5.7881,0.0,0.0,0.0,0.0,0.0,0.0,0.0,0.0,0.0,0.0,0.0,0.0,0.0,0.0,0.0,0.0,0.0,0.0,0.0,0.0,0.0,0.0,0.0,0.0,0.0,0.0,0.0,0.0,0.0,0.0,0.0,0.0,0.0,0.0,0.0,0.0,0.0,0.0,0.0,0.0,0.0,0.0,0.0,0.0,0.0,0.0,0.0,0.0,0.0,0.0,0.0,0.0,0.0,0.0,0.0,0.0,0.0,0.0,0.0,0.0,0.0,0.0,0.0,0.0,0.0,0.0,0.0,0.0,0.0,0.0,0.0,0.0,0.0,0.0,0.0,0.0,0.0,0.0,0.0,0.0,0.0,0.0,0.0,0.0,0.0,0.0,0.0,0.0,0.0,0.0,0.0,0.0,0.0,0.0,0.0,0.0,0.0,0.0,0.0,0.0,0.0,0.0,0.0,-5.7881,-5.7881,-5.7881,-5.7881,-5.7881,-5.7881,-5.7881,-5.7881,-5.7881,-5.7881,0.0,0.0,0.0,0.0,0.0,0.0,0.0,0.0,0.0,0.0,0.0,0.0,0.0,0.0,0.0,0.0,0.0,0.0,0.0,0.0,0.0,0.0,0.0,0.0,0.0,0.0,0.0,0.0,0.0,0.0,0.0,0.0,0.0,0.0,0.0,0.0,0.0,0.0,0.0,0.0,0.0,0.0,0.0,0.0,0.0,0.0,0.0,0.0,0.0,0.0,0.0,0.0,0.0,0.0,0.0,0.0,0.0,0.0,0.0,0.0,0.0,0.0,0.0,0.0,0.0,0.0,0.0,0.0,0.0,0.0,0.0,0.0,0.0,0.0,0.0,0.0,0.0,0.0,0.0,0.0,0.0,0.0,0.0,0.0,0.0,0.0,0.0,0.0,0.0,0.0,0.0,0.0,0.0,0.0,0.0,0.0,0.0,0.0,0.0,0.0,0.0,0.0,-5.7881,-5.7881,-5.7881,-5.7881,-5.7881,-5.7881,-5.7881,-5.7881,-5.7862,-5.7772,0.0,0.0,0.0,0.0,0.0,0.0,0.0,0.0,0.0,0.0,0.0,0.0,0.0,0.0,0.0,0.0,0.0,0.0,0.0,0.0,0.0,0.0,0.0,0.0,0.0,0.0,0.0,0.0,0.0,0.0,0.0,0.0,0.0,0.0,0.0,0.0,0.0,0.0,0.0,0.0,0.0,0.0,0.0,0.0,0.0,0.0,0.0,0.0,0.0,0.0,0.0,0.0,0.0,0.0,0.0,0.0,0.0,0.0,0.0,0.0,0.0,0.0,0.0,0.0,0.0,0.0,0.0,0.0,0.0,0.0,0.0,0.0,0.0,0.0,0.0,0.0,0.0,0.0,0.0,0.0,0.0,0.0,0.0,0.0,0.0,0.0,0.0,0.0,0.0,0.0,0.0,0.0,0.0,0.0,0.0,0.0,0.0,0.0,0.0,0.0,0.0,0.0,-5.7881,-5.7881,-5.7881,-5.7881,-5.7881,-5.7881,-5.7881,-5.7881,-5.7808,-5.7625,0.0,0.0,0.0,0.0,0.0,0.0,0.0,0.0,0.0,0.0,0.0,0.0,0.0,0.0,0.0,0.0,0.0,0.0,0.0,0.0,0.0,0.0,0.0,0.0,0.0,0.0,0.0,0.0,0.0,0.0,0.0,0.0,0.0,0.0,0.0,0.0,0.0,0.0,0.0,0.0,0.0,0.0,0.0,0.0,0.0,0.0,0.0,0.0,0.0,0.0,0.0,0.0,0.0,0.0,0.0,0.0,0.0,0.0,0.0,0.0,-5.2409,-5.2409,0.0,0.0,0.0,0.0,0.0,0.0,0.0,0.0,0.0,0.0,0.0,0.0,0.0,0.0,0.0,0.0,0.0,0.0,0.0,0.0,0.0,0.0,0.0,0.0,0.0,0.0,0.0,0.0,0.0,0.0,0.0,0.0,0.0,0.0,0.0,0.0,0.0,0.0,0.0,0.0,-5.7881,-5.7881,-5.7881,-5.7881,-5.7881,-5.7881,-5.7881,-5.7881,-5.7881,-5.7845,-5.7735,0.0,0.0,0.0,0.0,0.0,0.0,0.0,0.0,0.0,0.0,0.0,0.0,0.0,0.0,0.0,0.0,0.0,0.0,0.0,0.0,0.0,0.0,0.0,0.0,0.0,0.0,0.0,0.0,0.0,0.0,0.0,0.0,0.0,0.0,0.0,0.0,0.0,0.0,0.0,0.0,0.0,0.0,0.0,0.0,0.0,0.0,0.0,0.0,0.0,0.0,0.0,0.0,0.0,0.0,0.0,0.0,0.0,0.0,0.0,-5.2409,-5.2409,0.0,0.0,0.0,0.0,0.0,0.0,0.0,0.0,0.0,0.0,0.0,0.0,0.0,0.0,0.0,0.0,0.0,0.0,0.0,0.0,0.0,0.0,0.0,0.0,0.0,0.0,0.0,0.0,0.0,0.0,0.0,0.0,0.0,0.0,0.0,0.0,0.0,0.0,0.0,0.0,-5.7881,-5.7881,-5.7881,-5.7881,-5.7881,-5.7881,-5.7881,-5.7808,-5.7517,-5.6963,-5.6827,0.0,0.0,0.0,0.0,0.0,0.0,0.0,0.0,0.0,0.0,0.0,0.0,0.0,0.0,0.0,0.0,0.0,0.0,0.0,0.0,0.0,0.0,0.0,0.0,0.0,0.0,0.0,0.0,0.0,0.0,0.0,0.0,0.0,0.0,0.0,0.0,0.0,0.0,0.0,0.0,0.0,0.0,0.0,0.0,0.0,0.0,0.0,0.0,0.0,0.0,0.0,0.0,0.0,-5.2409,-5.2409,-5.2409,-5.2409,-5.2409,-5.2409,-5.2409,-5.2409,-5.2409,-5.2409,0.0,0.0,0.0,0.0,0.0,0.0,0.0,0.0,0.0,0.0,0.0,0.0,0.0,0.0,0.0,0.0,0.0,0.0,0.0,0.0,0.0,0.0,-5.272,-5.3337,-5.357,-5.4039,-5.5402,0.0,0.0,0.0,0.0,0.0,0.0,0.0,0.0,0.0,0.0,0.0,-5.7845,-5.7881,-5.7881,-5.7881,-5.7881,-5.7881,-5.7881,-5.7571,-5.6942,-5.6024,-5.573,-5.5247,0.0,0.0,0.0,0.0,0.0,0.0,0.0,0.0,0.0,0.0,0.0,0.0,0.0,0.0,0.0,0.0,0.0,0.0,0.0,0.0,0.0,0.0,0.0,0.0,0.0,0.0,0.0,0.0,0.0,0.0,0.0,0.0,-3.9666,-3.9704,0.0,0.0,0.0,0.0,0.0,0.0,0.0,0.0,0.0,0.0,0.0,0.0,0.0,-4.9031,-4.9004,-5.1177,-5.231,-5.2409,-5.2409,-5.2409,-5.2409,-5.2409,-5.2409,-5.2409,-5.2409,0.0,-5.2409,-5.2409,0.0,0.0,0.0,0.0,0.0,0.0,0.0,0.0,0.0,0.0,0.0,0.0,0.0,0.0,0.0,0.0,0.0,0.0,0.0,0.0,0.0,0.0,-5.2442,-5.2561,-5.3022,-5.3503,-5.3738,-5.5125,-5.6536,-5.7193,-5.7327,-5.7402,0.0,0.0,0.0,0.0,0.0,0.0,-5.7662,-5.7772,-5.7881,-5.7881,-5.7881,-5.7881,-5.7881,-5.6963,-5.6321,-5.6165,-5.5125,-5.4521,-5.4547,-5.4437,0.0,0.0,0.0,0.0,0.0,0.0,0.0,0.0,0.0,0.0,0.0,0.0,0.0,0.0,0.0,0.0,0.0,0.0,0.0,0.0,0.0,0.0,0.0,0.0,0.0,0.0,0.0,0.0,0.0,-3.9297,-3.9799,-3.9799,-4.1151,-4.2098,0.0,0.0,0.0,0.0,0.0,0.0,0.0,0.0,0.0,-4.5278,-4.701,-4.8248,-4.8888,-5.0477,-5.1639,-5.2409,-5.2283,-5.2283,-5.2409,-5.2409,-5.2409,-5.2409,-5.2409,-5.2409,-5.2409,-5.2409,-5.2409,-5.2409,0.0,0.0,0.0,0.0,-5.2409,-5.2409,-5.2409,-5.2409,-5.2409,-5.2409,0.0,0.0,0.0,0.0,0.0,0.0,0.0,-5.1672,-5.1672,-5.2017,-5.2409,-5.2409,-5.2605,-5.2937,-5.3334,-5.404,-5.5005,-5.6267,-5.6872,-5.7252,-5.7551,-5.7514,0.0,0.0,0.0,-5.7514,-5.7439,-5.7514,-5.7551,-5.7551,-5.7662,-5.7534,-5.7051,-5.6409,-5.5594,-5.4614,-5.3801,-5.3137,-5.2694,-5.3209,-5.3412,0.0,0.0,0.0,0.0,0.0,0.0,0.0,0.0,0.0,0.0,0.0,0.0,0.0,0.0,0.0,0.0,0.0,0.0,0.0,0.0,0.0,0.0,0.0,0.0,0.0,0.0,0.0,0.0,-3.9396,-3.9941,-4.0194,-4.1312,-4.2164,0.0,0.0,0.0,0.0,0.0,0.0,-4.4629,-4.4682,-4.4718,-4.4724,-4.6078,-4.7278,-4.8294,-4.9465,-5.0697,-5.1964,-5.1818,-5.1961,-5.2409,-5.2409,-5.2409,-5.2409,-5.2409,-5.2409,-5.2409,-5.2409,-5.2409,-5.2409,-5.2409,-5.2409,-5.2409,-5.2409,-5.2409,-5.2409,-5.2409,-5.2409,-5.2373,-5.2142,-5.1471,-5.0783,-5.0783,0.0,0.0,0.0,0.0,-5.0838,-5.1043,-5.1582,-5.2142,-5.2338,-5.2409,-5.2523,-5.3036,-5.3284,-5.3884,-5.5526,-5.6279,-5.6808,-5.7368,-5.7327,0.0,-5.7439,-5.7364,-5.7289,-5.7214,-5.7289,-5.7289,-5.7289,-5.7218,-5.6882,-5.6247,-5.5547,-5.4573,-5.3268,-5.259,-5.1835,-5.0975,-5.1774,-5.1917,-5.1313,0.0,0.0,0.0,0.0,0.0,0.0,0.0,0.0,0.0,0.0,0.0,0.0,0.0,0.0,0.0,0.0,0.0,0.0,0.0,0.0,0.0,0.0,0.0,0.0,0.0,0.0,0.0,0.0,0.0,-4.1222,-4.195,0.0,0.0,0.0,0.0,-4.3843,-4.3944,-4.3851,-4.3603,-4.3812,-4.3767,-4.3397,-4.5049,-4.6295,-4.698,-4.8453,-4.9702,-5.0773,-5.0773,-5.1348,-5.2409,-5.2409,-5.2409,-5.2409,-5.2409,-5.2409,-5.2409,-5.2409,-5.2409,-5.2409,-5.2409,-5.2409,-5.2409,-5.2409,-5.2409,-5.2409,-5.2409,-5.2409,-5.2266,-5.1434,-5.0592,-4.9844,-4.9844,-4.9844,0.0,0.0,-4.9844,-5.0057,-5.0876,-5.1118,-5.138,-5.2214,-5.2409,-5.239,-5.2423,-5.2953,-5.3848,-5.5338,-5.5653,-5.5961,-5.687,0.0,-5.7025,-5.7025,-5.7176,-5.7214,-5.7025,-5.7176,-5.7289,-5.7289,-5.6503,-5.5985,-5.5945,-5.4153,-5.3033,-5.2916,-5.1896,-5.0976,-5.027,-5.0333,-5.0155,-4.9703,-4.9732,0.0,0.0,0.0,0.0,0.0,0.0,0.0,0.0,0.0,0.0,0.0,0.0,0.0,0.0,0.0,0.0,0.0,0.0,0.0,0.0,0.0,0.0,0.0,0.0,0.0,0.0,0.0,0.0,-4.1368,-4.1982,0.0,-4.2581,-4.2541,-4.2622,-4.2915,-4.2795,-4.2688,-4.2592,-4.2688,-4.3093,-4.3928,-4.4417,-4.5558,-4.7437,-4.7905,-4.8661,-4.9663,-5.0429,-5.0957,-5.1348,-5.2089,-5.2409,-5.2409,-5.2409,-5.2318,-5.2211,-5.2354,-5.2409,-5.2409,-5.2409,-5.2409,-5.2409,-5.2409,-5.2409,-5.2409,-5.2409,-5.2409,-5.2178,-5.0729,-4.9702,-4.8913,-4.8366,-4.8198,-4.8198,-4.8198,-4.8599,-4.9237,-5.0057,-5.0669,-5.1322,-5.2178,-5.2409,-5.2409,-5.2409,-5.2572,-5.3036,-5.4013,-5.4593,-5.5177,-5.6133,-5.6191,-5.6302,-5.692,-5.6949,-5.6872,-5.6796,-5.6358,-5.5995,-5.5995,-5.532,-5.4646,-5.4073,-5.2934,-5.2002,-5.1439,-5.0532,-4.9853,-4.9628,-4.9613,-4.9344,-4.8774,-4.8759,-4.8593,0.0,0.0,0.0,0.0,0.0,0.0,0.0,0.0,0.0,0.0,0.0,0.0,0.0,0.0,0.0,0.0,0.0,0.0,0.0,0.0,0.0,0.0,0.0,0.0,0.0,-4.0712,-4.1258,-4.1704,-4.2088,-4.2366,-4.2459,-4.2392,-4.2325,-4.2325,-4.2175,-4.2092,-4.2092,-4.2092,-4.2756,-4.4136,-4.4065,-4.5038,-4.7131,-4.7061,-4.7533,-4.8589,-4.9311,-4.9923,-5.0336,-5.1348,-5.1891,-5.198,-5.2266,-5.2302,-5.2211,-5.2354,-5.2409,-5.2409,-5.2409,-5.2409,-5.2409,-5.2409,-5.2409,-5.2338,-5.2069,-5.1782,-5.129,-4.986,-4.8846,-4.8061,-4.7467,-4.7309,-4.7309,-4.7309,-4.7694,-4.8366,-4.9197,-4.9821,-5.0477,-5.1327,-5.1529,-5.1529,-5.1529,-5.1745,-5.2003,-5.217,-5.3247,-5.4415,-5.5273,-5.5331,-5.5525,-5.6407,-5.6193,-5.5957,-5.5918,-5.5178,-5.4519,-5.422,-5.3502,-5.2824,-5.225,-5.1454,-5.0782,-5.0216,-4.9644,-4.9209,-4.8985,-4.8985,-4.8626,-4.7967,-4.7952,-4.7743,-4.7309,0.0,0.0,0.0,0.0,0.0,0.0,0.0,0.0,0.0,0.0,0.0,0.0,0.0,0.0,0.0,0.0,0.0,0.0,0.0,0.0,0.0,0.0,0.0,-4.1397,-4.1226,-4.1433,-4.2278,-4.2201,-4.2092,-4.2092,-4.2092,-4.2092,-4.2092,-4.2092,-4.2092,-4.2092,-4.2092,-4.2673,-4.395,-4.3993,-4.4603,-4.588,-4.5925,-4.6417,-4.7433,-4.7475,-4.8179,-4.9487,-5.0297,-5.0827,-5.1156,-5.2017,-5.239,-5.2373,-5.2409,-5.239,-5.2373,-5.2409,-5.2409,-5.2409,-5.2409,-5.2373,-5.225,-5.1434,-5.0554,-4.9662,-4.8872,-4.8019,-4.7309,-4.7309,-4.7309,-4.7309,-4.7309,-4.7309,-4.7495,-4.8366,-4.8615,-4.879,-4.9623,-4.9805,-4.9805,-4.9805,-5.0461,-5.0783,-4.9978,-5.1696,-5.3543,-5.427,-5.4403,-5.4651,-5.5395,-5.4899,0.0,-5.4394,-5.37,-5.2892,-5.2071,-5.1141,-5.0586,-5.0571,-4.976,-4.9284,-4.9284,-4.9269,-4.897,-4.8282,-4.8252,-4.7952,-4.7309,-4.7309,-4.7309,-4.7309,0.0,0.0,0.0,0.0,0.0,0.0,0.0,0.0,0.0,0.0,0.0,0.0,0.0,0.0,0.0,0.0,0.0,0.0,0.0,0.0,0.0,-4.1421,-4.1738,-4.1229,-4.1552,-4.193,-4.2146,-4.2133,-4.2092,-4.2092,-4.2092,-4.2092,-4.2092,-4.2092,-4.2092,-4.2092,-4.2092,-4.2673,-4.395,-4.3993,-4.4603,-4.588,-4.6046,-4.621,-4.6343,-4.7276,-4.7843,-4.8095,-4.9891,-5.0735,-5.0865,-5.1928,-5.2318,-5.2211,-5.2354,-5.2302,-5.2211,-5.2338,-5.2409,-5.2409,-5.2409,-5.198,-5.1508,-5.1908,-5.0669,-4.8994,-4.9343,-4.8475,-4.7309,-4.7309,-4.7309,-4.7309,-4.7309,-4.7309,-4.7495,-4.8366,-4.8615,-4.879,-4.9623,-4.9805,-4.9805,-4.9805,-4.9978,-5.0096,-4.9844,-5.0356,-5.1035,-5.1756,-5.1868,-5.2361,-5.3746,-5.3219,-5.2917,-5.3538,-5.2288,-5.1502,-5.1907,-5.059,-4.9907,-5.0488,-4.9307,-4.8551,-4.8551,-4.8102,-4.7758,-4.7578,-4.7578,-4.7489,-4.7309,-4.7309,-4.7309,0.0,0.0,0.0,0.0,0.0,0.0,0.0,0.0,0.0,0.0,0.0,0.0,0.0,0.0,0.0,0.0,0.0,0.0,0.0,0.0,0.0,0.0,-4.1845,-4.1961,-4.157,-4.1845,-4.2092,-4.2092,-4.2092,-4.2092,-4.2092,-4.2092,-4.2092,-4.2092,-4.2092,-4.2092,-4.2092,-4.2092,-4.2673,-4.395,-4.3993,-4.4603,-4.588,-4.6015,-4.6015,-4.5925,-4.6668,-4.7046,-4.7176,-4.8769,-4.9773,-5.039,-5.1417,-5.1997,-5.2247,-5.2338,-5.2338,-5.2247,0.0,0.0,0.0,0.0,-5.2069,-5.1672,-5.1818,-5.0669,-4.9116,-4.9262,-4.8407,-4.7309,-4.7309,-4.7309,-4.7309,-4.7309,-4.7309,-4.7424,-4.7934,-4.8061,-4.8172,-4.8641,-4.8749,-4.8749,-4.8749,-4.9035,-4.9181,-4.8831,-4.9035,0.0,-4.9357,-4.9978,-5.0858,-5.2108,-5.159,-5.1254,-5.17,-5.058,-4.9797,-4.9981,-4.9059,-4.8637,-4.9131,-4.8364,0.0,0.0,0.0,-4.7309,-4.7309,-4.7309,0.0,0.0,0.0,-4.7309,-4.7309,-4.7309,0.0,0.0,-4.7309,-4.7309,0.0,0.0,0.0,0.0,0.0,0.0,0.0,0.0,0.0,0.0,0.0,0.0,0.0,0.0,0.0,0.0,-4.2092,-4.2092,-4.2092,-4.2092,-4.2092,-4.2092,-4.2092,-4.2092,-4.2092,-4.2092,-4.2092,-4.2092,-4.2092,-4.2092,-4.2092,-4.2092,0.0,0.0,0.0,-4.456,-4.5764,-4.5851,-4.588,-4.588,-4.588,-4.6105,-4.655,-4.7377,-4.8414,-4.9607,-5.0499,-5.1343,-5.2089,-5.2214,-5.2302,-5.2409,-5.2409,-5.2409,-5.2409,-5.2409,-5.2338,-5.2142,-5.1359,0.0,0.0,-4.8831,-4.8019,-4.7309,-4.7309,-4.7309,-4.7309,-4.7309,-4.7309,-4.7309,-4.7309,-4.7309,-4.7309,-4.7309,-4.7309,-4.7309,-4.7309,-4.7892,-4.8214,-4.7467,-4.7934,-4.8214,-4.7424,-4.8517,-4.9787,-5.0538,-5.0016,-4.9506,-4.9511,-4.8886,-4.8214,-4.751,-4.7337,0.0,-4.7424,-4.7337,-4.7309,-4.7309,-4.7309,-4.7309,-4.7309,-4.7309,-4.7309,-4.7309,-4.7309,-4.7309,-4.7309,-4.7309,-4.7309,-4.7309,-4.7309,-4.7309,0.0,0.0,0.0,0.0,0.0,0.0,0.0,0.0,0.0,0.0,0.0,0.0,0.0,0.0,0.0,-4.2092,-4.2092,-4.2092,-4.2092,-4.2092,-4.2092,-4.2092,-4.2092,-4.2092,-4.2092,-4.2092,-4.2092,-4.2092,-4.2092,-4.2092,-4.2092,-4.2092,-4.244,-4.3166,-4.3718,-4.4342,-4.5082,-4.5619,-4.588,-4.588,-4.588,0.0,-4.606,-4.7075,-4.7689,-4.8012,-4.9287,-4.99,-5.0135,-5.0989,-5.1745,-5.2409,-5.2409,-5.2409,-5.2409,-5.2409,-5.1944,-5.1322,-5.1156,-5.0112,-4.8805,-4.8641,-4.8019,-4.7309,-4.7309,-4.7309,0.0,-4.7309,-4.7309,-4.7309,-4.7309,-4.7309,-4.7309,-4.7309,-4.7309,-4.7309,-4.7309,-4.7424,-4.7495,-4.7337,-4.7424,-4.751,-4.7352,-4.7581,-4.8049,-4.8908,-4.8332,-4.8022,-4.8701,-4.8052,-4.7737,-4.8297,-4.7694,-4.7581,-4.8297,-4.7694,-4.7309,-4.7309,-4.7309,-4.7309,-4.7309,-4.7309,-4.7309,-4.7309,-4.7309,-4.7309,-4.7309,-4.7309,-4.7309,-4.7309,-4.7309,-4.7309,0.0,0.0,0.0,0.0,0.0,0.0,0.0,0.0,0.0,0.0,0.0,-4.2092,-4.2092,0.0,-4.2092,-4.2092,-4.2092,-4.2092,-4.2092,-4.2092,-4.2092,-4.2092,-4.2092,-4.2092,-4.2092,-4.2092,-4.2092,-4.2092,-4.2092,-4.2092,-4.2092,-4.2092,-4.2382,-4.2977,-4.3645,-4.4284,-4.4879,-4.5547,-4.588,-4.588,-4.588,-4.597,-4.6046,-4.6624,-4.7233,-4.7885,-4.8553,-4.915,-4.9686,-5.0213,-5.0707,-5.1086,-5.1086,-5.138,-5.1745,-5.1745,-5.1177,-5.0461,-5.0461,-4.9638,-4.8615,-4.8615,-4.8019,-4.7309,-4.7309,-4.7309,-4.7309,-4.7309,-4.7309,-4.7309,-4.7309,-4.7309,-4.7309,-4.7309,-4.7309,-4.7309,-4.7309,-4.7309,-4.7309,-4.7309,-4.7309,-4.7309,-4.7309,-4.7309,-4.7467,-4.7892,-4.7581,-4.7467,-4.7892,-4.7581,-4.7467,-4.7892,-4.7538,-4.7467,-4.7892,-4.7538,-4.7309,-4.7309,-4.7309,-4.7309,-4.7309,-4.7309,-4.7309,-4.7309,-4.7309,-4.7309,-4.7309,-4.7309,-4.7309,-4.7309,-4.7309,-4.7309,0.0,0.0,0.0,0.0,0.0,0.0,0.0,-4.2351,-4.2366,-4.2133,-4.2092,-4.2092,-4.2092,-4.2092,-4.2092,-4.2092,-4.2092,-4.2092,-4.2092,-4.2092,-4.2092,-4.2092,-4.2092,-4.2092,-4.2092,-4.2092,-4.2092,-4.2092,-4.2092,-4.2092,-4.2092,-4.2092,-4.2324,-4.2803,-4.3456,-4.4023,-4.4516,-4.53,-4.5692,-4.5692,-4.5822,-4.597,-4.6135,-4.6135,-4.6741,-4.7816,-4.79,-4.8553,-4.9583,-4.9583,-4.9647,-4.9805,-4.9805,-5.0135,-5.0631,-5.0783,-5.0422,-4.9765,-4.9607,-4.9141,-4.8573,-4.8407,-4.7849,-4.7309,-4.7309,-4.7309,-4.7309,-4.7309,-4.7309,-4.7309,-4.7309,-4.7309,-4.7309,-4.7309,-4.7309,-4.7309,-4.7309,-4.7309,-4.7309,-4.7309,-4.7309,-4.7309,-4.7309,-4.7309,-4.7309,-4.7309,-4.7309,-4.7309,-4.7309,-4.7309,-4.7309,-4.7309,-4.7309,-4.7309,-4.7309,-4.7309,-4.7309,-4.7309,-4.7309,-4.7309,-4.7309,-4.7309,-4.7309,-4.7309,-4.7309,-4.7309,-4.7309,-4.7309,-4.7234,-4.7115,-4.7115,-4.7189,-4.329,-4.329,-4.321,-4.2809,-4.2835,-4.2795,0.0,-4.2284,-4.2366,-4.2133,-4.2092,-4.2092,-4.2092,-4.2092,-4.2092,-4.2092,-4.2092,-4.2092,-4.2092,-4.2092,-4.2092,-4.2092,-4.2092,-4.2092,-4.2092,-4.2092,-4.2092,-4.2092,-4.2092,-4.2092,-4.2092,-4.2092,-4.2121,-4.2194,-4.2789,-4.3137,-4.3195,-4.44,-4.4995,-4.501,-4.5605,-4.5925,-4.5925,-4.5925,-4.609,-4.6462,-4.6858,-4.7706,-4.8723,-4.8723,-4.9157,-4.9805,-4.9805,-4.9423,-4.8969,-4.9702,-4.9884,-4.9686,-4.8994,-4.8682,-4.849,-4.7709,-4.7381,-4.7309,-4.7309,-4.7309,-4.7309,-4.7309,-4.7309,-4.7309,-4.7309,-4.7309,-4.7309,-4.7309,-4.7309,-4.7309,-4.7309,-4.7309,-4.7309,-4.7309,-4.7309,-4.7309,-4.7309,-4.7309,-4.7309,-4.7309,-4.7309,-4.7309,-4.7309,-4.7309,-4.7309,-4.7309,-4.7309,-4.7309,-4.7309,-4.7309,-4.7309,-4.7309,-4.7309,-4.7309,-4.7309,-4.7309,-4.7309,-4.7309,-4.7309,-4.7309,-4.7309,-4.7309,-4.701,-4.6384,-4.6384,-4.6741,-4.329,-4.321,-4.3115,-4.305,-4.3036,-4.2915,-4.2541,-4.2622,-4.2622,-4.2216,-4.2216,-4.2242,-4.2133,-4.2092,-4.2092,-4.2092,-4.2092,-4.2092,-4.2092,-4.2092,-4.2092,-4.2092,-4.2092,-4.2092,-4.2092,-4.2092,-4.2092,-4.2092,-4.2092,-4.2092,-4.2092,-4.2092,-4.2092,-4.2092,-4.2687,-4.2992,-4.2992,-4.3906,-4.4371,-4.4371,-4.4647,-4.4777,-4.4777,-4.4777,-4.4894,-4.5142,-4.5687,-4.6154,-4.6516,-4.6626,-4.6858,-4.717,-4.717,-4.7226,-4.7403,-4.8651,-4.879,-4.8282,-4.7976,-4.7864,-4.7779,-4.7424,-4.7309,-4.7309,-4.7309,-4.7309,-4.7309,-4.7309,-4.7309,-4.7309,-4.7309,-4.7309,-4.7309,-4.7309,-4.7309,-4.7309,-4.7309,-4.7309,-4.7309,-4.7309,-4.7309,-4.7309,-4.7309,-4.7309,-4.7309,-4.7309,-4.7309,-4.7309,-4.7309,-4.7309,-4.7309,-4.7309,-4.7309,-4.7309,-4.7309,-4.7309,-4.7309,-4.7309,-4.7309,-4.7309,-4.7309,-4.7309,-4.7309,-4.7309,-4.6935,-4.6741,-4.6741,-4.6337,-4.5992,-4.5723,-4.5723,-4.5873,-4.329,-4.321,-4.3115,-4.321,-4.3115,-4.2955,-4.2729,-4.2795,-4.2809,-4.2366,-4.2366,-4.2366,-4.2201,-4.2133,-4.2092,-4.2092,-4.2092,-4.2092,-4.2092,-4.2092,-4.2092,-4.2092,-4.2092,-4.2092,-4.2092,-4.2092,-4.2092,-4.2092,-4.2092,-4.2092,-4.2092,-4.2092,-4.2092,-4.2092,-4.2513,-4.2745,-4.2745,-4.3398,-4.3718,-4.3718,-4.3906,-4.3993,-4.3979,-4.4108,-4.4223,-4.4422,-4.504,-4.5221,-4.5096,-4.5263,-4.5289,-4.5289,-4.5289,-4.5603,-4.6167,-4.7274,-4.7531,-4.7309,-4.7309,-4.7309,-4.7309,-4.7309,-4.7309,-4.7309,-4.7309,-4.7309,-4.7309,-4.7309,-4.7309,-4.7309,-4.7309,-4.7309,-4.7309,-4.7309,-4.7309,-4.7309,-4.7309,-4.7309,-4.7309,-4.7309,-4.7309,-4.7309,-4.7309,-4.7309,-4.7309,-4.7309,-4.7309,-4.7309,-4.7309,-4.7309,-4.7309,-4.7309,-4.7309,-4.7309,-4.7309,-4.7309,-4.7309,-4.7309,-4.7309,-4.7309,-4.7309,-4.713,-4.704,-4.704,-4.6381,-4.6142,-4.6279,-4.5813,-4.5589,-4.5589,-4.5589,-4.5484,-4.329,-4.329,-4.325,-4.3076,-4.2981,-4.2955,-4.2729,-4.2688,-4.2688,-4.2688,-4.2541,-4.2392,-4.2392,-4.2242,-4.2092,-4.2092,-4.2092,-4.2092,-4.2092,-4.2092,-4.2092,-4.2092,-4.2092,-4.2092,-4.2092,-4.2092,-4.2092,-4.2092,-4.2092,-4.2092,-4.2092,-4.2092,-4.2092,-4.2092,-4.2121,-4.2121,-4.2121,-4.2716,-4.3021,-4.3021,-4.3674,-4.3993,-4.4037,-4.4422,-4.4577,-4.4619,-4.5081,-4.5289,-4.5289,-4.5289,-4.5289,-4.5289,-4.5289,-4.5304,-4.5334,-4.5376,-4.6229,-4.7309,-4.7309,-4.7309,-4.7309,-4.7309,-4.7309,-4.7309,-4.7309,-4.7309,-4.7309,-4.7309,-4.7309,-4.7309,-4.7309,-4.7309,-4.7309,-4.7309,-4.7309,-4.7309,-4.7309,-4.7309,-4.7309,-4.7309,-4.7309,-4.7309,-4.7309,-4.7309,-4.7309,-4.7309,-4.7309,-4.7309,-4.7309,-4.7309,-4.7309,-4.7309,-4.7309,-4.7309,-4.7309,-4.7309,-4.7309,-4.7309,-4.7309,-4.7309,-4.7309,-4.6696,-4.6309,-4.6309,-4.5678,-4.5663,-4.6279,-4.6264,-4.6249,-4.6249,-4.6249,-4.5933,-4.329,-4.329,-4.329,-4.321,-4.321,-4.317,-4.2955,-4.2996,-4.301,-4.2769,-4.2769,-4.2769,-4.2607,-4.2433,-4.2325,-4.2325,-4.2216,-4.2092,-4.2092,-4.2092,-4.2092,-4.2092,-4.2092,-4.2092,-4.2092,-4.2092,-4.2092,-4.2092,-4.1493,-4.1395,-4.2051,-4.1479,-4.1395,-4.2092,-4.2092,-4.2092,-4.2092,-4.2295,-4.2397,-4.2397,-4.2629,-4.2815,-4.2967,-4.3228,-4.3337,-4.3378,-4.3786,-4.3907,-4.3771,-4.3771,-4.3771,-4.3771,-4.3771,-4.4054,-4.4456,-4.4605,-4.52,-4.5963,-4.5963,-4.5963,-4.5963,-4.5963,-4.5963,-4.5963,-4.5963,-4.5963,-4.5963,-4.5963,-4.6292,-4.6651,-4.6651,-4.698,-4.7309,-4.7309,-4.7309,-4.7309,-4.7309,-4.7309,-4.7121,-4.6447,-4.6299,-4.6077,-4.5432,-4.5838,-4.6535,-4.7207,-4.7309,-4.7309,-4.7309,-4.7309,-4.7309,-4.7309,-4.7309,-4.7309,-4.7309,-4.7309,-4.7309,-4.7309,-4.689,-4.6651,-4.6651,-4.5992,-4.5648,-4.5648,-4.499,-4.4766,-4.499,-4.4515,-4.4306,-4.4306,-4.4306,-4.4172,-4.329,-4.329,-4.329,-4.329,-4.329,-4.325,-4.3155,-4.321,-4.321,-4.297,-4.2955,-4.2955,-4.285,-4.2581,-4.2433,-4.2514,-4.2366,-4.2216,-4.2216,-4.1912,-4.1814,-4.2051,-4.1758,-4.1717,-4.2051,-4.1758,-4.1577,-4.1577,-4.0972,-4.0745,-4.1057,-4.0446,-4.0532,-4.1535,-4.1577,-4.1717,-4.2092,-4.2092,-4.2092,-4.2092,-4.2092,-4.2175,-4.2325,-4.2514,-4.2607,-4.2729,-4.305,-4.3115,-4.3036,-4.3076,-4.3036,-4.2915,-4.3036,-4.3343,-4.3649,-4.3796,-4.4105,-4.4579,-4.5125,-4.5289,-4.5289,-4.5289,-4.5289,-4.5289,-4.5289,-4.5289,-4.5289,-4.5289,-4.5618,-4.5963,-4.5963,-4.6262,-4.6591,-4.6591,-4.6591,-4.6591,-4.6591,-4.6304,-4.5871,-4.5273,-4.4874,-4.4412,-4.3684,-4.399,-4.4667,-4.5493,-4.5478,-4.5727,-4.6776,-4.6741,-4.6591,-4.6591,-4.6591,-4.6591,-4.6591,-4.6591,-4.6591,-4.6591,-4.6187,-4.592,-4.5836,-4.5263,-4.4863,-4.4739,-4.4124,-4.3916,-4.4058,-4.3641,-4.3567,-4.3805,-4.3805,-4.3805,-4.329,-4.329,-4.329,-4.329,-4.329,-4.329,-4.329,-4.329,-4.329,-4.329,-4.3155,-4.3036,-4.3036,-4.2688,-4.2514,-4.2648,-4.2541,-4.2392,-4.2392,-4.1619,-4.1311,-4.2009,-4.1254,-4.1057,-4.2009,-4.1254,-4.0646,-4.0546,-4.0461,-4.0073,-3.9241,-3.9166,-3.9549,-4.0504,-4.0546,-4.1057,-4.1995,-4.2092,-4.2092,-4.2009,-4.2092,-4.2092,-4.2133,-4.2325,-4.25,-4.2688,-4.2915,-4.2981,-4.3036,-4.321,-4.305,-4.2729,-4.313,-4.3155,-4.2996,-4.2996,-4.2981,-4.3214,-4.4669,-4.5185,-4.5185,-4.5185,-4.52,-4.5185,-4.5185,-4.5185,-4.5158,-4.52,-4.5214,-4.5244,-4.5203,-4.5274,-4.5289,-4.5248,-4.5248,-4.5206,-4.5206,-4.4476,-4.3791,-4.3748,-4.3021,-4.2323,-4.2161,-4.1907,-4.1893,-4.2458,-4.2119,-4.2794,-4.5717,-4.5511,-4.515,-4.5206,-4.5206,-4.5206,-4.5248,-4.5248,-4.5248,-4.5248,-4.5218,-4.512,-4.4926,-4.4452,-4.4054,-4.3643,-4.3186,-4.3227,-4.3643,-4.3643,-4.3983,-4.4617,-4.4617,-4.4617,-4.317,-4.329,-4.329,-4.329,-4.329,-4.329,-4.329,-4.329,-4.329,-4.329,-4.325,-4.321,-4.321,-4.301,-4.2795,-4.2729,-4.2541,-4.2366,-4.2216,-4.1953,-4.1912,-4.2092,-4.1856,-4.1814,-4.2092,-4.1856,-4.1128,-3.9681,-3.8899,-3.872,-3.9166,-3.8554,-3.8599,-3.9505,-4.0246,-4.0731,-4.0972,-4.1717,-4.1717,-4.0972,-4.1717,-4.2175,-4.2325,-4.2392,-4.25,-4.2688,-4.2769,-4.2875,-4.2981,-4.289,-4.2875,-4.2915,-4.3036,-4.2955,-4.2795,-4.2941,-4.2915,-4.2813,-4.3234,-4.346,-4.3622,-4.3743,-4.3702,-4.3607,-4.3743,-4.3581,-4.3379,-4.3526,-4.3939,-4.4299,-4.4161,-4.4599,-4.5028,-4.4917,-4.4435,-4.4006,-4.382,-4.3182,-4.2371,-4.1407,-4.0428,-3.9984,-4.0662,-4.0742,-4.096,-4.1862,-4.146,-4.1569,-4.3044,-4.2901,-4.2978,-4.3733,-4.382,-4.4107,-4.4775,-4.4874,-4.4874,-4.4874,-4.4386,-4.4063,-4.4022,-4.3456,-4.3061,-4.2979,-4.2858,-4.2858,-4.2939,-4.2939,-4.3027,-4.3189,-4.3189,-4.3189,-4.2806,-4.312,-4.329,-4.329,-4.329,-4.329,-4.329,-4.329,-4.329,-4.329,-4.329,-4.329,-4.329,-4.3036,-4.2835,-4.285,-4.2581,-4.2392,-4.2351,-4.1924,-4.1633,-4.1633,-4.1493,-4.1437,-4.1437,-4.1437,-4.0986,-3.9899,-3.8944,-3.8283,-3.8011,-3.7487,-3.7625,-3.8554,-3.9121,-3.9549,-3.9986,-4.0546,-4.076,-4.0603,-4.1156,-4.1744,-4.2284,-4.2284,-4.2392,-4.2581,-4.2581,-4.2607,-4.2729,-4.2688,-4.2648,-4.2607,-4.2809,-4.2729,-4.2581,-4.2703,-4.2662,-4.2581,-4.2581,-4.2662,-4.2769,-4.297,-4.297,-4.2875,-4.301,-4.289,-4.2729,-4.285,-4.3156,-4.3412,-4.3275,-4.3319,-4.3332,-4.3206,-4.2582,-4.1935,-4.1848,-4.1174,-4.0246,-3.9123,-3.8351,-3.8079,-3.8762,-3.8702,-3.883,-3.9625,-3.9253,-3.9068,-3.9736,-4.049,-4.1204,-4.176,-4.1804,-4.2166,-4.3121,-4.322,-4.3389,-4.3808,-4.3481,-4.3234,-4.3125,-4.2839,-4.2622,-4.2433,-4.25,-4.2541,-4.2433,-4.2433,-4.2433,-4.2433,-4.2433,-4.2433,-4.2381,-4.2836,-4.329,-4.329,-4.329,-4.329,-4.329,-4.329,-4.329,-4.329,-4.329,-4.329,-4.329,-4.301,-4.2809,-4.2955,-4.2648,-4.2514,-4.2662,-4.1813,-4.1085,-4.1001,-4.0887,-4.0731,-4.0603,-4.0731,-4.0731,-4.0603,-3.9724,-3.845,-3.6675,-3.6452,-3.6815,-3.7763,-3.7808,-3.8206,-3.9033,-3.9166,-3.9549,-4.0246,-4.0332,-4.093,-4.1912,-4.1912,-4.2063,-4.2351,-4.2351,-4.2392,-4.2392,-4.2581,-4.2474,-4.2201,-4.2581,-4.2581,-4.2392,-4.2392,-4.2392,-4.2351,-4.2351,-4.2351,-4.2392,-4.2622,-4.2688,-4.2662,-4.2688,-4.2648,-4.2622,-4.2648,-4.2648,-4.2648,-4.2622,-4.1964,-4.1254,-4.1212,-4.0418,-3.9637,-3.9637,-3.8899,-3.7978,-3.7142,-3.6815,-3.6722,-3.6968,-3.6687,-3.6546,-3.6968,-3.664,-3.6452,-3.6628,-3.827,-3.9461,-3.9593,-3.9637,-3.9986,-4.0944,-4.1029,-4.1421,-4.2348,-4.243,-4.2404,-4.2351,-4.2541,-4.2474,-4.2092,-4.2284,-4.2284,-4.2092,-4.2092,-4.2092,-4.2092,-4.2092,-4.2092,-4.2246,-4.2836,-4.329,-4.329,-4.329,-4.329,-4.329,-4.329,-4.329,-4.329,-4.329,-4.329,-4.329,-4.325,-4.309,-4.2809,-4.2688,-4.2622,-4.2474,-4.2146,-4.1675,-4.1085,-4.1493,-4.1535,-4.0689,-4.1339,-4.1493,-4.0646,-3.9724,-3.872,-3.7625,-3.6815,-3.6815,-3.7763,-3.7808,-3.79,-3.8024,-3.881,-3.8899,-3.8283,-3.9077,-3.9942,-4.0873,-4.0873,-4.1339,-4.2133,-4.2133,-4.2242,-4.2392,-4.2433,-4.25,-4.2622,-4.2648,-4.2581,-4.2392,-4.2392,-4.2284,-4.2133,-4.2133,-4.2133,-4.2201,-4.2581,-4.2581,-4.2459,-4.2662,-4.2474,-4.2242,-4.2392,-4.2474,-4.2392,-4.2242,-4.1619,-4.0986,-4.0774,-3.9577,-3.8445,-3.8206,-3.7441,-3.6722,-3.6546,-3.6499,-3.6452,-3.6499,-3.6452,-3.6405,-3.6499,-3.6452,-3.6405,-3.6452,-3.6756,-3.7302,-3.8069,-3.816,-3.8554,-3.9461,-3.9549,-3.9942,-4.0901,-4.0944,-4.1324,-4.2133,-4.2175,-4.2175,-4.2092,-4.2133,-4.2133,-4.2092,-4.2092,-4.2092,-4.2092,-4.2092,-4.2092,-4.1707,-4.2327,-4.291,-4.32,-4.329,-4.329,-4.329,-4.329,-4.329,-4.329,-4.329,-4.329,-4.329,-4.321,-4.3076,-4.289,-4.2688,-4.2541,-4.2541,-4.2284,-4.1829,-4.1085,-4.1633,-4.1717,-4.0689,-4.1535,-4.1912,-4.1437,-4.0057,-3.881,-3.7854,-3.6909,-3.6593,-3.7036,-3.7083,-3.7083,-3.7083,-3.752,-3.775,-3.7808,-3.8251,-3.8944,-3.9899,-4.0375,-4.0873,-4.1339,-4.1856,-4.2133,-4.2242,-4.2242,-4.2325,-4.2392,-4.2392,-4.231,-4.2242,-4.2242,-4.2175,-4.2092,-4.2092,-4.2092,-4.2133,-4.2325,-4.231,-4.2242,-4.2366,-4.2242,-4.2133,-4.2201,-4.2242,-4.2104,-4.1479,-4.0674,-3.9927,-3.9299,-3.8206,-3.7235,-3.7095,-3.6722,-3.6405,-3.6405,-3.6405,-3.6405,-3.6405,-3.6405,-3.6405,-3.6405,-3.6405,-3.6405,-3.6405,-3.6405,-3.6593,-3.7036,-3.7083,-3.7441,-3.8373,-3.8464,-3.8854,-3.9812,-3.9855,-4.0303,-4.1296,-4.1296,-4.1577,-4.2092,-4.2092,-4.2092,-4.2092,-4.2092,-4.2092,-4.2092,-4.2092,-4.2092,-4.1205,-4.1901,-4.2545,-4.3125,-4.329,-4.329,-4.329,-4.329,-4.329,-4.325,-4.325,-4.329,-4.325,-4.3115,-4.2981,-4.2981,-4.2648,-4.2474,-4.2648,-4.2351,-4.1829,-4.1085,-4.1633,-4.1717,-4.0689,-4.1535,-4.2092,-4.2092,-4.0287,-3.872,-3.7579,-3.6989,-3.6593,-3.6405,-3.6405,-3.6405,-3.6405,-3.6405,-3.6769,-3.75,-3.75,-3.7978,-3.8944,-3.9637,-4.0202,-4.0646,-4.1437,-4.1773,-4.1814,-4.2009,-4.1953,-4.1814,-4.2009,-4.2092,-4.2092,-4.2092,-4.2092,-4.2092,-4.2092,-4.2092,-4.2092,-4.2092,-4.2092,-4.2092,-4.2092,-4.2092,-4.2051,-4.1814,-4.1773,-4.1535,-4.0575,-3.9593,-3.8675,-3.7717,-3.6956,-3.6405,-3.6405,-3.6405,-3.6405,-3.6405,-3.6405,-3.6405,-3.6405,-3.6405,-3.6405,-3.6405,-3.6405,-3.6405,-3.6405,-3.6405,-3.6405,-3.6405,-3.6405,-3.6675,-3.7453,-3.75,-3.7887,-3.8854,-3.8899,-3.9417,-4.0546,-4.0603,-4.1057,-4.2092,-4.2092,-4.2092,-4.2092,-4.2092,-4.2092,-4.2092,-4.2092,-4.2092,-4.1205,-4.1901,-4.2545,-4.3125,-4.329,-4.329,-4.329,-4.329,-4.325,-4.3076,-4.3155,-4.325,-4.3076,-4.3036,-4.2981,-4.2981,-4.2648,-4.2474,-4.2648,-4.2351,-4.1829,-4.1085,-4.1633,-4.1717,-4.0689,-4.1535,-4.2092,-4.2092,-4.0287,-3.8405,-3.6628,-3.7268,-3.7268,-3.6452,-3.6405,-3.6405,-3.6405,-3.6405,-3.6452,-3.6546,-3.6546,-3.7036,-3.7946,-3.8024,-3.8988,-4.0603,-4.0689,-4.0731,-4.0831,-4.1717,-4.1577,-4.0831,-4.1717,-4.2092,-4.2092,-4.2092,-4.2092,-4.2092,-4.2092,-4.2092,-4.2092,-4.2092,-4.2092,-4.2092,-4.2092,-4.2092,-4.1912,-4.0972,-4.0731,-4.0518,-3.9549,-3.8644,-3.7671,-3.6769,-3.6452,-3.6405,-3.6405,-3.6405,-3.6405,-3.6405,-3.6405,-3.6405,-3.6405,-3.6405,-3.6405,-3.6405,-3.6405,-3.6405,-3.6405,-3.6405,-3.6405,-3.6405,-3.6405,-3.6452,-3.6499,-3.6546,-3.6956,-3.7854,-3.7946,-3.872,-4.0504,-4.0603,-4.1057,-4.2092,-4.2092,-4.2092,-4.2092,-4.2092,-4.2092,-4.2092,-4.2092,-4.2092,-4.0606,-4.1265,-4.1961,-4.2581,-4.3045,-4.329,-4.329,-4.321,-4.3115,-4.3036,-4.2955,-4.293,-4.285,-4.2795,-4.2795,-4.2795,-4.2581,-4.2433,-4.2514,-4.2284,-4.2009,-4.1689,-4.1912,-4.1953,-4.1535,-4.1856,-4.1591,-4.0417,-3.9651,-3.836,-3.6499,-3.6769,-3.6769,-3.6405,-3.6405,-3.6405,-3.6405,-3.6405,-3.6405,-3.6405,-3.6405,-3.6593,-3.6989,-3.7533,-3.8206,-3.8944,-3.9505,-3.9768,-3.9812,-4.0802,-4.0972,-4.0689,-4.1717,-4.2092,-4.2092,-4.2092,-4.2092,-4.2092,-4.2092,-4.2092,-4.2092,-4.2092,-4.2092,-4.2092,-4.2092,-4.2092,-4.2009,-4.1633,-4.1071,-4.0375,-3.9417,-3.8102,-3.6862,-3.6499,-3.6405,-3.6405,-3.6405,-3.6405,-3.6405,-3.6405,-3.6405,-3.6405,-3.6405,-3.6405,-3.6405,-3.6405,-3.6405,-3.6405,-3.6405,-3.6405,-3.6405,-3.6405,-3.6405,-3.6405,-3.6405,-3.6405,-3.6546,-3.6943,-3.6956,-3.7579,-3.8854,-3.8899,-3.9651,-4.1156,-4.1198,-4.1493,-4.2092,-4.2092,-4.2092,-4.2092,-4.2092,-4.2092,-4.0217,-4.0876,-4.1572,-4.2231,-4.2851,-4.329,-4.321,-4.3115,-4.2955,-4.2835,-4.2769,-4.2688,-4.2607,-4.2622,-4.2607,-4.2688,-4.2459,-4.231,-4.2392,-4.2242,-4.2092,-4.2092,-4.2092,-4.2092,-4.2092,-4.1814,-4.1085,-3.9724,-3.9121,-3.8192,-3.6862,-3.6546,-3.6405,-3.6405,-3.6405,-3.6405,-3.6405,-3.6405,-3.6405,-3.6405,-3.6405,-3.6405,-3.6405,-3.7083,-3.7533,-3.7854,-3.8509,-3.881,-3.8899,-4.0116,-4.0418,-4.0303,-4.1591,-4.2092,-4.2092,-4.2092,-4.2092,-4.2092,-4.2092,-4.2092,-4.2092,-4.2092,-4.1912,-4.1675,-4.1675,-4.1675,-4.1591,-4.1325,-4.0317,-3.9183,-3.8541,-3.7381,-3.6405,-3.6405,-3.6405,-3.6405,-3.6405,-3.6405,-3.6405,-3.6405,-3.6405,-3.6405,-3.6405,-3.6405,-3.6405,-3.6405,-3.6405,-3.6405,-3.6405,-3.6405,-3.6405,-3.6405,-3.6405,-3.6405,-3.6405,-3.6405,-3.6405,-3.6405,-3.6405,-3.6815,-3.7763,-3.7808,-3.8554,-4.0159,-4.0461,-4.0972,-4.1675,-4.1953,-4.2092,-4.2092,-4.2092,-4.2092,-4.0217,-4.0876,-4.1572,-4.2231,-4.2851,-4.325,-4.3036,-4.2981,-4.2875,-4.2514,-4.2581,-4.2662,-4.2433,-4.2392,-4.2474,-4.2648,-4.2351,-4.2175,-4.2351,-4.2242,-4.2092,-4.2092,-4.2092,-4.2092,-4.2092,-4.1198,-4.0603,-4.0603,-3.8854,-3.7808,-3.7808,-3.6909,-3.6405,-3.6405,-3.6405,-3.6405,-3.6405,-3.6405,-3.6405,-3.6405,-3.6405,-3.6405,-3.6405,-3.6405,-3.6909,-3.7808,-3.7808,-3.7808,-3.7933,-3.9812,-4.0029,-3.9431,-4.1325,-4.2092,-4.2092,-4.2092,-4.2092,-4.2092,-4.2092,-4.2092,-4.2092,-4.2092,-4.1437,-4.0603,-4.0603,-4.0603,-4.0418,-3.9505,-3.7874,-3.6452,-3.6452,-3.6405,-3.6405,-3.6405,-3.6405,-3.6405,-3.6405,-3.6405,-3.6405,-3.6405,-3.6405,-3.6405,-3.6405,-3.6405,-3.6405,-3.6405,-3.6405,-3.6405,-3.6405,-3.6405,-3.6405,-3.6405,-3.6405,-3.6405,-3.6405,-3.6405,-3.6405,-3.6405,-3.6405,-3.6815,-3.7763,-3.7808,-3.8251,-3.921,-4.0116,-4.0603,-4.0646,-4.1619,-4.2092,-4.2092,-4.2092,-4.2092,-3.9467,-4.0092,-4.0786,-4.1228,-4.1852,-4.2486,-4.2746,-4.2688,-4.2541,-4.2433,-4.2366,-4.2284,-4.2216,-4.2201,-4.2216,-4.2284,-4.2175,-4.2133,-4.2175,-4.2133,-4.2092,-4.2092,-4.2092,-4.1814,-4.1156,-4.0216,-3.9637,-3.9637,-3.7919,-3.7394,-3.8675,-3.7887,-3.7036,-3.6405,-3.6405,-3.6405,-3.6405,-3.6405,-3.6405,-3.6405,-3.6405,-3.6405,-3.6405,-3.6405,-3.6546,-3.6862,-3.7533,-3.7808,-3.79,-3.9121,-3.9461,-3.9241,-3.9883,-4.0503,-4.1057,-4.1057,-4.1535,-4.2092,-4.2092,-4.2092,-4.2092,-4.2092,-4.1856,-4.1633,-4.1633,-4.0674,-3.9461,-3.8509,-3.7808,-3.7222,-3.6593,-3.6405,-3.6405,-3.6405,-3.6405,-3.6405,-3.6405,-3.6405,-3.6405,-3.6405,-3.6405,-3.6405,-3.6405,-3.6405,-3.6405,-3.6405,-3.6405,-3.6405,-3.6405,-3.6405,-3.6405,-3.6405,-3.6405,-3.6405,-3.6405,-3.6405,-3.6405,-3.6405,-3.6405,-3.6546,-3.6815,-3.6862,-3.7256,-3.8238,-3.8554,-3.9329,-4.0603,-4.0273,-4.046,-4.1099,-4.1773,-4.2092,-3.9104,-3.969,-4.036,-4.071,-4.1361,-4.1996,-4.2475,-4.2514,-4.2392,-4.2325,-4.2216,-4.2092,-4.2092,-4.2092,-4.2092,-4.2092,-4.2092,-4.2092,-4.2092,-4.2092,-4.2092,-4.2092,-4.1773,-4.1296,-4.0646,-3.9768,-3.921,-3.921,-3.8134,-3.7828,-3.8644,-3.8115,-3.7361,-3.6452,-3.6722,-3.6769,-3.6405,-3.6405,-3.6405,-3.6405,-3.6405,-3.6405,-3.6405,-3.6405,-3.6405,-3.6452,-3.7002,-3.7268,0.0,-3.8283,-3.8899,-3.9241,-3.9593,-4.0303,-4.1156,-4.1156,-4.1577,-4.2092,-4.2092,-4.2092,-4.2051,-4.1675,-4.1043,-4.0402,-4.0085,-3.9621,-3.8944,-3.7625,-3.7268,-3.7129,-3.6546,-3.6405,-3.6405,-3.6405,-3.6405,-3.6405,-3.6405,-3.6405,-3.6405,-3.6405,-3.6405,-3.6405,-3.6405,-3.6405,-3.6405,-3.6405,-3.6405,-3.6405,-3.6405,-3.6405,-3.6405,-3.6405,-3.6405,-3.6405,-3.6405,-3.6405,-3.6405,-3.6405,-3.6405,-3.6405,-3.6405,-3.6405,-3.6675,-3.7268,-3.7625,-3.8373,-3.9549,-3.9681,-4.0029,-4.0646,-4.1633,-4.2092,0.0,-3.9513,-4.0136,-4.0574,-4.1146,-4.1714,-4.2213,-4.2363,0.0,-4.2133,-4.2092,-4.2092,-4.2092,-4.2092,-4.2092,-4.2092,-4.2092,-4.2092,-4.2092,-4.2092,-4.2107,-4.215,-4.1283,-4.066,-4.0574,-3.9796,-3.9241,-3.9121,-3.9121,-3.8765,-3.7946,-3.7854,-3.7407,-3.6546,-3.7361,-3.7361,-3.6405,-3.6405,-3.6405,-3.6405,-3.6405,-3.6405,-3.6405,-3.6405,-3.6405,-3.6405,-3.6452,-3.6499,-3.6593,-3.7441,-3.8328,-3.9285,-4.0073,-4.1029,-4.1912,-4.1912,-4.1912,-4.1912,-4.1912,-4.1912,-4.1731,-4.0788,-3.9329,-3.7717,-3.6769,-3.7658,-3.863,-3.6896,-3.6405,-3.6405,-3.6405,-3.6405,-3.6405,-3.6405,-3.6405,-3.6405,-3.6405,-3.6405,-3.6405,-3.6405,-3.6405,-3.6405,-3.6405,-3.6405,-3.6405,-3.6405,-3.6358,-3.6358,-3.6405,-3.6358,-3.6358,-3.6405,-3.6358,-3.6358,-3.6358,-3.6405,-3.6405,-3.6358,-3.6405,-3.6358,-3.6358,-3.6358,-3.6358,-3.6358,-3.7315,-3.7763,-3.7684,-3.9637,-4.0546,-4.0518,-4.1591,-4.2092,-3.8664,0.0,-3.918,-3.9478,-4.0159,-4.0827,0.0,-4.1797,-4.2175,-4.2092,-4.2092,-4.2092,-4.2092,-4.2092,-4.2092,-4.2092,-4.2092,-4.2092,-4.2092,-4.2092,-4.2266,-4.2716,-4.2187,-4.1369,-4.0412,-4.0277,-3.9681,-3.8251,-3.8115,-3.8328,-3.8854,-3.8206,-3.7717,-3.75,-3.7671,-3.7361,-3.6405,-3.6405,-3.6405,-3.6405,-3.6405,-3.6405,-3.6405,-3.6405,-3.6405,-3.6452,-3.7176,-3.7453,-3.75,-3.7717,-3.8328,-3.9166,-3.863,-3.9033,-3.9883,-3.9883,-3.9883,-3.9883,-3.9883,-3.9883,-3.9839,-3.9607,-3.9241,-3.8675,-3.7763,-3.7256,-3.6989,-3.6546,-3.6405,-3.6405,-3.6405,-3.6405,-3.6405,-3.6405,-3.6405,-3.6405,-3.6405,-3.6405,-3.6405,-3.6405,-3.6405,-3.6405,-3.6405,-3.6405,-3.6405,-3.6405,-3.6228,-3.6193,-3.6358,-3.6228,-3.6193,-3.6358,-3.6228,-3.6098,-3.6098,-3.6275,-3.6323,-3.6098,-3.6275,-3.6228,-3.58,-3.6003,-3.6098,-3.6098,-3.7222,-3.7361,-3.6417,-3.9227,-4.0246,-3.9549,-4.1283,-4.2092,-3.8516,-3.859,-3.8736,-3.9106,-3.9731,-4.0396,-4.0986,-4.1613,-4.2092,-4.2092,-4.2092,-4.2092,-4.2092,-4.2092,-4.2092,-4.2092,-4.2092,-4.2092,-4.2092,-4.2339,-4.2373,-4.1952,-4.1895,-4.1325,-3.9891,-4.0281,-3.9986,-3.8554,-3.8854,-3.8944,-3.8599,-3.8069,-3.7579,-3.7176,-3.7176,-3.6896,-3.6405,-3.6405,-3.6405,-3.6405,-3.6405,-3.6405,-3.6405,-3.6405,-3.6405,-3.6452,-3.6956,-3.7176,-3.7176,-3.7176,-3.7704,-3.8509,-3.7978,-3.8373,-3.921,-3.921,-3.921,-3.921,-3.921,-3.8899,-3.8554,-3.8554,-3.8283,-3.7828,-3.7302,-3.6815,-3.6405,-3.6405,-3.6405,-3.6405,-3.6405,-3.6405,-3.6405,-3.6405,-3.6405,-3.6405,-3.6405,-3.6405,-3.6358,-3.6228,-3.6323,-3.631,-3.6086,-3.6133,-3.6181,-3.6038,-3.5908,-3.586,-3.5991,-3.5908,-3.586,-3.6038,-3.5908,-3.5824,-3.5824,-3.5943,-3.5991,-3.5824,-3.5943,-3.5895,-3.562,-3.5716,-3.5824,-3.5824,-3.6439,-3.6487,-3.5812,-3.8392,-3.9417,-3.905,-4.0986,-4.1995,-3.8404,-3.8441,-3.8535,-3.8952,-3.9509,-4.0133,-4.08,-4.1468,-4.1976,-4.2078,-4.2092,-4.2051,-4.1912,-4.2009,-4.2051,-4.1912,-4.2009,-4.2051,-4.1912,-4.2444,-4.2321,-4.0929,-4.1281,-4.1075,-3.952,-4.0085,-4.0201,-3.9199,-3.9862,-3.955,-3.7931,-3.7761,-3.7351,-3.6531,-3.6455,-3.6405,-3.6405,-3.6405,-3.6405,-3.6405,-3.6405,-3.6405,-3.6405,-3.6405,-3.6405,-3.6405,-3.6405,-3.6405,-3.6405,-3.6405,-3.6956,-3.7808,-3.7808,-3.8283,-3.8988,-3.8988,-3.8899,-3.8751,-3.8751,-3.8238,-3.7592,-3.7592,-3.7036,-3.6405,-3.6405,-3.6405,-3.6405,-3.6405,-3.6405,-3.6405,-3.6405,-3.6405,-3.6405,-3.6405,-3.6405,-3.6405,-3.637,-3.6323,-3.6275,-3.6015,-3.6133,-3.6121,-3.5668,-3.5764,-3.586,-3.562,-3.5572,-3.556,-3.5572,-3.5572,-3.556,-3.562,-3.5572,-3.5524,-3.5524,-3.5512,-3.5476,-3.5476,-3.556,-3.5572,-3.5512,-3.5524,-3.5524,-3.5476,-3.5572,-3.5572,-3.5512,-3.7507,-3.8585,-3.8814,-4.0745,-4.1758,-3.824,-3.824,-3.8269,-3.8333,-3.8855,-3.9509,-4.0104,-4.0771,-4.141,-4.1976,-4.2092,-4.1814,-4.0972,-4.1535,-4.1814,-4.0972,-4.1535,-4.1814,-4.0972,-4.1663,-4.2033,-4.1507,-4.1781,-4.1511,-4.0181,-4.0392,-4.0062,-3.8813,-3.884,-3.8642,-3.8007,-3.7541,-3.724,-3.7109,-3.6656,-3.6405,-3.6405,-3.6405,-3.6405,-3.6405,-3.6405,-3.6405,-3.6405,-3.6405,-3.6405,-3.6405,-3.6405,-3.6405,-3.6405,-3.6405,-3.6956,-3.7808,-3.7808,-3.79,-3.8024,-3.8024,-3.7533,-3.6803,-3.6803,-3.6722,-3.6628,-3.6628,-3.6499,-3.6405,-3.6405,-3.6405,-3.6405,-3.6405,-3.6405,-3.6405,-3.6405,-3.6405,-3.6405,-3.6405,-3.6405,-3.6323,-3.6098,-3.6051,-3.5955,-3.5716,-3.5716,-3.5716,-3.562,-3.562,-3.5668,-3.562,-3.5416,-3.532,-3.5572,-3.5416,-3.5368,-3.5572,-3.5416,-3.5271,-3.5271,-3.5078,-3.4932,-3.4932,-3.5368,-3.5524,-3.5271,-3.5271,-3.5175,-3.492,-3.5368,-3.5464,-3.5271,-3.7461,-3.8509,-3.8585,-4.0531,-4.148,-3.8202,-3.8202,-3.8202,-3.8202,-3.8696,-3.9363,-3.9958,-4.0612,-4.1279,-4.1961,-4.2092,-4.1953,-4.1493,-4.1339,-4.0986,-3.9986,-4.066,-4.1113,-4.0689,-4.1765,-4.2192,-4.1182,-4.1511,-4.1267,-3.9823,-3.9758,-3.9499,-3.8665,-3.8624,-3.8398,-3.8026,-3.7475,-3.7186,-3.7186,-3.6694,-3.6405,-3.6405,-3.6405,-3.6405,-3.6405,-3.6405,-3.6405,-3.6405,-3.6405,-3.6405,-3.6405,-3.6405,-3.6405,-3.6405,-3.6405,-3.6628,-3.7036,-3.7036,-3.7036,-3.7036,-3.7036,-3.6769,-3.6405,-3.6405,-3.6405,-3.6405,-3.6405,-3.6405,-3.6405,-3.6405,-3.6405,-3.6405,-3.6405,-3.6405,-3.6405,-3.6405,-3.6405,-3.6358,-3.6228,-3.6193,-3.6098,-3.586,-3.5764,-3.5716,-3.5416,-3.5512,-3.5524,-3.5223,-3.5271,-3.532,-3.5175,-3.5078,-3.503,-3.5126,-3.5078,-3.503,-3.5175,-3.5078,-3.4969,-3.4969,-3.4884,-3.4775,-3.4775,-3.503,-3.5126,-3.4981,-3.4969,-3.4932,-3.4775,-3.503,-3.5126,-3.4981,-3.7103,-3.7919,-3.7514,-4.0014,-4.0972,-3.8202,-3.8202,-3.8202,-3.8202,-3.8594,-3.916,-3.9929,-4.0495,-4.1091,-4.1932,-4.2092,-4.2051,-4.1773,-4.0944,-4.0116,-3.9593,-3.9942,-4.0332,-4.0546,-4.1469,-4.1639,-4.0445,-4.0735,-4.0482,-3.9029,-3.8854,-3.8794,-3.8619,-3.8389,-3.8172,-3.8026,-3.7475,-3.7186,-3.7186,-3.6694,-3.6405,-3.6405,-3.6405,-3.6405,-3.6405,-3.6405,-3.6405,-3.6405,-3.6405,-3.6405,-3.6405,-3.6405,-3.6405,-3.6405,-3.6405,-3.6405,-3.6405,-3.6405,-3.6405,-3.6405,-3.6405,-3.6405,-3.6405,-3.6405,-3.6405,-3.6405,-3.6405,-3.6405,-3.6405,-3.6405,-3.6405,-3.6405,-3.6405,-3.6405,-3.6405,-3.6405,-3.6405,-3.6323,-3.6051,-3.6015,-3.592,-3.5572,-3.5524,-3.5428,-3.5175,-3.5271,-3.5271,-3.4884,-3.4981,-3.503,-3.4835,-3.4775,-3.4775,-3.4775,-3.4775,-3.4775,-3.4775,-3.4775,-3.4775,-3.4775,-3.4775,-3.4775,-3.4775,-3.4775,-3.4775,-3.4775,-3.4775,-3.4775,-3.4775,-3.4775,-3.4775,-3.4775,-3.6837,-3.7368,-3.6586,-3.9549,-4.0503,-3.8202,-3.8202,-3.8202,-3.8202,-3.8246,-3.8594,-3.9813,-4.0133,-4.0539,-4.1831,-4.2092,-4.1814,-4.0873,-3.9942,-3.9549,-4.0375,-3.9812,-3.9593,-4.0461,-3.994,-3.9428,-3.9299,-3.9326,-3.8997,-3.7991,-3.79,-3.809,-3.8572,-3.7785,-3.7522,-3.7977,-3.7475,-3.7186,-3.7186,-3.6694,-3.6405,-3.6405,-3.6405,-3.6405,-3.6405,-3.6405,-3.6405,-3.6405,-3.6405,-3.6405,-3.6405,-3.6405,-3.6405,-3.6405,-3.6405,-3.6405,-3.6405,-3.6405,-3.6405,-3.6405,-3.6405,-3.6405,-3.6405,-3.6405,-3.6405,-3.6405,-3.6405,-3.6405,-3.6405,-3.6405,-3.6405,-3.6405,-3.6405,-3.6405,-3.6405,-3.6405,-3.6405,-3.6323,-3.6051,-3.6015,-3.5872,-3.532,-3.5223,-3.5126,-3.4884,-3.4823,-3.4835,-3.4835,-3.4835,-3.4823,-3.4775,-3.4775,-3.4775,-3.4775,-3.4775,-3.4775,-3.4775,-3.4775,-3.4775,-3.4775,-3.4775,-3.4775,-3.4775,-3.4775,-3.4775,-3.4775,-3.4775,-3.4775,-3.4775,-3.4775,-3.4775,-3.4775,-3.6837,-3.7302,-3.6402,-3.937,-4.0172,-3.8066,-3.7991,-3.7991,-3.7991,-3.7915,-3.8145,-3.9257,-3.9646,-4.002,-4.1064,-4.1472,-4.1423,-4.0546,-3.9738,-3.9329,-3.9681,-3.9417,-3.9505,-4.0461,-3.9768,-3.9417,-3.9986,-3.9033,-3.8206,-3.7808,-3.7268,-3.7138,-3.7699,-3.7415,-3.7425,-3.7977,-3.7475,-3.7186,-3.7186,-3.6694,-3.6405,-3.6405,-3.6405,-3.6405,-3.6405,-3.6405,-3.6405,-3.6405,-3.6405,-3.6405,-3.6405,-3.6405,-3.6405,-3.6405,-3.6405,-3.6405,-3.6405,-3.6405,-3.6405,-3.6405,-3.6405,-3.6405,-3.6405,-3.6405,-3.6405,-3.6405,-3.6405,-3.6275,-3.6193,-3.637,-3.6181,-3.5943,-3.6086,-3.6038,-3.5943,-3.6098,-3.6146,-3.6051,-3.562,-3.5512,-3.5416,-3.503,-3.4932,-3.4932,-3.4835,-3.4775,-3.4775,-3.4775,-3.4775,-3.4775,-3.4775,-3.4775,-3.4775,-3.4775,-3.4775,-3.4775,-3.4775,-3.4775,-3.4775,-3.4775,-3.4775,-3.4775,-3.4775,-3.4775,-3.4775,-3.4775,-3.4775,-3.4775,-3.4775,-3.544,-3.5427,-3.4823,-3.7402,-3.754,-3.5427,-3.9046,-3.9837,-3.7558,-3.7649,-3.7815,-3.7481,-3.7457,-3.7725,-3.8515,-3.9093,-3.9748,-4.061,-4.1161,-4.1325,-4.083,-3.9853,-3.9312,-4.0014,-3.9121,-3.8841,-4.0375,-3.9285,-3.8662,-3.9593,-3.8328,-3.7361,-3.7361,-3.6769,-3.6568,-3.6945,-3.6971,-3.7086,-3.7462,-3.7123,-3.6971,-3.6971,-3.6606,-3.6405,-3.6405,-3.6405,-3.6405,-3.6405,-3.6405,-3.6405,-3.6405,-3.6405,-3.6405,-3.6405,-3.6405,-3.6405,-3.6405,-3.6405,-3.6405,-3.6405,-3.6405,-3.6405,-3.6405,-3.6405,-3.6405,-3.6405,-3.6323,-3.6275,-3.6275,-3.6181,-3.6003,-3.5908,-3.6086,-3.5895,-3.562,-3.5812,-3.5716,-3.562,-3.5716,-3.5812,-3.5764,-3.532,-3.5223,-3.5126,-3.4884,-3.4775,-3.4775,-3.4775,-3.4775,-3.4775,-3.4775,-3.4775,-3.4775,-3.4775,-3.4775,-3.4775,-3.4775,-3.4775,-3.4775,-3.4775,-3.4775,-3.4775,-3.4775,-3.4775,-3.4775,-3.4775,-3.4775,-3.4775,-3.4775,-3.4775,-3.4775,-3.4775,-3.5475,-3.5475,-3.4823,-3.7435,-3.754,-3.5343,-3.9002,-3.9727,-3.6663,-3.7081,-3.7649,-3.6584,-3.6794,-3.7341,-3.7534,-3.8582,-3.9748,-4.0637,-4.1256,-4.1688,-4.1702,-4.0172,-3.9618,-4.1745,-3.8912,-3.7428,-4.0202,-3.8166,-3.6769,-3.7671,-3.6956,-3.6405,-3.6405,-3.6405,-3.6405,-3.6405,-3.6405,-3.6405,-3.6405,-3.6405,-3.6405,-3.6405,-3.6405,-3.6405,-3.6405,-3.6405,-3.6405,-3.6405,-3.6405,-3.6405,-3.6405,-3.6405,-3.6405,-3.6405,-3.6405,-3.6405,-3.6405,-3.6405,-3.6405,-3.6405,-3.6405,-3.6405,-3.6405,-3.6405,-3.6405,-3.6358,-3.6098,-3.6015,-3.5968,-3.5668,-3.562,-3.562,-3.562,-3.562,-3.5572,-3.562,-3.5572,-3.5524,-3.5271,-3.5368,-3.5524,-3.5271,-3.5223,-3.5126,-3.4884,-3.4775,-3.4775,-3.4775,-3.4775,-3.4775,-3.4775,-3.4775,-3.4775,-3.4775,-3.4775,-3.4775,-3.4775,-3.4775,-3.4775,-3.4775,-3.4775,-3.4775,-3.4775,-3.4775,-3.4775,-3.4775,-3.4775,-3.4775,-3.4775,-3.4775,-3.4775,-3.4775,-3.4823,-3.4823,-3.4775,-3.6837,-3.7302,-3.6355,-3.9326,-3.9852,-3.7134,-3.725,-3.7419,-3.7081,-3.7056,-3.7148,-3.7341,-3.828,-3.9403,-4.0491,-4.0604,-4.073,-4.1381,-4.0731,-4.0546,-4.187,-4.0546,-3.9623,-4.0461,-3.8765,-3.75,-3.7763,-3.6956,-3.6405,-3.6405,-3.6405,-3.6405,-3.6405,-3.6405,-3.6405,-3.6405,-3.6405,-3.6405,-3.6405,-3.6405,-3.6405,-3.6405,-3.6405,-3.6405,-3.6405,-3.6405,-3.6405,-3.6405,-3.6405,-3.6405,-3.6405,-3.6405,-3.6405,-3.6405,-3.6405,-3.6405,-3.6405,-3.6405,-3.6405,-3.6358,-3.6193,-3.6098,-3.6098,-3.5812,-3.5716,-3.5716,-3.562,-3.5476,-3.5368,-3.5512,-3.532,-3.5078,-3.5271,-3.5175,-3.503,-3.4932,-3.4981,-3.503,-3.4932,-3.4932,-3.4884,-3.4835,-3.4775,-3.4775,-3.4775,-3.4775,-3.4775,-3.4775,-3.4775,-3.4775,-3.4775,-3.4775,-3.4775,-3.4775,-3.4775,-3.4775,-3.4775,-3.4775,-3.4726,-3.4531,-3.4531,-3.4531,-3.4531,-3.4531,-3.458,-3.4775,-3.4775,-3.4775,-3.4775,-3.6178,-3.6225,-3.4823,-3.8179,-3.8399,-3.5742,-3.87,-3.9213,-3.6847,-3.6978,-3.7187,-3.6769,-3.6822,-3.7088,-3.7458,-3.8305,-3.9266,-4.0182,-4.0391,-4.0602,-4.1269,-4.083,-4.0731,-4.1912,-4.0944,-4.0159,-4.0546,-3.8988,-3.7808,-3.7808,-3.6956,-3.6405,-3.6405,-3.6405,-3.6405,-3.6405,-3.6405,-3.6405,-3.6405,-3.6405,-3.6405,-3.6405,-3.6405,-3.6405,-3.6405,-3.6405,-3.6405,-3.6405,-3.6405,-3.6405,-3.6405,-3.6405,-3.6405,-3.6405,-3.6405,-3.6405,-3.6405,-3.6405,-3.6323,-3.6228,-3.6228,-3.6181,-3.6038,-3.5908,-3.5812,-3.5812,-3.5524,-3.5416,-3.5416,-3.532,-3.5175,-3.5078,-3.5223,-3.5078,-3.4823,-3.4981,-3.4932,-3.4775,-3.4775,-3.4775,-3.4775,-3.4775,-3.4775,-3.4775,-3.4775,-3.4775,-3.4775,-3.4775,-3.4775,-3.4775,-3.4775,-3.4775,-3.4775,-3.4775,-3.4775,-3.4775,-3.4775,-3.4775,-3.4775,-3.4628,-3.4628,-3.4531,-3.4298,-3.4298,-3.4298,-3.4298,-3.4298,-3.4347,-3.4494,-3.4677,-3.4969,-3.5391,-3.6602,-3.6777,-3.5988,-3.8765,-3.8881,-3.6606,-3.88,-3.9006,-3.611,-3.652,-3.7056,-3.607,-3.6401,-3.7133,-3.7681,-3.8474,-3.9219,-3.969,-4.0421,-4.1029,-4.1339,-4.0702,-4.0559,-4.1885,-4.0603,-3.9724,-4.0504,-3.9077,-3.79,-3.7808,-3.6956,-3.6405,-3.6405,-3.6405,-3.6405,-3.6405,-3.6405,-3.6405,-3.6405,-3.6405,-3.6405,-3.6405,-3.6405,-3.6405,-3.6405,-3.6405,-3.6405,-3.6405,-3.6405,-3.6405,-3.6405,-3.6405,-3.6405,-3.6358,-3.6358,-3.637,-3.631,-3.631,-3.6181,-3.5968,-3.5968,-3.5812,-3.562,-3.5572,-3.5572,-3.5524,-3.5271,-3.5175,-3.5126,-3.4884,-3.4775,-3.4775,-3.4775,-3.4775,-3.4775,-3.4775,-3.4775,-3.4775,-3.4775,-3.4775,-3.4775,-3.4775,-3.4775,-3.4775,-3.4775,-3.4775,-3.4775,-3.4775,-3.4775,-3.4775,-3.4775,-3.4775,-3.4775,-3.4775,-3.4787,-3.4775,-3.4775,-3.4726,-3.4628,-3.4384,-3.4384,-3.4298,-3.4075,-3.4075,-3.4075,-3.4075,-3.4075,-3.4125,-3.4223,-3.4543,-3.5247,-3.6225,-3.6367,-3.6883,-3.7808,-3.881,-3.8959,-3.8247,-3.9242,-3.903,-3.6769,-3.69,-3.7017,-3.6769,-3.6861,-3.7021,-3.7147,-3.7707,-3.8466,-3.9591,-4.0054,-4.0504,-4.1254,-4.1367,-4.1493,-4.2009,-4.1731,-4.1269,-4.0689,-3.9637,-3.8644,-3.79,-3.6956,-3.6405,-3.6405,-3.6405,-3.6405,-3.6405,-3.6405,-3.6405,-3.6405,-3.6405,-3.6405,-3.6405,-3.6405,-3.6405,-3.6405,-3.6405,-3.6405,-3.6405,-3.6405,-3.6405,-3.6405,-3.6405,-3.6275,-3.6098,-3.6098,-3.5955,-3.5752,-3.5752,-3.5764,-3.5668,-3.5668,-3.5668,-3.5572,-3.5368,-3.5271,-3.5271,-3.4981,-3.4884,-3.4884,-3.4835,-3.4775,-3.4775,-3.4775,-3.4775,-3.4775,-3.4775,-3.4775,-3.4775,-3.4775,-3.4775,-3.4775,-3.4775,-3.4775,-3.4775,-3.4775,-3.4775,-3.4775,-3.4775,-3.4775,-3.4775,-3.4775,-3.4775,-3.4775,-3.4775,-3.4628,-3.4482,-3.4482,-3.4347,-3.4211,-3.4162,-3.4162,-3.4075,-3.3828,-3.3779,-3.3779,-3.3779,-3.3779,-3.4162,-3.4932,-3.4677,-3.4957,-3.5976,-3.6964,-3.7579,-3.7808,-3.9516,-3.9402,-3.7623,-3.8616,-3.8424,-3.7148,-3.707,-3.6978,-3.6978,-3.6978,-3.6978,-3.6978,-3.7231,-3.7737,-3.8678,-3.945,-4.0097,-4.0618,-4.117,-4.1535,-4.1395,-4.1773,-4.1758,-4.0731,-3.9768,-3.8854,-3.79,-3.6956,-3.6405,-3.6405,-3.6405,-3.6405,-3.6405,-3.6405,-3.6405,-3.6405,-3.6405,-3.6405,-3.6405,-3.6405,-3.6405,-3.6405,-3.6405,-3.6405,-3.6405,-3.6405,-3.6405,-3.6405,-3.6405,-3.6228,-3.6015,-3.6015,-3.586,-3.562,-3.562,-3.5524,-3.5416,-3.5416,-3.532,-3.5223,-3.5078,-3.503,-3.4981,-3.4823,-3.4775,-3.4775,-3.4775,-3.4775,-3.4775,-3.4775,-3.4775,-3.4775,-3.4775,-3.4775,-3.4775,-3.4775,-3.4775,-3.4775,-3.4775,-3.4775,-3.4775,-3.4775,-3.4775,-3.4775,-3.4775,-3.4775,-3.4775,-3.4628,-3.4543,-3.4445,-3.4445,-3.4359,-3.4249,-3.4249,-3.4445,-3.4457,-3.3977,-3.4211,-3.4162,-3.358,-3.353,-3.3668,-3.3991,-3.4028,-3.4421,-3.5343,-3.5247,-3.5655,-3.6777,-3.7691,-3.8387,-3.8863,-4.0112,-3.9941,-3.8573,-3.8782,-3.8382,-3.7341,-3.7148,-3.6978,-3.6978,-3.6978,-3.6978,-3.6978,-3.6978,-3.7161,-3.7779,-3.8819,-3.9733,-4.0035,-4.0674,-4.1071,-4.0887,-4.1269,-4.1367,-4.0689,-3.9637,-3.8675,-3.79,-3.6956,-3.6405,-3.6405,-3.6405,-3.6405,-3.6405,-3.6405,-3.6405,-3.6405,-3.6405,-3.6405,-3.6405,-3.6405,-3.6405,-3.6405,-3.6405,-3.6405,-3.6405,-3.6405,-3.6405,-3.6405,-3.6405,-3.6228,-3.592,-3.592,-3.5764,-3.5464,-3.5464,-3.532,-3.5126,-3.5126,-3.4981,-3.4775,-3.4775,-3.4775,-3.4775,-3.4775,-3.4775,-3.4775,-3.4775,-3.4775,-3.4775,-3.4775,-3.4775,-3.4775,-3.4775,-3.4775,-3.4775,-3.4775,-3.4775,-3.4775,-3.4726,-3.4726,-3.4726,-3.4775,-3.4775,-3.4726,-3.4726,-3.4677,-3.4592,-3.4396,-3.431,-3.431,-3.431,-3.4359,-3.4457,-3.4457,-3.4932,-3.4932,-3.4113,-3.458,-3.458,-3.3767,-3.3717,-3.3941,-3.4581,-3.4666,-3.5066,-3.5763,-3.6096,-3.6756,-3.7789,-3.8206,-3.8881,-3.9865,-4.0343,-4.0251,-3.9676,-3.9156,-3.8524,-3.7481,-3.7148,-3.6978,-3.6978,-3.6978,-3.6978,-3.6978,-3.6978,-3.7161,-3.7779,-3.8482,-3.9308,-4.0261,-4.0294,-4.0559,-4.1731,-4.0603,-3.9826,-4.0504,-3.9077,-3.7946,-3.7808,-3.6956,-3.6405,-3.6405,-3.6405,-3.6405,-3.6405,-3.6405,-3.6405,-3.6405,-3.6405,-3.6405,-3.6405,-3.6405,-3.6405,-3.6405,-3.6405,-3.6405,-3.6405,-3.6405,-3.6405,-3.6405,-3.6405,-3.6133,-3.5668,-3.5668,-3.5368,-3.4932,-3.4932,-3.4884,-3.4823,-3.4823,-3.4835,-3.4775,-3.4775,-3.4775,-3.4775,-3.4775,-3.4775,-3.4775,-3.4775,-3.4775,-3.4775,-3.4775,-3.4775,-3.4775,-3.4775,-3.4775,-3.4775,-3.4775,-3.4775,-3.4726,-3.4531,-3.4433,-3.4531,-3.4726,-3.4628,-3.4433,-3.4433,-3.4298,-3.4174,-3.4174,-3.4652,-3.503,-3.503,-3.5452,-3.5727,-3.5727,-3.5631,-3.5475,-3.5379,-3.5427,-3.5427,-3.5283,-3.5283,-3.5331,-3.5427,-3.5821,-3.62,-3.6521,-3.6964,-3.7453,-3.7887,-3.788,-3.8413,-3.9394,-3.9865,-3.9778,-3.9169,-3.8977,-3.8524,-3.8167,-3.7453,-3.6978,-3.6978,-3.6978,-3.6978,-3.6978,-3.7109,-3.7257,-3.7487,-3.817,-3.8866,-3.9536,-3.9985,-4.0506,-4.1155,-4.1001,-4.0603,-3.9899,-3.9121,-3.8192,-3.7129,-3.664,-3.6405,-3.6405,-3.6405,-3.6405,-3.6405,-3.6405,-3.6405,-3.6405,-3.6405,-3.6405,-3.6405,-3.6405,-3.6405,-3.6405,-3.6405,-3.6405,-3.6405,-3.6405,-3.6323,-3.6193,-3.6193,-3.5955,-3.562,-3.562,-3.5271,-3.4775,-3.4775,-3.4775,-3.4775,-3.4775,-3.4775,-3.4775,-3.4775,-3.4775,-3.4775,-3.4775,-3.4775,-3.4775,-3.4775,-3.4775,-3.4775,-3.4775,-3.4775,-3.4775,-3.4775,-3.4775,-3.4775,-3.4775,-3.4775,-3.4726,-3.4482,-3.4384,-3.4531,-3.492,-3.4592,-3.4347,-3.4787,-3.5017,-3.5163,-3.5163,-3.5307,-3.544,-3.544,-3.5619,-3.5775,-3.5775,-3.6048,-3.6048,-3.5667,-3.5953,-3.6048,-3.5619,-3.5619,-3.5763,-3.6191,-3.6684,-3.7196,-3.7756,-3.8232,-3.8517,-3.8692,-3.8666,-3.8877,-3.9305,-4.0039,-4.0261,-3.9968,-3.9228,-3.8761,-3.8694,-3.7881,-3.7313,-3.7056,-3.6978,-3.6978,-3.6978,-3.7148,-3.7303,-3.7303,-3.7827,-3.8402,-3.8907,-3.966,-4.0319,-4.0661,-4.1056,-4.0873,-3.9387,-3.8988,-3.8238,-3.6581,-3.6405,-3.6405,-3.6405,-3.6405,-3.6405,-3.6405,-3.6405,-3.6405,-3.6405,-3.6405,-3.6405,-3.6405,-3.6405,-3.6405,-3.6405,-3.6405,-3.6405,-3.6405,-3.6323,-3.6193,-3.6015,-3.592,-3.5764,-3.5524,-3.5524,-3.5223,-3.4775,-3.4775,-3.4775,-3.4775,-3.4775,-3.4775,-3.4775,-3.4775,-3.4775,-3.4775,-3.4775,-3.4775,-3.4775,-3.4775,-3.4775,-3.4775,-3.4775,-3.4775,-3.4775,-3.4775,-3.4775,-3.4775,-3.4775,-3.4775,-3.4726,-3.4482,-3.4384,-3.4531,-3.4981,-3.4835,-3.4738,-3.5223,-3.5631,-3.5918,-3.5918,-3.5906,-3.5906,-3.5906,-3.6048,-3.6203,-3.6203,-3.6675,-3.6769,-3.625,-3.6675,-3.6769,-3.625,-3.6203,-3.6439,-3.6968,-3.7579,-3.8096,-3.8602,-3.9172,-3.9438,-3.9305,-3.9438,-3.9438,-3.9305,-4.0126,-4.053,-4.0502,-3.9396,-3.8986,-3.8694,-3.8376,-3.813,-3.7236,-3.6978,-3.6978,-3.6978,-3.7148,-3.7303,-3.7303,-3.7485,-3.7906,-3.8773,-3.9177,-3.9746,-4.0876,-4.0111,-3.9343,-3.921,-3.8419,-3.7487,-3.6499,-3.6405,-3.6405,-3.6405,-3.6405,-3.6405,-3.6405,-3.6405,-3.6405,-3.6405,-3.6405,-3.6405,-3.6405,-3.6405,-3.6405,-3.6405,-3.6405,-3.6405,-3.6405,-3.6146,-3.6015,-3.5968,-3.5716,-3.5464,-3.5223,-3.5223,-3.5078,-3.4775,-3.4775,-3.4775,-3.4775,-3.4775,-3.4775,-3.4775,-3.4775,-3.4775,-3.4775,-3.4775,-3.4775,-3.4775,-3.4775,-3.4775,-3.4775,-3.4775,-3.4775,-3.4775,-3.4775,-3.4775,-3.4775,-3.4775,-3.4775,-3.4726,-3.4482,-3.4384,-3.4482,-3.4775,-3.5391,-3.5823,-3.5619,-3.5619,-3.5619,-3.5619,-3.6191,-3.6615,-3.6615,-3.7307,-3.7762,-3.7762,-3.7808,-3.7808,-3.7762,-3.7808,-3.7808,-3.7762,-3.7762,-3.7808,-3.7854,-3.8679,-3.9038,-3.8602,-3.9482,-3.9733,-3.9305,-3.9733,-3.9733,-3.9305,-3.9777,-4.0039,-4.0012,-3.9271,-3.9226,-4.0301,-3.9743,-3.9094,-3.8279,-3.8084,-3.7971,-3.7481,-3.7534,-3.7701,-3.7701,-3.7839,-3.8086,-3.8393,-3.8781,-3.9507,-4.0879,-4.0719,-4.0337,-4.0118,-3.9285,-3.8373,-3.7407,-3.6769,-3.6405,-3.6405,-3.6405,-3.6405,-3.6405,-3.6405,-3.6405,-3.6405,-3.6405,-3.6405,-3.6405,-3.6405,-3.6405,-3.6405,-3.6405,-3.6405,-3.6405,-3.6323,-3.6098,-3.5716,-3.562,-3.5368,-3.492,-3.492,-3.4872,-3.4775,-3.4775,-3.4775,-3.4775,-3.4775,-3.4775,-3.4775,-3.4775,-3.4775,-3.4775,-3.4775,-3.4775,-3.4775,-3.4775,-3.4775,-3.4775,-3.4775,-3.4775,-3.4775,-3.4775,-3.4775,-3.4775,-3.4775,-3.5295,-3.5846,-3.6223,-3.6329,-3.6342,-3.6449,-3.6461,-3.6439,-3.6332,-3.6734,-3.7074,-3.7074,-3.732,-3.7459,-3.7459,-3.7703,-3.79,-3.79,-3.79,-3.79,-3.79,-3.79,-3.79,-3.79,-3.79,-3.8037,-3.8344,-3.8948,-3.9349,-3.9482,-4.0126,-4.0343,-4.0213,-4.0343,-4.0213,-3.9733,-4.0213,-4.0234,-3.9886,-3.962,-3.9408,-4.1412,-4.0863,-4.0178,-3.9275,-3.887,-3.859,-3.8075,-3.7915,-3.7891,-3.7891,-3.8066,-3.8202,-3.8202,-3.8451,-3.9049,-4.0253,-4.0815,-4.08,-3.994,-3.947,-3.872,-3.7487,-3.6769,-3.6405,-3.6405,-3.6405,-3.6405,-3.6405,-3.6405,-3.6405,-3.6405,-3.6405,-3.6405,-3.6405,-3.6405,-3.6405,-3.6405,-3.6405,-3.6405,-3.6405,-3.6323,-3.6038,-3.562,-3.5524,-3.5223,-3.4775,-3.4775,-3.4775,-3.4775,-3.4775,-3.4775,-3.4775,-3.4775,-3.4775,-3.4775,-3.4775,-3.4775,-3.4775,-3.4775,-3.4775,-3.4775,-3.4775,-3.4775,-3.4775,-3.4775,-3.4775,-3.4775,-3.4775,-3.5066,-3.5295,-3.5295,-3.6036,-3.6917,-3.7402,-3.7632,-3.7782,-3.7782,-3.7394,-3.7108,-3.7108,-3.7551,-3.79,-3.79,-3.79,-3.79,-3.79,-3.79,-3.79,-3.79,-3.79,-3.79,-3.79,-3.79,-3.7946,-3.8129,-3.8116,-3.8344,-3.8827,-3.9305,-3.9645,-3.9996,-4.043,-4.0702,-4.0702,-4.0702,-4.0573,-4.0257,-4.0573,-4.0491,-4.0083,-3.9873,-3.9564,0.0,0.0,0.0,-4.0143,-3.9311,-3.8796,-3.876,-3.8337,-3.7929,-3.7929,-3.8066,-3.8202,-3.8202,-3.8202,-3.8405,-3.9059,-4.022,-4.0394,-3.8589,-3.8847,-3.8514,-3.6696,-3.6439,-3.6452,-3.6405,-3.6405,-3.6405,-3.6405,-3.6405,-3.6405,-3.6405,-3.6405,-3.6405,-3.6405,-3.6405,-3.6405,-3.6405,-3.6405,-3.6405,-3.6405,-3.6146,-3.5872,-3.5572,-3.532,-3.5078,-3.4775,-3.4775,-3.4775,-3.4775,-3.4775,-3.4775,-3.4775,-3.4775,-3.4775,-3.4775,-3.4775,-3.4775,-3.4775,-3.4775,-3.4775,-3.4775,-3.4775,-3.4775,-3.4775,-3.4775,-3.4823,-3.4823,-3.4823,-3.5571,-3.6367,-3.6367,-3.7103,-3.7854,-3.79,-3.8206,-3.8554,-3.8554,-3.8213,-3.7946,-3.79,-3.79,-3.79,-3.79,-3.79,-3.79,-3.79,-3.79,-3.79,-3.79,-3.79,-3.79,-3.79,-3.79,-3.8129,-3.8557,-3.8602,-3.8827,-3.9305,-3.9733,-3.9996,-3.9996,-4.0487,-4.0702,-4.0702,-4.0702,-4.0702,-4.0702,-4.0702,-4.0688,-4.0659,-4.0055,-3.9844,-4.2741,0.0,0.0,0.0,0.0,0.0,-4.0423,-3.9703,-3.9139,-3.9139,-3.8642,-3.8202,-3.8202,-3.8202,-3.826,-3.8449,-3.9175,-3.9714,-3.9624,-3.9564,-3.9106,-3.7914,-3.7547,-3.7129,-3.6452,-3.6405,-3.6405,-3.6405,-3.6405,-3.6405,-3.6405,-3.6405,-3.6405,-3.6405,-3.6405,-3.6405,-3.6405,-3.6405,-3.6405,-3.6405,-3.6146,-3.5872,-3.5572,-3.532,-3.5078,-3.4775,-3.4775,-3.4775,-3.4775,-3.4775,-3.4775,-3.4775,-3.4775,-3.4775,-3.4775,-3.4775,-3.4775,-3.4775,-3.4775,-3.4775,-3.4775,-3.4775,-3.4775,-3.4775,-3.4775,-3.5295,-3.5906,-3.5906,-3.6602,-3.752,-3.8211,-3.8572,-3.9002,-3.9692,-3.9763,-3.9587,-3.9587,-3.9247,-3.8827,-3.8466,-3.8434,-3.8298,-3.7946,-3.79,-3.8037,-3.8344,-3.8129,-3.8037,-3.8344,-3.8129,-3.79,-3.79,-3.8207,-3.8466,-3.8602,-3.8904,-3.9305,-3.9777,-3.9908,-4.0126,-4.0487,-4.0616,-4.0702,-4.0702,-4.0702,-4.0702,-4.0702,-4.0702,-4.0477,-4.0027,-3.9859,-4.0379,-4.3416,-4.3325,-4.3127,-4.2678,0.0,0.0,-4.1098,-4.0297,-3.9626,-3.932,-3.8841,-3.8464,-3.8464,-3.8389,-3.8329,-3.8329,-3.8574,-3.8885,-3.91,-3.9231,-3.8936,-3.7991,-3.7966,-3.761,-3.6678,-3.6802,-3.6815,-3.6452,-3.6405,-3.6405,-3.6405,-3.6405,-3.6405,-3.6405,-3.6405,-3.6405,-3.6405,-3.6405,-3.6405,-3.6405,-3.6228,-3.5955,-3.5572,-3.5416,-3.5175,-3.4775,-3.4775,-3.4775,-3.4775,-3.4775,-3.4775,-3.4775,-3.4775,-3.4775,-3.4775,-3.4775,-3.4775,-3.4775,-3.4775,-3.4775,-3.4872,-3.5295,-3.544,-3.5475,-3.5906,-3.6461,-3.693,-3.693,-3.7645,-3.8599,-3.9577,-3.9809,-3.9954,-4.0559,-4.0487,-4.03,-4.03,-4.0083,-3.9689,-3.9038,-3.8904,-3.8827,-3.8512,-3.8466,-3.8557,-3.8872,-3.8647,-3.8557,-3.8859,-3.8647,-3.8466,-3.8466,-3.8737,-3.8948,-3.9172,-3.9438,-3.9777,-4.0257,-4.03,-4.0386,-4.0702,-4.0702,-4.0702,-4.0702,-4.0702,-4.0871,-4.1254,-4.0871,-4.0688,-4.0718,-4.0788,-4.1454,-4.3948,-4.3713,-4.3479,-4.3479,-4.2849,0.0,-4.1459,-4.074,-3.9995,-3.9334,-3.9133,-3.9009,-3.9009,-3.8877,-3.8745,-3.8649,-3.8501,-3.8278,-3.7907,-3.838,-3.8419,-3.7464,-3.7952,-3.7946,-3.6949,-3.7364,-3.735,-3.6492,-3.6414,-3.6405,-3.6405,-3.6405,-3.6405,-3.6405,-3.6405,-3.6405,-3.6405,-3.6405,-3.6405,-3.6405,-3.6358,-3.6133,-3.562,-3.562,-3.532,-3.4872,-3.4884,-3.4823,-3.4823,-3.4823,-3.4775,-3.4775,-3.4775,-3.4775,-3.4775,-3.4775,-3.4872,-3.4969,-3.4969,-3.5066,-3.5295,-3.6178,-3.6461,-3.6649,-3.7533,-3.7854,-3.7978,-3.8082,-3.8734,-3.9577,-4.0459,-4.0702,-4.0702,-4.0702,-4.0702,-4.0702,-4.0702,-4.0702,-4.043,-3.9601,-3.9394,-3.9349,-3.9305,-3.9305,-3.9305,-3.9394,-3.9349,-3.9305,-3.9394,-3.9349,-3.9305,-3.9305,-3.9349,-3.9557,-3.9952,-4.0039,-4.0257,-4.0688,-4.0688,-4.0702,-4.0787,-4.073,-4.0744,-4.0787,-4.0844,-4.1325,-4.2164,-4.1282,-4.1296,-4.2164,-4.2309,-4.2782,-4.4691,-4.4333,-4.3952,-4.3952,-4.3848,0.0,-4.3402,-4.2647,-4.1933,-4.1673,-4.1031,-4.0492,-4.0492,-4.0473,-4.0247,-3.9713,-3.957,-3.9235,-3.8249,-3.8688,-3.8764,-3.7819,-3.8254,-3.8228,-3.7311,-3.7105,-3.691,-3.6742,-3.6502,-3.6405,-3.6405,-3.6405,-3.6405,-3.6405,-3.6405,-3.6405,-3.6405,-3.6405,-3.6405,-3.6405,-3.6193,-3.6003,-3.5908,-3.5716,-3.5512,-3.5428,-3.5223,-3.5126,-3.5126,-3.4872,-3.4775,-3.4775,-3.4775,-3.4775,-3.4775,-3.4775,-3.5295,-3.5988,-3.5988,-3.6555,-3.7256,-3.7441,-3.7533,-3.7533,-3.7763,-3.8328,-3.9091,-3.9924,-4.0286,-4.0459,-4.0645,-4.0702,-4.0702,-4.0702,-4.0702,-4.0702,-4.0702,-4.0702,-4.0659,-4.0487,-4.0126,-3.9733,-3.9394,-3.9305,-3.9438,-3.9821,-3.9526,-3.9438,-3.9821,-3.9526,-3.9305,-3.9305,-3.9645,-3.9908,-3.9996,-4.0343,-4.0688,-4.093,-4.0773,-4.0873,-4.1269,-4.1071,-4.1057,-4.1269,-4.1725,-4.2338,-4.3023,-4.2178,-4.2193,-4.3037,-4.3067,-4.3542,-4.5276,-4.4892,-4.4496,-4.4253,-4.4155,0.0,0.0,-4.3092,-4.2629,-4.2237,-4.1772,-4.1413,-4.1314,-4.1248,-4.1064,-4.0622,-4.0189,-3.9692,-3.9118,-3.8928,-3.8672,-3.8222,-3.861,-3.8583,-3.7634,-3.7697,-3.7553,-3.709,-3.7248,-3.7137,-3.6647,-3.6929,-3.6862,-3.6405,-3.6405,-3.6405,-3.6405,-3.6405,-3.6405,-3.6405,-3.6275,-3.6146,-3.6015,-3.586,-3.5978,-3.6273,-3.6178,-3.6342,-3.6773,-3.6564,-3.6471,-3.6377,-3.5798,-3.5523,-3.5619,-3.6131,-3.6602,-3.707,-3.707,-3.7394,-3.79,-3.8328,-3.8509,-3.8599,-3.9073,-3.9546,-4.0041,-4.0559,-4.0702,-4.0702,-4.0702,-4.0702,-4.0702,-4.0702,-4.0702,-4.0702,-4.0702,-4.0702,-4.0702,-4.0702,-4.053,-4.0257,-4.0039,-3.9996,-4.0083,-4.03,-4.0126,-4.0083,-4.03,-4.0243,-4.0156,-4.0156,-4.0473,-4.0702,-4.0702,-4.0915,-4.1086,-4.1198,-4.1086,-4.1142,-4.1396,-4.1568,-4.1882,-4.2324,-4.2653,-4.3169,-4.396,-4.3498,-4.3512,-4.396,-4.4034,-4.4512,-4.594,-4.5485,-4.5083,-4.4783,-4.4474,-4.415,0.0,0.0,0.0,-4.2567,-4.241,-4.2347,-4.2189,-4.2062,-4.1853,-4.1419,-4.0852,-4.0351,-4.0075,-3.9459,-3.8877,-3.8575,-3.8871,-3.8832,-3.8065,-3.8404,-3.8268,-3.739,-3.7824,-3.7792,-3.6928,-3.7357,-3.7272,-3.651,-3.6436,-3.6405,-3.6405,-3.6405,-3.6499,-3.6675,-3.6675,-3.664,-3.664,-3.664,-3.693,-3.7435,-3.7376,-3.7763,-3.8474,-3.8185,-3.8107,-3.7984,-3.6998,-3.6602,-3.6696,-3.7487,-3.79,-3.8069,-3.8069,-3.8206,-3.8477,-3.9224,-3.9489,-3.9621,-4.0459,-4.0702,-4.0702,-4.0702,-4.0702,-4.0702,-4.0702,-4.0702,-4.0702,-4.0702,-4.0702,-4.0702,-4.0702,-4.0702,-4.0702,-4.0702,-4.073,-4.0773,-4.0773,-4.0773,-4.0787,-4.083,-4.083,-4.083,-4.083,-4.0986,-4.11,-4.11,-4.1255,-4.1396,-4.1396,-4.1396,-4.1438,-4.148,-4.1438,-4.1495,-4.1694,-4.2281,-4.2955,-4.36,-4.3615,-4.4019,-4.4844,-4.4844,-4.4844,-4.483,-4.4993,-4.5358,-4.7021,-4.6329,-4.5707,-4.607,-4.552,-4.4944,-4.5171,0.0,-4.4259,-4.4076,0.0,-4.3831,-4.3831,0.0,0.0,-4.2043,-4.2208,-4.1996,-4.0721,-4.0755,-4.0366,-3.8929,-3.8819,-3.8789,-3.8715,-3.8549,-3.8132,-3.735,-3.7558,-3.7543,-3.7273,-3.7052,-3.6876,-3.6754,-3.6502,-3.6405,-3.6405,-3.6405,-3.6815,-3.7625,-3.7625,-3.8069,-3.8854,-3.8854,-3.8899,-3.893,-3.868,-3.8667,-3.8711,-3.8289,-3.8107,-3.8075,-3.7736,-3.7625,-3.7625,-3.7763,-3.8328,-3.9033,-3.9033,-3.9634,-4.0386,-4.0502,-4.0516,-4.0559,-4.0659,-4.0702,-4.0702,-4.0702,-4.0702,-4.0702,-4.0702,-4.0702,-4.0702,-4.0702,-4.0702,-4.0702,-4.0702,-4.0702,-4.0702,-4.0702,-4.0845,-4.0958,-4.0958,-4.0958,-4.1057,-4.1255,-4.1311,-4.1311,-4.1311,-4.1354,-4.1339,-4.1339,-4.1396,-4.1396,-4.1396,-4.1396,-4.148,-4.166,-4.1507,-4.1808,-4.2777,-4.3429,-4.4066,-4.4733,-4.4733,-4.5067,-4.5734,-4.5734,-4.5734,-4.5734,-4.5779,-4.5808,-4.7406,-4.6923,-4.6484,-4.6425,-4.6007,-4.5631,-4.5614,-4.5407,-4.5081,-4.4769,0.0,0.0,0.0,0.0,0.0,0.0,-4.3015,-4.2717,-4.2067,-4.1789,-4.1297,-4.0297,-3.9748,-3.9277,-3.8855,-3.8683,-3.8514,-3.8179,-3.8495,-3.843,-3.7783,-3.7839,-3.7657,-3.7124,-3.6968,-3.7093,-3.7511,-3.7511,-3.7907,-3.8599,-3.8599,-3.881,-3.921,-3.921,-3.9505,-4.0029,-3.9885,-4.0159,-4.0674,-4.0346,-4.0173,-4.0173,-3.9984,-3.937,-3.8689,-3.9401,-3.9809,-4.0085,-4.0085,-4.0329,-4.0702,-4.0702,-4.0702,-4.0702,-4.0702,-4.0702,-4.073,-4.0845,-4.0887,-4.0887,-4.1086,-4.1086,-4.1086,-4.1086,-4.1086,-4.1086,-4.1086,-4.1086,-4.1086,-4.1086,-4.1156,-4.1283,-4.1395,-4.1311,-4.1255,-4.1396,-4.1396,-4.1396,-4.1396,-4.1507,-4.1577,-4.1577,-4.1731,-4.1787,-4.1787,-4.224,-4.2348,-4.1939,-4.2188,-4.319,-4.5183,-4.5355,-4.5815,-4.6584,-4.7066,-4.7482,-4.7785,-4.7785,-4.7785,-4.7743,-4.6609,-4.609,-4.784,-4.753,-4.727,-4.7048,-4.6687,-4.6395,-4.6305,-4.6136,-4.5908,-4.558,-4.5311,0.0,0.0,0.0,-4.4507,-4.4114,0.0,-4.34,-4.3142,-4.2823,-4.2347,-4.1528,-4.0656,-3.9889,-3.9241,-3.9053,-3.8907,-3.8819,-3.9164,-3.9075,-3.8317,-3.8507,-3.8266,-3.7523,-3.7422,-3.7594,-3.8027,-3.8041,-3.8374,-3.9056,-3.9056,-3.9282,-3.9707,-3.9707,-4.0192,-4.1015,-4.1015,-4.1437,-4.2092,-4.18,-4.1688,-4.1702,-4.1549,-4.0788,-3.9927,-4.0788,-4.1029,-4.0873,-4.0873,-4.0873,-4.0873,-4.0873,-4.0873,-4.0873,-4.0873,-4.0873,-4.0944,-4.1324,-4.1436,-4.1478,-4.1688,-4.1729,-4.1729,-4.1729,-4.1549,-4.148,-4.1688,-4.1729,-4.166,-4.1423,-4.1633,-4.1771,-4.1688,-4.1577,-4.1522,-4.1647,-4.1689,-4.1689,-4.1758,-4.1868,-4.2061,-4.2278,-4.247,-4.2688,-4.286,-4.3412,-4.3606,-4.3233,-4.3964,-4.5282,-4.7181,-4.7241,-4.752,-4.8149,-4.8794,-4.9103,-4.9103,-4.9103,-4.9103,-4.9063,-4.7658,-4.6857,-4.8569,-4.8232,-4.7979,-4.8421,-4.7842,-4.7281,-4.772,-4.7284,-4.6761,-4.6738,-4.6167,-4.5673,-4.5648,-4.5302,0.0,0.0,0.0,0.0,0.0,-4.3867,-4.3663,-4.2157,-4.1213,-4.0535,-4.02,-3.9681,-3.9228,-3.8819,-3.8995,-3.901,-3.8775,-3.8529,-3.8328,-3.8077,-3.7758,-3.7504,-3.7333,-3.7346,-3.7811,-3.8696,-3.8696,-3.9525,-4.1039,-4.1039,-4.1401,-4.2051,-4.2051,-4.2051,-4.2092,-4.18,-4.1688,-4.1688,-4.1688,-4.1535,-4.1354,-4.1396,-4.1396,-4.1396,-4.1396,-4.1396,-4.1396,-4.1396,-4.1396,-4.1396,-4.1396,-4.1396,-4.1535,-4.233,-4.2545,-4.2545,-4.2545,-4.2545,-4.2545,-4.2545,-4.1949,-4.1619,-4.2397,-4.2545,-4.233,-4.1549,-4.2196,-4.2629,-4.1854,-4.1688,-4.1827,-4.231,-4.2351,-4.2433,-4.2648,-4.2648,-4.2996,-4.3765,-4.3843,-4.4121,-4.4853,-4.4927,-4.5245,-4.5915,-4.7278,-4.8058,-4.8136,-4.8689,-4.9032,-4.9063,-4.9103,-4.9103,-4.9103,-4.9103,-4.9103,-4.9103,-4.9023,-4.8548,-4.7811,-4.7978,-4.8231,-4.8532,-4.8251,-4.7919,-4.7901,-4.772,-4.7413,-4.7004,-4.6733,-4.6519,-4.6406,-4.6213,0.0,0.0,0.0,0.0,0.0,-4.455,-4.4406,-4.3718,-4.2798,-4.182,-4.0839,-4.0447,-4.001,-3.9451,-3.9213,-3.9068,-3.898,-3.8803,-3.8643,-3.8568,-3.8438,-3.8523,-3.8771,-3.8903,-3.9183,-3.9639,-3.9758,-4.0087,-4.065,-4.0517,-4.0633,-4.0985,-4.0811,-4.0771,-4.08,-4.1155,-4.1288,-4.1331,-4.178,-4.1912,-4.1829,-4.1675,-4.1507,-4.1396,-4.1396,-4.1396,-4.1396,-4.1396,-4.1771,-4.2167,-4.2167,-4.2559,-4.3066,-4.347,-4.3572,-4.3626,-4.3827,-4.3866,-4.3866,-4.3866,-4.3648,-4.3545,-4.3804,-4.3866,-4.3827,-4.3657,-4.3928,-4.4106,-4.3921,-4.3868,-4.3689,-4.32,-4.368,-4.4129,-4.4205,-4.4205,-4.4319,-4.4606,-4.4606,-4.4719,-4.5001,-4.546,-4.6771,-4.9192,-4.8609,-4.8773,-5.0055,-5.0131,-5.0258,-5.0406,-5.0995,-5.1257,-5.1257,-5.1257,-5.1257,-5.1257,-5.1257,-5.0429,-4.7085,-4.735,-4.7702,-4.7827,-4.7756,-4.7611,-4.7444,-4.7369,-4.731,-4.7229,-4.678,-4.6507,-4.6878,-4.6613,0.0,0.0,0.0,0.0,0.0,-4.5069,-4.4814,-4.4686,-4.3748,-4.2629,-4.1477,-4.101,-4.0481,-3.9753,-3.9466,-3.9286,-3.9228,-3.9068,-3.898,-3.8907,-3.8907,-3.904,-3.9243,-3.9393,-3.9524,-3.9653,-3.9783,-3.9953,-4.0173,-4.0042,-4.0174,-4.051,-4.0393,-4.03,-4.0344,-4.0781,-4.11,-4.1391,-4.1818,-4.2139,-4.2288,-4.1983,-4.1773,-4.1704,-4.1993,-4.2061,-4.2102,-4.2415,-4.2856,-4.3279,-4.3279,-4.3657,-4.4159,-4.4547,-4.4659,-4.4713,-4.4983,-4.5036,-4.5073,-4.5079,-4.4893,-4.4781,-4.5042,-4.5079,-4.5079,-4.4899,-4.5085,-4.5217,-4.5038,-4.5295,-4.5238,-4.4266,-4.4682,-4.5128,-4.5253,-4.5253,-4.5363,-4.5602,-4.5638,-4.5857,-4.6399,-4.7141,-4.8558,-5.0954,-5.0223,-5.0263,-5.1529,-5.1401,-5.1271,-5.1169,-5.1974,-5.2293,-5.2028,-5.2293,-5.2409,-5.2409,-5.2409,-5.1729]},{"header":{"parameterUnit":"m.s-1","parameterCategory":1,"la1":30.6,"la2":29.2853,"lo1":-89.7004,"lo2":-87.6739,"dy":0.0162,"dx":0.0183,"nx":112,"ny":82,"refTime":"2024-02-27T18:00:00:Z","depth":0,"parameterNumber":3,"parameterNumberName":"V-component_of_WINDS"},"data":[0.0,0.0,0.0,0.0,0.0,0.0,0.0,0.0,0.0,0.0,0.0,0.0,0.0,0.0,0.0,0.0,0.0,0.0,0.0,0.0,0.0,0.0,0.0,0.0,0.0,0.0,0.0,0.0,0.0,0.0,0.0,0.0,0.0,0.0,0.0,0.0,0.0,0.0,0.0,0.0,0.0,0.0,0.0,0.0,0.0,0.0,0.0,0.0,0.0,0.0,0.0,0.0,0.0,0.0,0.0,0.0,0.0,0.0,0.0,0.0,0.0,0.0,0.0,0.0,0.0,0.0,0.0,0.0,0.0,0.0,0.0,0.0,0.0,0.0,0.0,0.0,0.0,0.0,0.0,0.0,0.0,0.0,0.0,0.0,0.0,0.0,0.0,0.0,0.0,0.0,3.3418,3.3418,3.3418,3.3418,3.3418,3.3418,3.3418,3.3418,0.0,0.0,0.0,0.0,0.0,0.0,0.0,0.0,0.0,0.0,0.0,0.0,0.0,0.0,0.0,0.0,0.0,0.0,0.0,0.0,0.0,0.0,0.0,0.0,0.0,0.0,0.0,0.0,0.0,0.0,0.0,0.0,0.0,0.0,0.0,0.0,0.0,0.0,0.0,0.0,0.0,0.0,0.0,0.0,0.0,0.0,0.0,0.0,0.0,0.0,0.0,0.0,0.0,0.0,0.0,0.0,0.0,0.0,0.0,0.0,0.0,0.0,0.0,0.0,0.0,0.0,0.0,0.0,0.0,0.0,0.0,0.0,0.0,0.0,0.0,0.0,0.0,0.0,0.0,0.0,0.0,0.0,0.0,0.0,0.0,0.0,0.0,0.0,0.0,0.0,0.0,0.0,0.0,0.0,0.0,0.0,0.0,0.0,0.0,0.0,0.0,0.0,0.0,0.0,3.3418,3.3418,3.3418,3.3418,3.3418,3.3418,3.3418,3.3418,0.0,0.0,0.0,0.0,0.0,0.0,0.0,0.0,0.0,0.0,0.0,0.0,0.0,0.0,0.0,0.0,0.0,0.0,0.0,0.0,0.0,0.0,0.0,0.0,0.0,0.0,0.0,0.0,0.0,0.0,0.0,0.0,0.0,0.0,0.0,0.0,0.0,0.0,0.0,0.0,0.0,0.0,0.0,0.0,0.0,0.0,0.0,0.0,0.0,0.0,0.0,0.0,0.0,0.0,0.0,0.0,0.0,0.0,0.0,0.0,0.0,0.0,0.0,0.0,0.0,0.0,0.0,0.0,0.0,0.0,0.0,0.0,0.0,0.0,0.0,0.0,0.0,0.0,0.0,0.0,0.0,0.0,0.0,0.0,0.0,0.0,0.0,0.0,0.0,0.0,0.0,0.0,0.0,0.0,0.0,0.0,0.0,0.0,0.0,0.0,0.0,0.0,0.0,3.3418,3.3418,3.3418,3.3418,3.3418,3.3418,3.3418,3.3418,3.3418,3.3418,0.0,0.0,0.0,0.0,0.0,0.0,0.0,0.0,0.0,0.0,0.0,0.0,0.0,0.0,0.0,0.0,0.0,0.0,0.0,0.0,0.0,0.0,0.0,0.0,0.0,0.0,0.0,0.0,0.0,0.0,0.0,0.0,0.0,0.0,0.0,0.0,0.0,0.0,0.0,0.0,0.0,0.0,0.0,0.0,0.0,0.0,0.0,0.0,0.0,0.0,0.0,0.0,0.0,0.0,0.0,0.0,0.0,0.0,0.0,0.0,0.0,0.0,0.0,0.0,0.0,0.0,0.0,0.0,0.0,0.0,0.0,0.0,0.0,0.0,0.0,0.0,0.0,0.0,0.0,0.0,0.0,0.0,0.0,0.0,0.0,0.0,0.0,0.0,0.0,0.0,0.0,0.0,0.0,0.0,0.0,0.0,0.0,0.0,0.0,0.0,0.0,0.0,3.3418,3.3418,3.3418,3.3418,3.3418,3.3418,3.3418,3.3418,3.3418,3.3418,0.0,0.0,0.0,0.0,0.0,0.0,0.0,0.0,0.0,0.0,0.0,0.0,0.0,0.0,0.0,0.0,0.0,0.0,0.0,0.0,0.0,0.0,0.0,0.0,0.0,0.0,0.0,0.0,0.0,0.0,0.0,0.0,0.0,0.0,0.0,0.0,0.0,0.0,0.0,0.0,0.0,0.0,0.0,0.0,0.0,0.0,0.0,0.0,0.0,0.0,0.0,0.0,0.0,0.0,0.0,0.0,0.0,0.0,0.0,0.0,0.0,0.0,0.0,0.0,0.0,0.0,0.0,0.0,0.0,0.0,0.0,0.0,0.0,0.0,0.0,0.0,0.0,0.0,0.0,0.0,0.0,0.0,0.0,0.0,0.0,0.0,0.0,0.0,0.0,0.0,0.0,0.0,0.0,0.0,0.0,0.0,0.0,0.0,0.0,0.0,0.0,0.0,3.3418,3.3418,3.3418,3.3418,3.3418,3.3418,3.3418,3.3418,3.3418,3.3418,0.0,0.0,0.0,0.0,0.0,0.0,0.0,0.0,0.0,0.0,0.0,0.0,0.0,0.0,0.0,0.0,0.0,0.0,0.0,0.0,0.0,0.0,0.0,0.0,0.0,0.0,0.0,0.0,0.0,0.0,0.0,0.0,0.0,0.0,0.0,0.0,0.0,0.0,0.0,0.0,0.0,0.0,0.0,0.0,0.0,0.0,0.0,0.0,0.0,0.0,0.0,0.0,0.0,0.0,0.0,0.0,0.0,0.0,0.0,0.0,0.0,0.0,0.0,0.0,0.0,0.0,0.0,0.0,0.0,0.0,0.0,0.0,0.0,0.0,0.0,0.0,0.0,0.0,0.0,0.0,0.0,0.0,0.0,0.0,0.0,0.0,0.0,0.0,0.0,0.0,0.0,0.0,0.0,0.0,0.0,0.0,0.0,0.0,0.0,0.0,0.0,0.0,3.3418,3.3418,3.3418,3.3418,3.3418,3.3418,3.3418,3.3418,3.3418,0.0,0.0,0.0,0.0,0.0,0.0,0.0,0.0,0.0,0.0,0.0,0.0,0.0,0.0,0.0,0.0,0.0,0.0,0.0,0.0,0.0,0.0,0.0,0.0,0.0,0.0,0.0,0.0,0.0,0.0,0.0,0.0,0.0,0.0,0.0,0.0,0.0,0.0,0.0,0.0,0.0,0.0,0.0,0.0,0.0,0.0,0.0,0.0,0.0,0.0,0.0,0.0,0.0,0.0,0.0,0.0,0.0,0.0,0.0,0.0,0.0,0.0,0.0,0.0,0.0,0.0,0.0,0.0,0.0,0.0,0.0,0.0,0.0,0.0,0.0,0.0,0.0,0.0,0.0,0.0,0.0,0.0,0.0,0.0,0.0,0.0,0.0,0.0,0.0,0.0,0.0,0.0,0.0,0.0,0.0,0.0,0.0,0.0,0.0,0.0,0.0,0.0,3.3418,3.3418,3.3418,3.3418,3.3418,3.3418,3.3418,3.3418,3.3418,3.3418,0.0,0.0,0.0,0.0,0.0,0.0,0.0,0.0,0.0,0.0,0.0,0.0,0.0,0.0,0.0,0.0,0.0,0.0,0.0,0.0,0.0,0.0,0.0,0.0,0.0,0.0,0.0,0.0,0.0,0.0,0.0,0.0,0.0,0.0,0.0,0.0,0.0,0.0,0.0,0.0,0.0,0.0,0.0,0.0,0.0,0.0,0.0,0.0,0.0,0.0,0.0,0.0,0.0,0.0,0.0,0.0,0.0,0.0,0.0,0.0,0.0,0.0,0.0,0.0,0.0,0.0,0.0,0.0,0.0,0.0,0.0,0.0,0.0,0.0,0.0,0.0,0.0,0.0,0.0,0.0,0.0,0.0,0.0,0.0,0.0,0.0,0.0,0.0,0.0,0.0,0.0,0.0,0.0,0.0,0.0,0.0,0.0,0.0,0.0,0.0,0.0,0.0,3.3418,3.3418,3.3418,3.3418,3.3418,3.3418,3.3418,3.3418,3.3418,0.0,0.0,0.0,0.0,0.0,0.0,0.0,0.0,0.0,0.0,0.0,0.0,0.0,0.0,0.0,0.0,0.0,0.0,0.0,0.0,0.0,0.0,0.0,0.0,0.0,0.0,0.0,0.0,0.0,0.0,0.0,0.0,0.0,0.0,0.0,0.0,0.0,0.0,0.0,0.0,0.0,0.0,0.0,0.0,0.0,0.0,0.0,0.0,0.0,0.0,0.0,0.0,0.0,0.0,0.0,0.0,0.0,0.0,0.0,0.0,0.0,0.0,0.0,0.0,0.0,0.0,0.0,0.0,0.0,0.0,0.0,0.0,0.0,0.0,0.0,0.0,0.0,0.0,0.0,0.0,0.0,0.0,0.0,0.0,0.0,0.0,0.0,0.0,0.0,0.0,0.0,0.0,0.0,0.0,0.0,0.0,0.0,0.0,0.0,0.0,0.0,0.0,0.0,3.3418,3.3418,3.3418,3.3418,3.3418,3.3418,3.3418,3.3418,3.3418,3.3418,0.0,0.0,0.0,0.0,0.0,0.0,0.0,0.0,0.0,0.0,0.0,0.0,0.0,0.0,0.0,0.0,0.0,0.0,0.0,0.0,0.0,0.0,0.0,0.0,0.0,0.0,0.0,0.0,0.0,0.0,0.0,0.0,0.0,0.0,0.0,0.0,0.0,0.0,0.0,0.0,0.0,0.0,0.0,0.0,0.0,0.0,0.0,0.0,0.0,0.0,0.0,0.0,0.0,0.0,0.0,0.0,0.0,0.0,0.0,0.0,0.0,0.0,0.0,0.0,0.0,0.0,0.0,0.0,0.0,0.0,0.0,0.0,0.0,0.0,0.0,0.0,0.0,0.0,0.0,0.0,0.0,0.0,0.0,0.0,0.0,0.0,0.0,0.0,0.0,0.0,0.0,0.0,0.0,0.0,0.0,0.0,0.0,0.0,0.0,0.0,0.0,0.0,3.3418,3.3418,3.3418,3.3418,3.3418,3.3418,3.3418,3.3418,3.3491,3.3607,0.0,0.0,0.0,0.0,0.0,0.0,0.0,0.0,0.0,0.0,0.0,0.0,0.0,0.0,0.0,0.0,0.0,0.0,0.0,0.0,0.0,0.0,0.0,0.0,0.0,0.0,0.0,0.0,0.0,0.0,0.0,0.0,0.0,0.0,0.0,0.0,0.0,0.0,0.0,0.0,0.0,0.0,0.0,0.0,0.0,0.0,0.0,0.0,0.0,0.0,0.0,0.0,0.0,0.0,0.0,0.0,0.0,0.0,0.0,0.0,0.0,0.0,0.0,0.0,0.0,0.0,0.0,0.0,0.0,0.0,0.0,0.0,0.0,0.0,0.0,0.0,0.0,0.0,0.0,0.0,0.0,0.0,0.0,0.0,0.0,0.0,0.0,0.0,0.0,0.0,0.0,0.0,0.0,0.0,0.0,0.0,0.0,0.0,0.0,0.0,0.0,0.0,3.3418,3.3418,3.3418,3.3418,3.3418,3.3418,3.3418,3.3418,3.3544,3.3859,0.0,0.0,0.0,0.0,0.0,0.0,0.0,0.0,0.0,0.0,0.0,0.0,0.0,0.0,0.0,0.0,0.0,0.0,0.0,0.0,0.0,0.0,0.0,0.0,0.0,0.0,0.0,0.0,0.0,0.0,0.0,0.0,0.0,0.0,0.0,0.0,0.0,0.0,0.0,0.0,0.0,0.0,0.0,0.0,0.0,0.0,0.0,0.0,0.0,0.0,0.0,0.0,0.0,0.0,0.0,0.0,0.0,0.0,0.0,0.0,3.2669,3.2669,0.0,0.0,0.0,0.0,0.0,0.0,0.0,0.0,0.0,0.0,0.0,0.0,0.0,0.0,0.0,0.0,0.0,0.0,0.0,0.0,0.0,0.0,0.0,0.0,0.0,0.0,0.0,0.0,0.0,0.0,0.0,0.0,0.0,0.0,0.0,0.0,0.0,0.0,0.0,0.0,3.3418,3.3418,3.3418,3.3418,3.3418,3.3418,3.3418,3.3418,3.3418,3.3481,3.367,0.0,0.0,0.0,0.0,0.0,0.0,0.0,0.0,0.0,0.0,0.0,0.0,0.0,0.0,0.0,0.0,0.0,0.0,0.0,0.0,0.0,0.0,0.0,0.0,0.0,0.0,0.0,0.0,0.0,0.0,0.0,0.0,0.0,0.0,0.0,0.0,0.0,0.0,0.0,0.0,0.0,0.0,0.0,0.0,0.0,0.0,0.0,0.0,0.0,0.0,0.0,0.0,0.0,0.0,0.0,0.0,0.0,0.0,0.0,3.2669,3.2669,0.0,0.0,0.0,0.0,0.0,0.0,0.0,0.0,0.0,0.0,0.0,0.0,0.0,0.0,0.0,0.0,0.0,0.0,0.0,0.0,0.0,0.0,0.0,0.0,0.0,0.0,0.0,0.0,0.0,0.0,0.0,0.0,0.0,0.0,0.0,0.0,0.0,0.0,0.0,0.0,3.3418,3.3418,3.3418,3.3418,3.3418,3.3418,3.3418,3.3544,3.3965,3.4736,3.4995,0.0,0.0,0.0,0.0,0.0,0.0,0.0,0.0,0.0,0.0,0.0,0.0,0.0,0.0,0.0,0.0,0.0,0.0,0.0,0.0,0.0,0.0,0.0,0.0,0.0,0.0,0.0,0.0,0.0,0.0,0.0,0.0,0.0,0.0,0.0,0.0,0.0,0.0,0.0,0.0,0.0,0.0,0.0,0.0,0.0,0.0,0.0,0.0,0.0,0.0,0.0,0.0,0.0,3.2669,3.2669,3.2669,3.2669,3.2669,3.2669,3.2669,3.2669,3.2669,3.2669,0.0,0.0,0.0,0.0,0.0,0.0,0.0,0.0,0.0,0.0,0.0,0.0,0.0,0.0,0.0,0.0,0.0,0.0,0.0,0.0,0.0,0.0,3.2465,3.2765,3.2908,3.3115,3.3619,0.0,0.0,0.0,0.0,0.0,0.0,0.0,0.0,0.0,0.0,0.0,3.3481,3.3418,3.3418,3.3418,3.3418,3.3418,3.3418,3.3912,3.4808,3.6122,3.6539,3.7265,0.0,0.0,0.0,0.0,0.0,0.0,0.0,0.0,0.0,0.0,0.0,0.0,0.0,0.0,0.0,0.0,0.0,0.0,0.0,0.0,0.0,0.0,0.0,0.0,0.0,0.0,0.0,0.0,0.0,0.0,0.0,0.0,3.4481,3.4438,0.0,0.0,0.0,0.0,0.0,0.0,0.0,0.0,0.0,0.0,0.0,0.0,0.0,3.2684,3.2899,3.2682,3.2607,3.2669,3.2669,3.2669,3.2669,3.2669,3.2669,3.2669,3.2669,0.0,3.2669,3.2669,0.0,0.0,0.0,0.0,0.0,0.0,0.0,0.0,0.0,0.0,0.0,0.0,0.0,0.0,0.0,0.0,0.0,0.0,0.0,0.0,0.0,0.0,3.269,3.2684,3.3052,3.3351,3.3417,3.3698,3.397,3.428,3.436,3.4235,0.0,0.0,0.0,0.0,0.0,0.0,3.3796,3.3607,3.3418,3.3418,3.3418,3.3418,3.3418,3.4736,3.5622,3.5867,3.7445,3.8354,3.8283,3.8472,0.0,0.0,0.0,0.0,0.0,0.0,0.0,0.0,0.0,0.0,0.0,0.0,0.0,0.0,0.0,0.0,0.0,0.0,0.0,0.0,0.0,0.0,0.0,0.0,0.0,0.0,0.0,0.0,0.0,3.4311,3.4597,3.4597,3.476,3.509,0.0,0.0,0.0,0.0,0.0,0.0,0.0,0.0,0.0,3.49,3.4548,3.4336,3.4311,3.4208,3.3695,3.2669,3.2908,3.2908,3.2669,3.2669,3.2669,3.2669,3.2669,3.2669,3.2669,3.2669,3.2669,3.2669,0.0,0.0,0.0,0.0,3.2669,3.2669,3.2669,3.2669,3.2669,3.2669,0.0,0.0,0.0,0.0,0.0,0.0,0.0,3.3717,3.3717,3.3218,3.2669,3.2669,3.2871,3.3078,3.3327,3.3523,3.3707,3.4227,3.4511,3.4485,3.3985,3.4047,0.0,0.0,0.0,3.4047,3.4173,3.4047,3.3985,3.3985,3.3796,3.3975,3.4704,3.5592,3.671,3.8153,3.9358,4.0315,4.0892,4.0187,3.9523,0.0,0.0,0.0,0.0,0.0,0.0,0.0,0.0,0.0,0.0,0.0,0.0,0.0,0.0,0.0,0.0,0.0,0.0,0.0,0.0,0.0,0.0,0.0,0.0,0.0,0.0,0.0,0.0,3.4702,3.5028,3.5095,3.5833,3.6251,0.0,0.0,0.0,0.0,0.0,0.0,3.44,3.4363,3.5016,3.6541,3.6162,3.5951,3.6063,3.5856,3.4925,3.3264,3.3491,3.3342,3.2669,3.2669,3.2669,3.2669,3.2669,3.2669,3.2669,3.2669,3.2669,3.2669,3.2669,3.2669,3.2669,3.2669,3.2669,3.2669,3.2669,3.2669,3.2727,3.3058,3.3987,3.4902,3.4902,0.0,0.0,0.0,0.0,3.4858,3.4591,3.3818,3.3058,3.2784,3.2669,3.282,3.3141,3.3296,3.3589,3.4277,3.4657,3.4727,3.4215,3.436,0.0,3.4173,3.4298,3.4423,3.4548,3.4423,3.4423,3.4423,3.4465,3.4943,3.592,3.6853,3.8212,4.014,4.1088,4.1975,4.2773,4.1646,4.0745,4.009,0.0,0.0,0.0,0.0,0.0,0.0,0.0,0.0,0.0,0.0,0.0,0.0,0.0,0.0,0.0,0.0,0.0,0.0,0.0,0.0,0.0,0.0,0.0,0.0,0.0,0.0,0.0,0.0,0.0,3.647,3.7032,0.0,0.0,0.0,0.0,3.5582,3.5426,3.551,3.5784,3.5558,3.632,3.8226,3.7467,3.7239,3.779,3.718,3.6194,3.4814,3.4814,3.4067,3.2669,3.2669,3.2669,3.2669,3.2669,3.2669,3.2669,3.2669,3.2669,3.2669,3.2669,3.2669,3.2669,3.2669,3.2669,3.2669,3.2669,3.2669,3.2898,3.4043,3.5179,3.6131,3.6131,3.6131,0.0,0.0,3.6131,3.587,3.4803,3.448,3.4089,3.2944,3.2669,3.2737,3.2758,3.3089,3.3648,3.4579,3.4776,3.4799,3.485,0.0,3.4859,3.4859,3.461,3.4548,3.4859,3.461,3.4423,3.4423,3.5479,3.6184,3.6245,3.8805,4.0419,4.0604,4.2024,4.268,4.2275,4.2141,4.1713,4.0881,4.0814,0.0,0.0,0.0,0.0,0.0,0.0,0.0,0.0,0.0,0.0,0.0,0.0,0.0,0.0,0.0,0.0,0.0,0.0,0.0,0.0,0.0,0.0,0.0,0.0,0.0,0.0,0.0,0.0,3.6599,3.7143,0.0,3.7261,3.7307,3.7214,3.6815,3.6956,3.7108,3.7188,3.7108,3.7625,3.8864,3.8781,3.8653,3.8499,3.8448,3.7678,3.6248,3.5311,3.4614,3.4067,3.3105,3.2669,3.2669,3.2669,3.2851,3.3022,3.2794,3.2669,3.2669,3.2669,3.2669,3.2669,3.2669,3.2669,3.2669,3.2669,3.2669,3.3001,3.4947,3.636,3.7447,3.8214,3.8425,3.8425,3.8425,3.7885,3.7019,3.587,3.5068,3.4211,3.3001,3.2669,3.2669,3.2669,3.2851,3.3141,3.3751,3.4113,3.4395,3.4483,3.4687,3.4841,3.4881,3.4984,3.5108,3.5232,3.5818,3.6276,3.6276,3.7226,3.8175,3.9017,3.9708,4.0446,4.1284,4.1656,4.1831,4.1643,4.163,4.1313,4.0655,4.0643,4.0414,0.0,0.0,0.0,0.0,0.0,0.0,0.0,0.0,0.0,0.0,0.0,0.0,0.0,0.0,0.0,0.0,0.0,0.0,0.0,0.0,0.0,0.0,0.0,0.0,0.0,3.6337,3.6987,3.6897,3.7318,3.7564,3.74,3.7505,3.7611,3.7611,3.7808,3.79,3.79,3.79,3.8329,3.9306,3.9503,3.9584,3.9636,3.984,3.9183,3.7707,3.6823,3.6022,3.5409,3.4067,3.3378,3.3275,3.2898,3.2841,3.3022,3.2794,3.2669,3.2669,3.2669,3.2669,3.2669,3.2669,3.2669,3.2784,3.3172,3.3547,3.419,3.6143,3.7566,3.8659,3.9478,3.9697,3.9697,3.9697,3.9141,3.8214,3.7073,3.6197,3.5344,3.4134,3.3864,3.3864,3.3864,3.3604,3.3529,3.4204,3.4086,3.392,3.4204,3.4407,3.4612,3.4821,3.4943,3.5136,3.571,3.6348,3.6947,3.7351,3.8339,3.9267,4.0093,4.029,4.0666,4.1487,4.138,4.12,4.1012,4.1012,4.0802,4.0249,4.0237,4.0061,3.9697,0.0,0.0,0.0,0.0,0.0,0.0,0.0,0.0,0.0,0.0,0.0,0.0,0.0,0.0,0.0,0.0,0.0,0.0,0.0,0.0,0.0,0.0,0.0,3.6625,3.6876,3.7143,3.7487,3.7749,3.79,3.79,3.79,3.79,3.79,3.79,3.79,3.79,3.79,3.8423,3.9573,3.9612,4.0161,4.1311,4.1261,4.0618,3.9274,3.9223,3.8323,3.6619,3.5464,3.477,3.4424,3.3218,3.2737,3.2727,3.2669,3.2737,3.2727,3.2669,3.2669,3.2669,3.2669,3.2727,3.2887,3.4043,3.5234,3.6414,3.7501,3.8712,3.9697,3.9697,3.9697,3.9697,3.9697,3.9697,3.9413,3.8214,3.7897,3.7607,3.6468,3.6185,3.6185,3.6185,3.5333,3.4902,3.5979,3.4706,3.362,3.4077,3.416,3.4316,3.4783,3.4471,0.0,3.6259,3.6136,3.6352,3.7485,3.8712,3.9434,3.9422,4.0565,4.1263,4.1263,4.125,4.1,4.0513,4.0488,4.0237,3.9697,3.9697,3.9697,3.9697,0.0,0.0,0.0,0.0,0.0,0.0,0.0,0.0,0.0,0.0,0.0,0.0,0.0,0.0,0.0,0.0,0.0,0.0,0.0,0.0,0.0,3.7214,3.7417,3.6961,3.7332,3.7671,3.7782,3.7854,3.79,3.79,3.79,3.79,3.79,3.79,3.79,3.79,3.79,3.8423,3.9573,3.9612,4.0161,4.1311,4.1097,4.0883,4.0732,3.9494,3.8742,3.8428,3.5999,3.4869,3.4714,3.3321,3.2851,3.3022,3.2794,3.2841,3.3022,3.2784,3.2669,3.2669,3.2669,3.3275,3.3931,3.3388,3.5068,3.734,3.6846,3.8043,3.9697,3.9697,3.9697,3.9697,3.9697,3.9697,3.9413,3.8214,3.7897,3.7607,3.6468,3.6185,3.6185,3.6185,3.5979,3.5815,3.6131,3.5753,3.5569,3.6072,3.615,3.5987,3.5574,3.615,3.6454,3.6027,3.7383,3.8197,3.7712,3.9525,4.0414,3.9623,4.0285,4.0739,4.0739,4.0362,4.0074,3.9923,3.9923,3.9848,3.9697,3.9697,3.9697,0.0,0.0,0.0,0.0,0.0,0.0,0.0,0.0,0.0,0.0,0.0,0.0,0.0,0.0,0.0,0.0,0.0,0.0,0.0,0.0,0.0,0.0,3.7678,3.7782,3.7429,3.7678,3.79,3.79,3.79,3.79,3.79,3.79,3.79,3.79,3.79,3.79,3.79,3.79,3.8423,3.9573,3.9612,4.0161,4.1311,4.1161,4.1161,4.1261,4.03,3.9827,3.9673,3.7506,3.6162,3.5366,3.4032,3.3285,3.2965,3.2784,3.2784,3.2965,0.0,0.0,0.0,0.0,3.3172,3.3717,3.3491,3.5068,3.718,3.6954,3.8161,3.9697,3.9697,3.9697,3.9697,3.9697,3.9697,3.953,3.8816,3.8659,3.8489,3.7832,3.766,3.766,3.766,3.7287,3.7061,3.7554,3.7287,0.0,3.7959,3.7236,3.6529,3.6317,3.6714,3.6982,3.6963,3.8028,3.8731,3.8525,3.9816,4.0361,3.9697,3.9957,0.0,0.0,0.0,3.9697,3.9697,3.9697,0.0,0.0,0.0,3.9697,3.9697,3.9697,0.0,0.0,3.9697,3.9697,0.0,0.0,0.0,0.0,0.0,0.0,0.0,0.0,0.0,0.0,0.0,0.0,0.0,0.0,0.0,0.0,3.79,3.79,3.79,3.79,3.79,3.79,3.79,3.79,3.79,3.79,3.79,3.79,3.79,3.79,3.79,3.79,0.0,0.0,0.0,4.0122,4.1206,4.1285,4.1311,4.1311,4.1311,4.106,4.0555,3.9403,3.7995,3.6457,3.5278,3.4145,3.3105,3.2944,3.2841,3.2669,3.2669,3.2669,3.2669,3.2669,3.2784,3.3058,3.4155,0.0,0.0,3.7554,3.8712,3.9697,3.9697,3.9697,3.9697,3.9697,3.9697,3.9697,3.9697,3.9697,3.9697,3.9697,3.9697,3.9697,3.9697,3.8868,3.8437,3.9478,3.8816,3.8437,3.953,3.7991,3.6673,3.6971,3.6757,3.7052,3.8335,3.828,3.8437,3.9426,3.9633,0.0,3.953,3.9633,3.9697,3.9697,3.9697,3.9697,3.9697,3.9697,3.9697,3.9697,3.9697,3.9697,3.9697,3.9697,3.9697,3.9697,3.9697,3.9697,0.0,0.0,0.0,0.0,0.0,0.0,0.0,0.0,0.0,0.0,0.0,0.0,0.0,0.0,0.0,3.79,3.79,3.79,3.79,3.79,3.79,3.79,3.79,3.79,3.79,3.79,3.79,3.79,3.79,3.79,3.79,3.79,3.8214,3.8867,3.9364,3.9926,4.0592,4.1076,4.1311,4.1311,4.1311,0.0,4.111,3.9763,3.8963,3.8533,3.6888,3.6088,3.5761,3.4636,3.3604,3.2669,3.2669,3.2669,3.2669,3.2669,3.3332,3.4211,3.4424,3.5827,3.7619,3.7832,3.8712,3.9697,3.9697,3.9697,0.0,3.9697,3.9697,3.9697,3.9697,3.9697,3.9697,3.9697,3.9697,3.9697,3.9697,3.953,3.9413,3.9633,3.953,3.9426,3.9645,3.931,3.8736,3.7869,3.8445,3.8801,3.8135,3.8825,3.9089,3.8332,3.9141,3.931,3.8332,3.9141,3.9697,3.9697,3.9697,3.9697,3.9697,3.9697,3.9697,3.9697,3.9697,3.9697,3.9697,3.9697,3.9697,3.9697,3.9697,3.9697,0.0,0.0,0.0,0.0,0.0,0.0,0.0,0.0,0.0,0.0,0.0,3.79,3.79,0.0,3.79,3.79,3.79,3.79,3.79,3.79,3.79,3.79,3.79,3.79,3.79,3.79,3.79,3.79,3.79,3.79,3.79,3.79,3.8161,3.8697,3.9298,3.9873,4.0409,4.101,4.1311,4.1311,4.1311,4.1211,4.1097,4.0351,3.9545,3.869,3.7849,3.7037,3.6348,3.5651,3.5013,3.4458,3.4458,3.4089,3.3604,3.3604,3.4357,3.5333,3.5333,3.648,3.7897,3.7897,3.8712,3.9697,3.9697,3.9697,3.9697,3.9697,3.9697,3.9697,3.9697,3.9697,3.9697,3.9697,3.9697,3.9697,3.9697,3.9697,3.9697,3.9697,3.9697,3.9697,3.9697,3.9697,3.9478,3.8868,3.931,3.9478,3.8868,3.931,3.9478,3.8868,3.9362,3.9478,3.8868,3.9362,3.9697,3.9697,3.9697,3.9697,3.9697,3.9697,3.9697,3.9697,3.9697,3.9697,3.9697,3.9697,3.9697,3.9697,3.9697,3.9697,0.0,0.0,0.0,0.0,0.0,0.0,0.0,3.7551,3.7564,3.7854,3.79,3.79,3.79,3.79,3.79,3.79,3.79,3.79,3.79,3.79,3.79,3.79,3.79,3.79,3.79,3.79,3.79,3.79,3.79,3.79,3.79,3.79,3.8109,3.854,3.9128,3.9638,4.0082,4.0788,4.1141,4.1141,4.1259,4.1211,4.0997,4.0997,4.0185,3.8807,3.8703,3.7849,3.6522,3.6522,3.6402,3.6185,3.6185,3.5761,3.5124,3.4902,3.5388,3.624,3.6457,3.7115,3.795,3.8161,3.8921,3.9697,3.9697,3.9697,3.9697,3.9697,3.9697,3.9697,3.9697,3.9697,3.9697,3.9697,3.9697,3.9697,3.9697,3.9697,3.9697,3.9697,3.9697,3.9697,3.9697,3.9697,3.9697,3.9697,3.9697,3.9697,3.9697,3.9697,3.9697,3.9697,3.9697,3.9697,3.9697,3.9697,3.9697,3.9697,3.9697,3.9697,3.9697,3.9697,3.9697,3.9697,3.9697,3.9697,3.9697,3.9697,3.9634,3.9534,3.9534,3.9597,3.6405,3.6405,3.6499,3.6968,3.6909,3.6956,0.0,3.7657,3.7564,3.7854,3.79,3.79,3.79,3.79,3.79,3.79,3.79,3.79,3.79,3.79,3.79,3.79,3.79,3.79,3.79,3.79,3.79,3.79,3.79,3.79,3.79,3.79,3.7926,3.7991,3.8527,3.8841,3.8893,3.9978,4.0514,4.0527,4.1063,4.1261,4.1261,4.1261,4.1047,4.0567,4.0109,3.9065,3.7725,3.7725,3.7126,3.6185,3.6185,3.6738,3.7406,3.636,3.6077,3.6348,3.734,3.7779,3.8056,3.9154,3.9581,3.9697,3.9697,3.9697,3.9697,3.9697,3.9697,3.9697,3.9697,3.9697,3.9697,3.9697,3.9697,3.9697,3.9697,3.9697,3.9697,3.9697,3.9697,3.9697,3.9697,3.9697,3.9697,3.9697,3.9697,3.9697,3.9697,3.9697,3.9697,3.9697,3.9697,3.9697,3.9697,3.9697,3.9697,3.9697,3.9697,3.9697,3.9697,3.9697,3.9697,3.9697,3.9697,3.9697,3.9697,3.9697,3.9446,3.9007,3.9007,3.922,3.6405,3.6499,3.6581,3.6687,3.6675,3.6815,3.7307,3.7214,3.7214,3.7762,3.7762,3.7703,3.7854,3.79,3.79,3.79,3.79,3.79,3.79,3.79,3.79,3.79,3.79,3.79,3.79,3.79,3.79,3.79,3.79,3.79,3.79,3.79,3.79,3.79,3.8436,3.871,3.871,3.9534,3.9952,3.9952,4.02,4.0318,4.0318,4.0318,4.0158,3.985,3.9193,3.8642,3.8175,3.801,3.7692,3.727,3.727,3.7734,3.8386,3.75,3.7607,3.8319,3.8764,3.8933,3.9037,3.953,3.9697,3.9697,3.9697,3.9697,3.9697,3.9697,3.9697,3.9697,3.9697,3.9697,3.9697,3.9697,3.9697,3.9697,3.9697,3.9697,3.9697,3.9697,3.9697,3.9697,3.9697,3.9697,3.9697,3.9697,3.9697,3.9697,3.9697,3.9697,3.9697,3.9697,3.9697,3.9697,3.9697,3.9697,3.9697,3.9697,3.9697,3.9697,3.9697,3.9697,3.9697,3.9697,3.9383,3.922,3.922,3.8881,3.8592,3.8366,3.8366,3.8492,3.6405,3.6499,3.6581,3.6499,3.6581,3.6769,3.7062,3.6956,3.6968,3.7564,3.7564,3.7564,3.7749,3.7854,3.79,3.79,3.79,3.79,3.79,3.79,3.79,3.79,3.79,3.79,3.79,3.79,3.79,3.79,3.79,3.79,3.79,3.79,3.79,3.79,3.8279,3.8488,3.8488,3.9076,3.9364,3.9364,3.9534,3.9612,3.9599,3.9455,3.9297,3.9043,3.8298,3.8114,3.8261,3.8064,3.8002,3.8002,3.8002,3.8266,3.8567,3.8111,3.8662,3.9697,3.9697,3.9697,3.9697,3.9697,3.9697,3.9697,3.9697,3.9697,3.9697,3.9697,3.9697,3.9697,3.9697,3.9697,3.9697,3.9697,3.9697,3.9697,3.9697,3.9697,3.9697,3.9697,3.9697,3.9697,3.9697,3.9697,3.9697,3.9697,3.9697,3.9697,3.9697,3.9697,3.9697,3.9697,3.9697,3.9697,3.9697,3.9697,3.9697,3.9697,3.9697,3.9697,3.9697,3.9546,3.9471,3.9471,3.8919,3.8718,3.8919,3.8442,3.8253,3.8253,3.8253,3.8165,3.6405,3.6405,3.6452,3.6628,3.6709,3.6769,3.7062,3.7108,3.7108,3.7108,3.7307,3.7505,3.7505,3.7703,3.79,3.79,3.79,3.79,3.79,3.79,3.79,3.79,3.79,3.79,3.79,3.79,3.79,3.79,3.79,3.79,3.79,3.79,3.79,3.79,3.7926,3.7926,3.7926,3.8462,3.8736,3.8736,3.9324,3.9612,3.9564,3.9043,3.8835,3.8787,3.8249,3.8002,3.8002,3.8002,3.8002,3.8002,3.8002,3.8015,3.804,3.799,3.8705,3.9697,3.9697,3.9697,3.9697,3.9697,3.9697,3.9697,3.9697,3.9697,3.9697,3.9697,3.9697,3.9697,3.9697,3.9697,3.9697,3.9697,3.9697,3.9697,3.9697,3.9697,3.9697,3.9697,3.9697,3.9697,3.9697,3.9697,3.9697,3.9697,3.9697,3.9697,3.9697,3.9697,3.9697,3.9697,3.9697,3.9697,3.9697,3.9697,3.9697,3.9697,3.9697,3.9697,3.9697,3.9182,3.8944,3.8944,3.8329,3.8316,3.8919,3.8906,3.8894,3.8894,3.8894,3.8542,3.6405,3.6405,3.6405,3.6499,3.6499,3.6546,3.6769,3.6722,3.6734,3.7015,3.7015,3.7015,3.7201,3.7459,3.7611,3.7611,3.7762,3.79,3.79,3.79,3.79,3.79,3.79,3.79,3.79,3.79,3.79,3.79,3.844,3.8517,3.7946,3.8427,3.8517,3.79,3.79,3.79,3.79,3.8083,3.8174,3.8174,3.8383,3.8382,3.8181,3.7827,3.7672,3.7625,3.7149,3.7006,3.7137,3.7137,3.7137,3.7137,3.7137,3.7377,3.7718,3.7511,3.7927,3.8567,3.8567,3.8567,3.8567,3.8567,3.8567,3.8567,3.8567,3.8567,3.8567,3.8567,3.8843,3.9145,3.9145,3.9421,3.9697,3.9697,3.9697,3.9697,3.9697,3.9697,3.989,4.0554,4.0693,4.0945,4.1631,4.1182,4.0453,3.9788,3.9697,3.9697,3.9697,3.9697,3.9697,3.9697,3.9697,3.9697,3.9697,3.9697,3.9697,3.9697,3.9346,3.9145,3.9145,3.8592,3.8304,3.8304,3.7751,3.7563,3.7751,3.7436,3.726,3.726,3.726,3.7147,3.6405,3.6405,3.6405,3.6405,3.6405,3.6452,3.6534,3.6499,3.6499,3.6781,3.6769,3.6769,3.6922,3.7261,3.7459,3.7366,3.7564,3.7762,3.7762,3.807,3.8148,3.7946,3.8181,3.8226,3.7946,3.8181,3.8349,3.8349,3.8881,3.9091,3.8877,3.9401,3.9312,3.8395,3.8349,3.8226,3.79,3.79,3.79,3.79,3.79,3.7808,3.7611,3.7366,3.7201,3.7062,3.6687,3.6581,3.6675,3.6628,3.6675,3.6815,3.6675,3.6855,3.728,3.7076,3.7255,3.7572,3.7864,3.8002,3.8002,3.8002,3.8002,3.8002,3.8002,3.8002,3.8002,3.8002,3.8278,3.8567,3.8567,3.8818,3.9094,3.9094,3.9094,3.9094,3.9094,3.9373,3.9788,4.0408,4.0851,4.1324,4.2093,4.1745,4.102,4.0249,4.0236,4.0102,3.9511,3.922,3.9094,3.9094,3.9094,3.9094,3.9094,3.9094,3.9094,3.9094,3.8755,3.8617,3.8717,3.8064,3.7811,3.7958,3.7354,3.7177,3.7463,3.7109,3.7045,3.7248,3.7248,3.7248,3.6405,3.6405,3.6405,3.6405,3.6405,3.6405,3.6405,3.6405,3.6405,3.6405,3.6534,3.6675,3.6675,3.7108,3.7366,3.7155,3.7307,3.7505,3.7505,3.8304,3.8607,3.7992,3.8639,3.8792,3.7992,3.8639,3.9166,3.9241,3.9329,3.9724,4.0546,4.0646,4.0246,3.9285,3.9241,3.8792,3.7979,3.79,3.79,3.7992,3.79,3.79,3.7854,3.7611,3.7353,3.7108,3.6815,3.6709,3.6675,3.6499,3.6687,3.7062,3.6593,3.6534,3.6722,3.6722,3.6709,3.6827,3.7648,3.7914,3.7914,3.7914,3.7927,3.7914,3.7914,3.7914,3.7976,3.7927,3.7939,3.7965,3.8014,3.799,3.8002,3.8052,3.8052,3.8101,3.8101,3.8833,3.9516,3.9564,4.0381,4.114,4.1251,4.1453,4.1439,4.1001,4.121,4.0877,3.9219,3.8528,3.8138,3.8101,3.8101,3.8101,3.8052,3.8052,3.8052,3.8052,3.8026,3.8112,3.8371,3.7632,3.7377,3.7855,3.713,3.7082,3.7855,3.7855,3.8149,3.87,3.87,3.87,3.6304,3.6405,3.6405,3.6405,3.6405,3.6405,3.6405,3.6405,3.6405,3.6405,3.6452,3.6499,3.6499,3.6734,3.6956,3.7062,3.7307,3.7564,3.7762,3.8024,3.807,3.79,3.8103,3.8148,3.79,3.8103,3.8774,4.0116,4.0901,4.1071,4.0646,4.1254,4.1212,4.0289,3.9549,3.9077,3.8881,3.8226,3.8226,3.8881,3.8226,3.7808,3.7611,3.7505,3.7353,3.7108,3.7015,3.6862,3.6709,3.6875,3.6862,3.6815,3.6675,3.6769,3.6956,3.6756,3.6815,3.7053,3.7253,3.72,3.701,3.6867,3.6915,3.6998,3.6867,3.7058,3.7295,3.7093,3.7362,3.7752,3.7884,3.8092,3.8372,3.8532,3.8968,3.9364,3.9542,4.018,4.1007,4.1952,4.2977,4.3444,4.2755,4.2653,4.2416,4.1498,4.11,4.085,4.067,4.0623,4.0341,3.9638,3.9542,3.928,3.8666,3.8581,3.8581,3.8581,3.8161,3.7967,3.8015,3.7444,3.7185,3.7279,3.7092,3.7092,3.7326,3.7326,3.7403,3.7544,3.7544,3.7544,3.5918,3.6182,3.6405,3.6405,3.6405,3.6405,3.6405,3.6405,3.6405,3.6405,3.6405,3.6405,3.6405,3.6675,3.6909,3.6922,3.7261,3.7505,3.7551,3.7998,3.8317,3.8317,3.844,3.8472,3.8472,3.8472,3.8895,3.9899,4.0859,4.1505,4.1755,4.2278,4.2155,4.1254,4.0689,4.0246,3.9812,3.9326,3.9104,3.921,3.8715,3.8167,3.7657,3.7657,3.7505,3.7261,3.7261,3.7201,3.7062,3.7108,3.7155,3.7201,3.6968,3.7062,3.7261,3.7121,3.7168,3.7261,3.7261,3.7168,3.7015,3.6781,3.6781,3.6862,3.6734,3.6875,3.7062,3.6922,3.7104,3.7406,3.7535,3.799,3.8506,3.8647,3.9276,3.9882,3.9973,4.0639,4.1585,4.2696,4.3443,4.3708,4.305,4.3078,4.2936,4.2123,4.191,4.1896,4.1965,4.1293,4.058,4.0064,4.0019,3.9666,3.8742,3.866,3.8471,3.8082,3.7714,3.7582,3.7736,3.7322,3.7214,3.7459,3.7353,3.7307,3.7459,3.7459,3.7459,3.7459,3.7459,3.7459,3.5483,3.5943,3.6405,3.6405,3.6405,3.6405,3.6405,3.6405,3.6405,3.6405,3.6405,3.6405,3.6405,3.6734,3.6968,3.6769,3.7155,3.7366,3.7168,3.8063,3.8819,3.8908,3.897,3.9077,3.921,3.9077,3.9077,3.921,4.0073,4.1323,4.3036,4.325,4.2915,4.2032,4.199,4.1603,4.0774,4.0646,4.0246,3.9549,3.9461,3.8926,3.807,3.807,3.7874,3.7551,3.7551,3.7505,3.7505,3.7261,3.7413,3.7749,3.7261,3.7261,3.7505,3.7505,3.7505,3.7551,3.7551,3.7551,3.7505,3.7214,3.7108,3.7168,3.7108,3.7155,3.7214,3.7155,3.7155,3.7155,3.7214,3.7867,3.8554,3.8599,3.9373,4.0159,4.0159,4.0901,4.1811,4.2633,4.2915,4.2996,4.2809,4.305,4.317,4.2809,4.309,4.325,4.3076,4.1491,4.0332,4.0202,4.0159,3.9812,3.8854,3.8765,3.8373,3.7466,3.7374,3.7433,3.7551,3.7307,3.7413,3.79,3.7657,3.7657,3.79,3.79,3.79,3.79,3.79,3.79,3.537,3.5943,3.6405,3.6405,3.6405,3.6405,3.6405,3.6405,3.6405,3.6405,3.6405,3.6405,3.6405,3.6452,3.664,3.6968,3.7108,3.7214,3.7413,3.7782,3.8272,3.8819,3.844,3.8395,3.9121,3.8549,3.844,3.9166,4.0073,4.1071,4.2155,4.2915,4.2915,4.2032,4.199,4.1908,4.1769,4.0986,4.0901,4.1505,4.0731,3.9855,3.8957,3.8957,3.8549,3.7854,3.7854,3.7703,3.7505,3.7459,3.7353,3.7214,3.7155,3.7261,3.7505,3.7505,3.7657,3.7854,3.7854,3.7854,3.7749,3.7261,3.7261,3.74,3.7168,3.7413,3.7703,3.7505,3.7413,3.7505,3.7703,3.8304,3.8895,3.9033,4.0273,4.1408,4.1603,4.2319,4.2996,4.317,4.321,4.325,4.321,4.325,4.329,4.321,4.325,4.329,4.325,4.2941,4.2441,4.1728,4.1645,4.1254,4.0332,4.0246,3.9855,3.8899,3.8854,3.8535,3.7854,3.7808,3.7808,3.79,3.7854,3.7854,3.79,3.79,3.79,3.79,3.79,3.79,3.4919,3.5516,3.6006,3.6329,3.6405,3.6405,3.6405,3.6405,3.6405,3.6405,3.6405,3.6405,3.6405,3.6499,3.6628,3.6875,3.7108,3.7307,3.7307,3.7657,3.8161,3.8819,3.8317,3.8226,3.9121,3.8395,3.807,3.8472,3.9796,4.0986,4.1949,4.2835,4.313,4.2699,4.2659,4.2659,4.2659,4.2222,4.2017,4.199,4.1561,4.0859,3.9899,3.9417,3.8957,3.8549,3.8103,3.7854,3.7703,3.7703,3.7611,3.7505,3.7505,3.7598,3.7703,3.7703,3.7808,3.79,3.79,3.79,3.7854,3.7611,3.7598,3.7703,3.7564,3.7703,3.7854,3.7749,3.7703,3.7828,3.8427,3.9193,3.9927,4.0518,4.1603,4.2552,4.2673,4.2996,4.329,4.329,4.329,4.329,4.329,4.329,4.329,4.329,4.329,4.329,4.329,4.329,4.313,4.2699,4.2659,4.2319,4.1421,4.1338,4.0944,3.9986,3.9942,3.9519,3.8594,3.8594,3.8349,3.79,3.79,3.79,3.79,3.79,3.79,3.79,3.79,3.79,3.4575,3.5082,3.5621,3.6267,3.6405,3.6405,3.6405,3.6405,3.6405,3.6452,3.6452,3.6405,3.6452,3.6581,3.6709,3.6709,3.7155,3.7413,3.7155,3.7551,3.8161,3.8819,3.8317,3.8226,3.9121,3.8395,3.79,3.79,3.959,4.1071,4.2196,4.2739,4.313,4.329,4.329,4.329,4.329,4.329,4.2955,4.2293,4.2293,4.1811,4.0859,4.0159,3.9593,3.9166,3.8472,3.8194,3.8148,3.7992,3.8024,3.8148,3.7992,3.79,3.79,3.79,3.79,3.79,3.79,3.79,3.79,3.79,3.79,3.79,3.79,3.79,3.7946,3.8148,3.8194,3.8395,3.9268,4.0202,4.1113,4.2073,4.2795,4.329,4.329,4.329,4.329,4.329,4.329,4.329,4.329,4.329,4.329,4.329,4.329,4.329,4.329,4.329,4.329,4.329,4.329,4.3036,4.2333,4.2293,4.1893,4.0944,4.0901,4.0375,3.9241,3.921,3.8792,3.79,3.79,3.79,3.79,3.79,3.79,3.79,3.79,3.79,3.4575,3.5082,3.5621,3.6267,3.6405,3.6405,3.6405,3.6405,3.6452,3.6628,3.6534,3.6452,3.6628,3.6675,3.6709,3.6709,3.7155,3.7413,3.7155,3.7551,3.8161,3.8819,3.8317,3.8226,3.9121,3.8395,3.79,3.79,3.959,4.1365,4.3076,4.2496,4.2496,4.325,4.329,4.329,4.329,4.329,4.325,4.317,4.317,4.2699,4.1867,4.1769,4.0817,3.921,3.9121,3.9077,3.9002,3.8226,3.8349,3.9002,3.8226,3.79,3.79,3.79,3.79,3.79,3.79,3.79,3.79,3.79,3.79,3.79,3.79,3.79,3.807,3.8881,3.9077,3.9299,4.0246,4.1169,4.2114,4.2955,4.325,4.329,4.329,4.329,4.329,4.329,4.329,4.329,4.329,4.329,4.329,4.329,4.329,4.329,4.329,4.329,4.329,4.329,4.329,4.325,4.321,4.317,4.2795,4.1949,4.1867,4.1071,3.9285,3.921,3.8792,3.79,3.79,3.79,3.79,3.79,3.79,3.79,3.79,3.79,3.4073,3.4625,3.5132,3.573,3.6119,3.6405,3.6405,3.6499,3.6581,3.6675,3.6769,3.6828,3.6922,3.6956,3.6956,3.6956,3.7261,3.7459,3.7366,3.7657,3.7992,3.8285,3.807,3.8024,3.8395,3.8103,3.8362,3.9458,4.0173,4.1407,4.321,4.2955,4.2955,4.329,4.329,4.329,4.329,4.329,4.329,4.329,4.329,4.313,4.2739,4.2237,4.1603,4.0859,4.0289,4.0029,3.9986,3.906,3.8881,3.9121,3.8226,3.79,3.79,3.79,3.79,3.79,3.79,3.79,3.79,3.79,3.79,3.79,3.79,3.79,3.7992,3.8317,3.8805,3.9417,4.0375,4.1672,4.2875,4.321,4.329,4.329,4.329,4.329,4.329,4.329,4.329,4.329,4.329,4.329,4.329,4.329,4.329,4.329,4.329,4.329,4.329,4.329,4.329,4.329,4.329,4.329,4.317,4.278,4.2795,4.2196,4.0944,4.0901,4.0173,3.8715,3.8671,3.844,3.79,3.79,3.79,3.79,3.79,3.79,3.3746,3.4299,3.4806,3.5357,3.5956,3.6405,3.6499,3.6581,3.6769,3.6909,3.7015,3.7108,3.7201,3.7214,3.7201,3.7108,3.74,3.7598,3.7505,3.7703,3.79,3.79,3.79,3.79,3.79,3.8148,3.8819,4.0073,4.0689,4.1589,4.2875,4.317,4.329,4.329,4.329,4.329,4.329,4.329,4.329,4.329,4.329,4.329,4.329,4.2659,4.2237,4.1949,4.1296,4.0986,4.0901,3.9681,3.9373,3.9519,3.8362,3.79,3.79,3.79,3.79,3.79,3.79,3.79,3.79,3.79,3.807,3.8272,3.8272,3.8272,3.8362,3.8621,3.9533,4.0575,4.1239,4.2345,4.329,4.329,4.329,4.329,4.329,4.329,4.329,4.329,4.329,4.329,4.329,4.329,4.329,4.329,4.329,4.329,4.329,4.329,4.329,4.329,4.329,4.329,4.329,4.329,4.329,4.329,4.329,4.2915,4.2032,4.199,4.1254,3.9637,3.9329,3.8881,3.8272,3.8024,3.79,3.79,3.79,3.79,3.3746,3.4299,3.4806,3.5357,3.5956,3.6452,3.6675,3.6709,3.6862,3.7366,3.7261,3.7168,3.7459,3.7505,3.7413,3.7155,3.7551,3.7808,3.7551,3.7703,3.79,3.79,3.79,3.79,3.79,3.8671,3.921,3.921,4.0944,4.199,4.199,4.2835,4.329,4.329,4.329,4.329,4.329,4.329,4.329,4.329,4.329,4.329,4.329,4.329,4.2835,4.199,4.199,4.199,4.1852,3.9986,3.9768,4.0389,3.8621,3.79,3.79,3.79,3.79,3.79,3.79,3.79,3.79,3.79,3.8472,3.921,3.921,3.921,3.9373,4.0289,4.1879,4.325,4.325,4.329,4.329,4.329,4.329,4.329,4.329,4.329,4.329,4.329,4.329,4.329,4.329,4.329,4.329,4.329,4.329,4.329,4.329,4.329,4.329,4.329,4.329,4.329,4.329,4.329,4.329,4.329,4.329,4.2915,4.2032,4.199,4.1561,4.0603,3.9681,3.921,3.9166,3.8304,3.79,3.79,3.79,3.79,3.3485,3.3865,3.4375,3.5212,3.5745,3.6206,3.6832,3.7108,3.7307,3.7459,3.7564,3.7657,3.7762,3.7749,3.7762,3.7657,3.7808,3.7854,3.7808,3.7854,3.79,3.79,3.79,3.8148,3.8715,3.9607,4.0159,4.0159,4.1838,4.236,4.1113,4.1893,4.2699,4.329,4.329,4.329,4.329,4.329,4.329,4.329,4.329,4.329,4.329,4.329,4.317,4.2875,4.2237,4.199,4.1908,4.0689,4.0332,4.0546,3.997,3.937,3.8792,3.8792,3.8395,3.79,3.79,3.79,3.79,3.79,3.8103,3.8317,3.8317,3.9193,4.0332,4.1296,4.199,4.2537,4.313,4.329,4.329,4.329,4.329,4.329,4.329,4.329,4.329,4.329,4.329,4.329,4.329,4.329,4.329,4.329,4.329,4.329,4.329,4.329,4.329,4.329,4.329,4.329,4.329,4.329,4.329,4.329,4.329,4.317,4.2915,4.2875,4.2482,4.1547,4.1254,4.0461,3.921,3.9577,3.9414,3.8747,3.8194,3.79,3.3398,3.3674,3.4243,3.5156,3.5717,3.6266,3.7086,3.7366,3.7505,3.7611,3.7762,3.79,3.79,3.79,3.79,3.79,3.79,3.79,3.79,3.79,3.79,3.79,3.8194,3.8594,3.9166,4.0029,4.0603,4.0603,4.1616,4.192,4.1169,4.1686,4.2415,4.325,4.2996,4.2955,4.329,4.329,4.329,4.329,4.329,4.329,4.329,4.329,4.329,4.325,4.2754,4.2496,0.0,4.1505,4.0901,4.0546,4.0202,3.9519,3.8715,3.8715,3.8349,3.79,3.79,3.79,3.7946,3.8272,3.8863,3.953,3.9823,4.023,4.0859,4.2155,4.2496,4.2618,4.317,4.329,4.329,4.329,4.329,4.329,4.329,4.329,4.329,4.329,4.329,4.329,4.329,4.329,4.329,4.329,4.329,4.329,4.329,4.329,4.329,4.329,4.329,4.329,4.329,4.329,4.329,4.329,4.329,4.329,4.329,4.329,4.3036,4.2496,4.2155,4.1421,4.0246,4.0116,3.9768,3.9166,3.8317,3.79,0.0,3.3822,3.4355,3.5193,3.5846,3.6502,3.7265,3.7479,0.0,3.7854,3.79,3.79,3.79,3.79,3.79,3.79,3.79,3.79,3.79,3.79,3.7913,3.7952,3.8666,3.9179,3.9353,4.0057,4.0546,4.0689,4.0689,4.1029,4.1867,4.1949,4.2374,4.317,4.2415,4.2415,4.329,4.329,4.329,4.329,4.329,4.329,4.329,4.329,4.329,4.329,4.325,4.321,4.313,4.2319,4.1463,4.0504,3.9724,3.885,3.807,3.807,3.807,3.807,3.807,3.807,3.8239,3.9046,4.0461,4.2073,4.2955,4.2099,4.1155,4.282,4.329,4.329,4.329,4.329,4.329,4.329,4.329,4.329,4.329,4.329,4.329,4.329,4.329,4.329,4.329,4.329,4.329,4.329,4.3329,4.3329,4.329,4.3329,4.3329,4.329,4.3329,4.3329,4.3329,4.329,4.329,4.3329,4.329,4.3329,4.3329,4.3329,4.3329,4.3329,4.2456,4.2032,4.2129,4.0159,3.9241,3.9299,3.8362,3.79,3.3907,0.0,3.4059,3.5081,3.5608,3.612,0.0,3.7469,3.7808,3.79,3.79,3.79,3.79,3.79,3.79,3.79,3.79,3.79,3.79,3.79,3.8057,3.8462,3.832,3.8916,4.0766,4.0101,4.0116,4.1561,4.1686,4.1463,4.0944,4.1603,4.2073,4.2293,4.2114,4.2415,4.329,4.329,4.329,4.329,4.329,4.329,4.329,4.329,4.329,4.325,4.2578,4.2333,4.2293,4.2073,4.1463,4.0646,4.1155,4.0774,3.997,3.997,3.997,3.997,3.997,3.997,4.0014,4.0216,4.0546,4.1113,4.2032,4.2482,4.2739,4.317,4.329,4.329,4.329,4.329,4.329,4.329,4.329,4.329,4.329,4.329,4.329,4.329,4.329,4.329,4.329,4.329,4.329,4.329,4.3463,4.3518,4.3329,4.3463,4.3518,4.3329,4.3463,4.3596,4.3596,4.3423,4.3384,4.3596,4.3423,4.3463,4.3817,4.3675,4.3596,4.3596,4.2537,4.2415,4.3305,4.0532,3.9549,4.0246,3.8666,3.79,3.4076,3.3992,3.4121,3.5057,3.5618,3.6134,3.6823,3.7469,3.79,3.79,3.79,3.79,3.79,3.79,3.79,3.79,3.79,3.79,3.79,3.8122,3.8405,3.8865,3.8897,3.9474,4.0949,3.9931,3.9812,4.1254,4.0944,4.0859,4.1212,4.1728,4.2196,4.2578,4.2578,4.282,4.329,4.329,4.329,4.329,4.329,4.329,4.329,4.329,4.329,4.325,4.2795,4.2578,4.2578,4.2578,4.2058,4.1296,4.1811,4.1421,4.0603,4.0603,4.0603,4.0603,4.0603,4.0901,4.1254,4.1254,4.1505,4.192,4.2441,4.2915,4.329,4.329,4.329,4.329,4.329,4.329,4.329,4.329,4.329,4.329,4.329,4.329,4.3329,4.3463,4.3384,4.3369,4.3581,4.3542,4.3503,4.3621,4.3754,4.3793,4.366,4.3754,4.3793,4.3621,4.3754,4.3847,4.3847,4.3699,4.366,4.3847,4.3699,4.3738,4.3988,4.391,4.3847,4.3847,4.3235,4.3195,4.3832,4.1351,4.0375,4.0703,3.8895,3.7979,3.4202,3.416,3.4318,3.4995,3.5574,3.6136,3.6737,3.7338,3.7795,3.7887,3.79,3.7946,3.807,3.7992,3.7946,3.807,3.7992,3.7946,3.807,3.8385,3.878,3.9266,3.9604,4.0014,4.0657,3.9823,3.9678,4.0858,4.0211,4.06,4.2405,4.24,4.2684,4.3439,4.3349,4.329,4.329,4.329,4.329,4.329,4.329,4.329,4.329,4.329,4.329,4.329,4.329,4.329,4.329,4.329,4.2795,4.199,4.199,4.1505,4.0817,4.0817,4.0901,4.1014,4.1014,4.1547,4.2211,4.2211,4.2699,4.329,4.329,4.329,4.329,4.329,4.329,4.329,4.329,4.329,4.329,4.329,4.329,4.329,4.3344,4.3384,4.3423,4.369,4.3542,4.3527,4.3949,4.3871,4.3793,4.3988,4.4026,4.4011,4.4026,4.4026,4.4011,4.3988,4.4026,4.4065,4.4065,4.405,4.4104,4.4104,4.4011,4.4026,4.405,4.4065,4.4065,4.4104,4.4026,4.4026,4.405,4.2208,4.1197,4.0901,3.9091,3.8181,3.4356,3.4356,3.4382,3.4515,3.4986,3.5574,3.6109,3.6711,3.7286,3.7795,3.79,3.8148,3.8881,3.8395,3.8148,3.8881,3.8395,3.8148,3.8881,3.8429,3.8516,3.9821,3.8962,3.905,4.1157,4.0041,4.015,4.245,4.2479,4.3105,4.4697,4.4247,4.399,4.4127,4.3589,4.329,4.329,4.329,4.329,4.329,4.329,4.329,4.329,4.329,4.329,4.329,4.329,4.329,4.329,4.329,4.2795,4.199,4.199,4.1908,4.1769,4.1769,4.2237,4.29,4.29,4.2996,4.3076,4.3076,4.321,4.329,4.329,4.329,4.329,4.329,4.329,4.329,4.329,4.329,4.329,4.329,4.329,4.3384,4.3596,4.3636,4.3714,4.391,4.391,4.391,4.3988,4.3988,4.3949,4.3988,4.4127,4.4205,4.4026,4.4127,4.4166,4.4026,4.4127,4.4243,4.4243,4.4396,4.4511,4.4511,4.4166,4.4065,4.4243,4.4243,4.432,4.4496,4.4166,4.4089,4.4243,4.2249,4.1296,4.1197,3.9397,3.8512,3.4397,3.4397,3.4397,3.4397,3.4842,3.5443,3.5979,3.6567,3.7168,3.7782,3.79,3.8024,3.844,3.8549,3.8895,3.9812,3.9179,3.876,3.9121,3.8692,3.8662,3.951,3.9306,3.9591,4.0879,4.0369,4.0813,4.2848,4.2991,4.3688,4.5218,4.4661,4.4317,4.4317,4.3633,4.329,4.329,4.329,4.329,4.329,4.329,4.329,4.329,4.329,4.329,4.329,4.329,4.329,4.329,4.329,4.3076,4.2699,4.2699,4.2699,4.2699,4.2699,4.2955,4.329,4.329,4.329,4.329,4.329,4.329,4.329,4.329,4.329,4.329,4.329,4.329,4.329,4.329,4.329,4.3329,4.3463,4.3518,4.3596,4.3793,4.3871,4.391,4.4127,4.405,4.4065,4.4281,4.4243,4.4205,4.432,4.4396,4.4435,4.4358,4.4396,4.4435,4.432,4.4396,4.4458,4.4458,4.4549,4.461,4.461,4.4435,4.4358,4.4473,4.4458,4.4511,4.461,4.4435,4.4358,4.4473,4.2589,4.1838,4.2123,3.9839,3.8966,3.4397,3.4397,3.4397,3.4397,3.475,3.526,3.5953,3.6462,3.6998,3.7756,3.79,3.7946,3.8194,3.8939,3.9681,4.0202,3.9855,3.9461,3.9241,3.9181,3.9256,3.9486,3.9943,4.0393,4.0859,4.0944,4.151,4.289,4.3201,4.3912,4.5218,4.4661,4.4317,4.4317,4.3633,4.329,4.329,4.329,4.329,4.329,4.329,4.329,4.329,4.329,4.329,4.329,4.329,4.329,4.329,4.329,4.329,4.329,4.329,4.329,4.329,4.329,4.329,4.329,4.329,4.329,4.329,4.329,4.329,4.329,4.329,4.329,4.329,4.329,4.329,4.329,4.329,4.329,4.3384,4.3636,4.369,4.3769,4.4026,4.4065,4.4143,4.432,4.4243,4.4243,4.4549,4.4473,4.4435,4.4587,4.461,4.461,4.461,4.461,4.461,4.461,4.461,4.461,4.461,4.461,4.461,4.461,4.461,4.461,4.461,4.461,4.461,4.461,4.461,4.461,4.461,4.2845,4.233,4.2931,4.0246,3.937,3.4397,3.4397,3.4397,3.4397,3.4437,3.475,3.5848,3.6136,3.6502,3.7665,3.79,3.8148,3.8957,3.9855,4.0246,3.9417,3.9986,4.0202,3.9329,3.994,4.0474,4.0518,4.0546,4.0916,4.1825,4.1908,4.221,4.2932,4.3755,4.4519,4.5259,4.4661,4.4317,4.4317,4.3633,4.329,4.329,4.329,4.329,4.329,4.329,4.329,4.329,4.329,4.329,4.329,4.329,4.329,4.329,4.329,4.329,4.329,4.329,4.329,4.329,4.329,4.329,4.329,4.329,4.329,4.329,4.329,4.329,4.329,4.329,4.329,4.329,4.329,4.329,4.329,4.329,4.329,4.3384,4.3636,4.369,4.3808,4.4205,4.4281,4.4358,4.4549,4.4572,4.4587,4.4587,4.4587,4.4572,4.461,4.461,4.461,4.461,4.461,4.461,4.461,4.461,4.461,4.461,4.461,4.461,4.461,4.461,4.461,4.461,4.461,4.461,4.461,4.461,4.461,4.461,4.2845,4.2441,4.319,4.0503,3.9736,3.4577,3.466,3.466,3.466,3.4743,3.4954,3.5503,3.6091,3.6752,3.7464,3.8002,3.8544,3.9326,4.0087,4.0461,4.0116,4.0375,4.0289,3.9329,4.0029,4.0375,3.9812,4.0774,4.1603,4.199,4.2496,4.3101,4.3752,4.4098,4.4601,4.5259,4.4661,4.4317,4.4317,4.3633,4.329,4.329,4.329,4.329,4.329,4.329,4.329,4.329,4.329,4.329,4.329,4.329,4.329,4.329,4.329,4.329,4.329,4.329,4.329,4.329,4.329,4.329,4.329,4.329,4.329,4.329,4.329,4.3423,4.3518,4.3344,4.3503,4.3699,4.3581,4.3621,4.3699,4.3596,4.3557,4.3636,4.3988,4.405,4.4127,4.4435,4.4511,4.4511,4.4587,4.461,4.461,4.461,4.461,4.461,4.461,4.461,4.461,4.461,4.461,4.461,4.461,4.461,4.461,4.461,4.461,4.461,4.461,4.461,4.461,4.461,4.461,4.461,4.461,4.4058,4.4043,4.4572,4.2275,4.2152,4.4043,4.0788,4.0099,3.51,3.5031,3.488,3.5182,3.5236,3.5179,3.5215,3.6058,3.6904,3.7294,3.7965,3.8621,3.9087,4.0027,4.0532,3.9839,4.0689,4.093,3.9417,4.0504,4.1099,4.0202,4.1463,4.2415,4.2415,4.2955,4.3484,4.3932,4.3962,4.4197,4.4646,4.4242,4.3962,4.3962,4.3529,4.329,4.329,4.329,4.329,4.329,4.329,4.329,4.329,4.329,4.329,4.329,4.329,4.329,4.329,4.329,4.329,4.329,4.329,4.329,4.329,4.329,4.329,4.329,4.3384,4.3423,4.3423,4.3503,4.3675,4.3754,4.3581,4.3738,4.3988,4.3832,4.391,4.3988,4.391,4.3832,4.3871,4.4205,4.4281,4.4358,4.4549,4.461,4.461,4.461,4.461,4.461,4.461,4.461,4.461,4.461,4.461,4.461,4.461,4.461,4.461,4.461,4.461,4.461,4.461,4.461,4.461,4.461,4.461,4.461,4.461,4.461,4.461,4.461,4.4004,4.4004,4.4572,4.222,4.2152,4.4135,4.0831,3.9988,3.595,3.5575,3.5031,3.603,3.5843,3.5358,3.5154,3.5978,3.6904,3.7237,3.7804,3.82,3.8213,3.9736,4.0315,3.8253,4.0916,4.2304,3.9593,4.156,4.2955,4.2114,4.2795,4.329,4.329,4.329,4.329,4.329,4.329,4.329,4.329,4.329,4.329,4.329,4.329,4.329,4.329,4.329,4.329,4.329,4.329,4.329,4.329,4.329,4.329,4.329,4.329,4.329,4.329,4.329,4.329,4.329,4.329,4.329,4.329,4.329,4.329,4.3329,4.3596,4.369,4.3729,4.3949,4.3988,4.3988,4.3988,4.3988,4.4026,4.3988,4.4026,4.4065,4.4243,4.4166,4.4065,4.4243,4.4281,4.4358,4.4549,4.461,4.461,4.461,4.461,4.461,4.461,4.461,4.461,4.461,4.461,4.461,4.461,4.461,4.461,4.461,4.461,4.461,4.461,4.461,4.461,4.461,4.461,4.461,4.461,4.461,4.461,4.461,4.4572,4.4572,4.461,4.2845,4.2441,4.323,4.0546,3.942,3.5548,3.5426,3.5277,3.5575,3.5629,3.5562,3.5358,3.6327,3.7556,3.8509,3.9125,3.9247,3.8589,3.9162,3.9326,3.8116,3.9326,4.0145,3.9329,4.1029,4.2293,4.2032,4.2795,4.329,4.329,4.329,4.329,4.329,4.329,4.329,4.329,4.329,4.329,4.329,4.329,4.329,4.329,4.329,4.329,4.329,4.329,4.329,4.329,4.329,4.329,4.329,4.329,4.329,4.329,4.329,4.329,4.329,4.329,4.329,4.3329,4.3518,4.3596,4.3596,4.3832,4.391,4.391,4.3988,4.4104,4.4166,4.405,4.4205,4.4396,4.4243,4.432,4.4435,4.4511,4.4473,4.4435,4.4511,4.4511,4.4549,4.4587,4.461,4.461,4.461,4.461,4.461,4.461,4.461,4.461,4.461,4.461,4.461,4.461,4.461,4.461,4.461,4.461,4.4648,4.4799,4.4799,4.4799,4.4799,4.4799,4.4761,4.461,4.461,4.461,4.461,4.3403,4.3364,4.4572,4.1574,4.0998,4.2596,3.9901,3.8788,3.5817,3.571,3.5521,3.5897,3.5871,3.5737,3.5859,3.6669,3.7671,3.8719,3.9261,3.938,3.8737,3.9087,3.9162,3.807,3.8939,3.9637,3.9241,4.0817,4.199,4.199,4.2795,4.329,4.329,4.329,4.329,4.329,4.329,4.329,4.329,4.329,4.329,4.329,4.329,4.329,4.329,4.329,4.329,4.329,4.329,4.329,4.329,4.329,4.329,4.329,4.329,4.329,4.329,4.329,4.3384,4.3463,4.3463,4.3503,4.3621,4.3754,4.3832,4.3832,4.4065,4.4127,4.4127,4.4205,4.432,4.4396,4.4281,4.4396,4.4572,4.4473,4.4511,4.461,4.461,4.461,4.461,4.461,4.461,4.461,4.461,4.461,4.461,4.461,4.461,4.461,4.461,4.461,4.461,4.461,4.461,4.461,4.461,4.461,4.461,4.4723,4.4723,4.4799,4.5002,4.5002,4.5002,4.5002,4.5002,4.4964,4.4852,4.4685,4.4458,4.4097,4.3046,4.2871,4.356,4.1029,4.0351,4.1284,3.9311,3.8247,3.6506,3.6123,3.5629,3.6545,3.6243,3.5859,3.6388,3.6831,3.738,3.8244,3.861,3.8765,3.8634,3.9305,3.9424,3.8129,3.9295,4.0073,3.9285,4.0731,4.1908,4.199,4.2795,4.329,4.329,4.329,4.329,4.329,4.329,4.329,4.329,4.329,4.329,4.329,4.329,4.329,4.329,4.329,4.329,4.329,4.329,4.329,4.329,4.329,4.329,4.3329,4.3329,4.3344,4.3369,4.3369,4.3503,4.3729,4.3729,4.3832,4.3988,4.4026,4.4026,4.4065,4.4243,4.432,4.4358,4.4549,4.461,4.461,4.461,4.461,4.461,4.461,4.461,4.461,4.461,4.461,4.461,4.461,4.461,4.461,4.461,4.461,4.461,4.461,4.461,4.461,4.461,4.461,4.461,4.461,4.4625,4.461,4.461,4.4648,4.4723,4.4911,4.4911,4.5002,4.522,4.522,4.522,4.522,4.522,4.5182,4.5108,4.4814,4.4212,4.3364,4.3245,4.2805,4.199,4.0986,4.0167,3.9606,3.8731,3.7691,3.5897,3.579,3.5669,3.5897,3.5831,3.575,3.5873,3.6333,3.7065,3.8149,3.8344,3.8353,3.8554,3.8575,3.844,3.7992,3.8239,3.8652,3.9121,4.0159,4.1169,4.1908,4.2795,4.329,4.329,4.329,4.329,4.329,4.329,4.329,4.329,4.329,4.329,4.329,4.329,4.329,4.329,4.329,4.329,4.329,4.329,4.329,4.329,4.329,4.3423,4.3596,4.3596,4.3714,4.3856,4.3856,4.3871,4.3949,4.3949,4.3949,4.4026,4.4166,4.4243,4.4243,4.4473,4.4549,4.4549,4.4587,4.461,4.461,4.461,4.461,4.461,4.461,4.461,4.461,4.461,4.461,4.461,4.461,4.461,4.461,4.461,4.461,4.461,4.461,4.461,4.461,4.461,4.461,4.461,4.461,4.4723,4.4836,4.4836,4.4964,4.5092,4.5129,4.5129,4.522,4.5405,4.5442,4.5442,4.5442,4.5442,4.5129,4.4511,4.4685,4.4442,4.3545,4.271,4.2196,4.199,4.0388,3.9402,3.8959,3.8114,3.7025,3.5562,3.5642,3.571,3.571,3.571,3.571,3.571,3.5954,3.6442,3.7351,3.793,3.8469,3.9139,3.8814,3.8395,3.8517,3.8194,3.8181,3.9077,4.0029,4.0944,4.1908,4.2795,4.329,4.329,4.329,4.329,4.329,4.329,4.329,4.329,4.329,4.329,4.329,4.329,4.329,4.329,4.329,4.329,4.329,4.329,4.329,4.329,4.329,4.3463,4.369,4.369,4.3793,4.3988,4.3988,4.4065,4.4127,4.4127,4.4205,4.4281,4.4396,4.4435,4.4473,4.4572,4.461,4.461,4.461,4.461,4.461,4.461,4.461,4.461,4.461,4.461,4.461,4.461,4.461,4.461,4.461,4.461,4.461,4.461,4.461,4.461,4.461,4.461,4.461,4.4723,4.4814,4.4889,4.4889,4.498,4.5039,4.5039,4.4889,4.4905,4.5294,4.5092,4.5129,4.5589,4.5625,4.5499,4.521,4.5157,4.4858,4.4135,4.4212,4.3834,4.2871,4.2044,4.1436,4.1043,3.9851,3.9079,3.8573,3.7862,3.6984,3.5358,3.5562,3.571,3.571,3.571,3.571,3.571,3.571,3.5886,3.6483,3.7487,3.8537,3.9429,3.9193,3.889,3.897,3.8652,3.8575,3.9121,4.0159,4.1113,4.1908,4.2795,4.329,4.329,4.329,4.329,4.329,4.329,4.329,4.329,4.329,4.329,4.329,4.329,4.329,4.329,4.329,4.329,4.329,4.329,4.329,4.329,4.329,4.3463,4.3769,4.3769,4.3871,4.4089,4.4089,4.4205,4.4358,4.4358,4.4473,4.461,4.461,4.461,4.461,4.461,4.461,4.461,4.461,4.461,4.461,4.461,4.461,4.461,4.461,4.461,4.461,4.461,4.461,4.461,4.4648,4.4648,4.4648,4.461,4.461,4.4648,4.4648,4.4685,4.4776,4.4927,4.5017,4.5017,4.5017,4.498,4.4905,4.4905,4.4511,4.4511,4.5167,4.4761,4.4761,4.5426,4.5463,4.5247,4.4662,4.4571,4.4282,4.3771,4.3497,4.2941,4.2061,4.1603,4.0972,4.0126,3.9645,3.9125,3.8483,3.7813,3.7202,3.5182,3.5562,3.571,3.571,3.571,3.571,3.571,3.571,3.5886,3.6483,3.7161,3.7711,3.7956,3.8996,3.9424,3.8239,3.9295,4.0,3.9285,4.0731,4.1867,4.199,4.2795,4.329,4.329,4.329,4.329,4.329,4.329,4.329,4.329,4.329,4.329,4.329,4.329,4.329,4.329,4.329,4.329,4.329,4.329,4.329,4.329,4.329,4.3542,4.3949,4.3949,4.4166,4.4511,4.4511,4.4549,4.4572,4.4572,4.4587,4.461,4.461,4.461,4.461,4.461,4.461,4.461,4.461,4.461,4.461,4.461,4.461,4.461,4.461,4.461,4.461,4.461,4.461,4.4648,4.4799,4.4874,4.4799,4.4648,4.4723,4.4874,4.4874,4.5002,4.5145,4.5145,4.4754,4.4435,4.4435,4.4073,4.3825,4.3825,4.3903,4.4004,4.4082,4.4043,4.4043,4.4159,4.4159,4.412,4.4043,4.3648,4.3334,4.314,4.271,4.2333,4.2078,4.1978,4.1464,4.0616,4.0126,3.9605,3.8999,3.797,3.7202,3.429,3.5155,3.571,3.571,3.571,3.571,3.571,3.5602,3.5588,3.5886,3.6301,3.7044,3.8263,3.8613,3.8691,3.863,3.8908,3.9295,3.9899,4.0689,4.1589,4.2618,4.309,4.329,4.329,4.329,4.329,4.329,4.329,4.329,4.329,4.329,4.329,4.329,4.329,4.329,4.329,4.329,4.329,4.329,4.329,4.3384,4.3518,4.3518,4.3714,4.3988,4.3988,4.4243,4.461,4.461,4.461,4.461,4.461,4.461,4.461,4.461,4.461,4.461,4.461,4.461,4.461,4.461,4.461,4.461,4.461,4.461,4.461,4.461,4.461,4.461,4.461,4.461,4.4648,4.4836,4.4911,4.4799,4.4496,4.4776,4.4964,4.4625,4.4419,4.4305,4.4305,4.4189,4.4058,4.4058,4.3888,4.3786,4.3786,4.3536,4.3536,4.3849,4.3615,4.3536,4.3888,4.3888,4.3771,4.3418,4.2951,4.2508,4.2117,4.1632,4.1395,4.1311,4.1283,4.1057,4.0702,3.9952,3.9478,3.9191,3.8048,3.735,3.3636,3.4635,3.5332,3.5629,3.571,3.571,3.571,3.5562,3.5399,3.5399,3.5584,3.6283,3.7901,3.8049,3.8094,3.8585,3.8622,3.9042,4.0432,4.0817,4.1547,4.3115,4.329,4.329,4.329,4.329,4.329,4.329,4.329,4.329,4.329,4.329,4.329,4.329,4.329,4.329,4.329,4.329,4.329,4.329,4.3384,4.3518,4.369,4.3769,4.3871,4.4065,4.4065,4.4281,4.461,4.461,4.461,4.461,4.461,4.461,4.461,4.461,4.461,4.461,4.461,4.461,4.461,4.461,4.461,4.461,4.461,4.461,4.461,4.461,4.461,4.461,4.461,4.461,4.4648,4.4836,4.4911,4.4799,4.4473,4.4587,4.4663,4.4281,4.3903,4.3669,4.3669,4.3654,4.3654,4.3654,4.3536,4.3433,4.3433,4.3036,4.2955,4.3394,4.3036,4.2955,4.3394,4.3433,4.3235,4.2809,4.2196,4.1757,4.1396,4.083,4.0573,4.0702,4.0573,4.0573,4.0702,3.9865,3.9482,3.9455,3.8127,3.7567,3.3636,3.4027,3.4332,3.5413,3.571,3.571,3.571,3.5562,3.5399,3.5399,3.5263,3.5271,3.5685,3.734,3.8298,3.7293,3.8989,4.0475,4.0603,4.138,4.2278,4.321,4.329,4.329,4.329,4.329,4.329,4.329,4.329,4.329,4.329,4.329,4.329,4.329,4.329,4.329,4.329,4.329,4.329,4.329,4.3557,4.369,4.3729,4.391,4.4089,4.4281,4.4281,4.4396,4.461,4.461,4.461,4.461,4.461,4.461,4.461,4.461,4.461,4.461,4.461,4.461,4.461,4.461,4.461,4.461,4.461,4.461,4.461,4.461,4.461,4.461,4.461,4.461,4.4648,4.4836,4.4911,4.4836,4.461,4.4097,4.3747,4.3888,4.3888,4.3888,4.3888,4.3418,4.3061,4.3061,4.2541,4.2216,4.2216,4.2175,4.2175,4.2216,4.2175,4.2175,4.2216,4.2216,4.2175,4.2133,4.1297,4.0958,4.1396,4.053,4.0257,4.0702,4.0257,4.0257,4.0702,4.0213,3.9952,3.9924,3.8256,3.7797,3.1629,3.2327,3.3169,3.4165,3.4441,3.4566,3.5182,3.5154,3.5003,3.5003,3.4825,3.4671,3.4798,3.5849,3.6761,3.697,3.7723,3.8614,3.9596,4.0504,4.1421,4.2374,4.2955,4.329,4.329,4.329,4.329,4.329,4.329,4.329,4.329,4.329,4.329,4.329,4.329,4.329,4.329,4.329,4.329,4.329,4.3384,4.3596,4.391,4.3988,4.4166,4.4496,4.4496,4.4534,4.461,4.461,4.461,4.461,4.461,4.461,4.461,4.461,4.461,4.461,4.461,4.461,4.461,4.461,4.461,4.461,4.461,4.461,4.461,4.461,4.461,4.461,4.461,4.4174,4.3678,4.3264,4.32,4.3215,4.315,4.3165,4.3235,4.3299,4.301,4.2743,4.2743,4.2555,4.2433,4.2433,4.2242,4.2092,4.2092,4.2092,4.2092,4.2092,4.2092,4.2092,4.2092,4.2092,4.1968,4.1662,4.1043,4.0659,4.053,3.9865,3.9645,3.9777,3.9645,3.9777,4.0257,3.9777,3.9366,3.894,3.8344,3.7973,3.0226,3.0932,3.1816,3.2955,3.3492,3.3843,3.4509,3.4743,3.4797,3.4797,3.4577,3.4397,3.4397,3.485,3.547,3.6323,3.675,3.755,3.9163,4.0077,4.1071,4.2278,4.2955,4.329,4.329,4.329,4.329,4.329,4.329,4.329,4.329,4.329,4.329,4.329,4.329,4.329,4.329,4.329,4.329,4.329,4.3384,4.3621,4.3988,4.4065,4.4281,4.461,4.461,4.461,4.461,4.461,4.461,4.461,4.461,4.461,4.461,4.461,4.461,4.461,4.461,4.461,4.461,4.461,4.461,4.461,4.461,4.461,4.461,4.461,4.4381,4.4174,4.4174,4.3521,4.275,4.2275,4.207,4.1961,4.1961,4.236,4.2688,4.2688,4.2351,4.2092,4.2092,4.2092,4.2092,4.2092,4.2092,4.2092,4.2092,4.2092,4.2092,4.2092,4.2092,4.2051,4.1885,4.187,4.1662,4.1185,4.0702,4.0343,3.9996,3.9557,3.9305,3.9305,3.9305,3.9438,3.9733,3.9438,3.9102,3.8708,3.8505,3.8206,0.0,0.0,0.0,3.186,3.2912,3.3577,3.3619,3.4217,3.4756,3.4756,3.4577,3.4397,3.4397,3.4397,3.458,3.5168,3.6214,3.7586,3.9354,4.0139,4.1211,4.2966,4.3235,4.325,4.329,4.329,4.329,4.329,4.329,4.329,4.329,4.329,4.329,4.329,4.329,4.329,4.329,4.329,4.329,4.329,4.3557,4.3808,4.4026,4.4205,4.4396,4.461,4.461,4.461,4.461,4.461,4.461,4.461,4.461,4.461,4.461,4.461,4.461,4.461,4.461,4.461,4.461,4.461,4.461,4.461,4.461,4.4572,4.4572,4.4572,4.3927,4.3245,4.3245,4.2589,4.1949,4.1908,4.1603,4.1254,4.1254,4.1702,4.2051,4.2092,4.2092,4.2092,4.2092,4.2092,4.2092,4.2092,4.2092,4.2092,4.2092,4.2092,4.2092,4.2092,4.2092,4.1885,4.1438,4.1396,4.1185,4.0702,4.0257,3.9996,3.9996,3.9526,3.9305,3.9305,3.9305,3.9305,3.9305,3.9305,3.9292,3.9264,3.8681,3.8393,2.8491,0.0,0.0,0.0,0.0,0.0,3.144,3.2438,3.3207,3.3207,3.3814,3.4397,3.4397,3.4397,3.445,3.462,3.5273,3.6074,3.695,3.8206,3.9448,4.0569,4.17,4.2618,4.325,4.329,4.329,4.329,4.329,4.329,4.329,4.329,4.329,4.329,4.329,4.329,4.329,4.329,4.329,4.329,4.3557,4.3808,4.4026,4.4205,4.4396,4.461,4.461,4.461,4.461,4.461,4.461,4.461,4.461,4.461,4.461,4.461,4.461,4.461,4.461,4.461,4.461,4.461,4.461,4.461,4.461,4.4174,4.3654,4.3654,4.3046,4.2222,4.1518,4.1183,4.0831,4.0215,4.0199,4.0372,4.0372,4.073,4.1185,4.1522,4.1578,4.1704,4.2051,4.2092,4.1968,4.1662,4.1885,4.1968,4.1662,4.1885,4.2092,4.2092,4.1787,4.1522,4.1396,4.1086,4.0702,4.0213,4.0083,3.9865,3.9526,3.9394,3.9305,3.9305,3.9305,3.9305,3.9305,3.9305,3.9088,3.8654,3.8491,3.8739,2.7526,2.7668,2.794,2.8516,0.0,0.0,3.0619,3.1697,3.2593,3.2993,3.3615,3.4105,3.4105,3.4189,3.4285,3.4285,3.4656,3.5244,3.6223,3.7311,3.8346,3.9255,4.0359,4.1406,4.2286,4.2617,4.2915,4.325,4.329,4.329,4.329,4.329,4.329,4.329,4.329,4.329,4.329,4.329,4.329,4.329,4.3463,4.3714,4.4026,4.4127,4.432,4.461,4.461,4.461,4.461,4.461,4.461,4.461,4.461,4.461,4.461,4.461,4.461,4.461,4.461,4.461,4.4534,4.4174,4.4058,4.4004,4.3654,4.3165,4.2765,4.2765,4.2085,4.1212,4.0273,4.0071,3.9954,3.9424,3.9526,3.9689,3.9689,3.9908,4.03,4.0958,4.1086,4.1185,4.148,4.1522,4.1438,4.1142,4.1354,4.1438,4.1128,4.1354,4.1522,4.1522,4.1269,4.1043,4.083,4.0573,4.0213,3.9733,3.9689,3.9601,3.9305,3.9305,3.9305,3.9305,3.9305,3.9383,3.9492,3.9383,3.9206,3.8979,3.8876,3.9253,2.6668,2.7051,2.7499,2.7499,2.8294,0.0,3.026,3.119,3.2171,3.3006,3.3275,3.339,3.339,3.3573,3.3755,3.3894,3.4063,3.4693,3.6209,3.6901,3.759,3.8542,3.913,3.9813,4.0767,4.1497,4.2216,4.3011,4.3205,4.329,4.329,4.329,4.329,4.329,4.329,4.329,4.329,4.329,4.329,4.329,4.3329,4.3542,4.3988,4.3988,4.4205,4.4534,4.4549,4.4572,4.4572,4.4572,4.461,4.461,4.461,4.461,4.461,4.461,4.4534,4.4458,4.4458,4.4381,4.4174,4.3403,4.3165,4.3006,4.2237,4.1949,4.1811,4.1742,4.1085,4.0273,3.9499,3.9305,3.9305,3.9305,3.9305,3.9305,3.9305,3.9305,3.9557,4.0386,4.0616,4.0659,4.0702,4.0702,4.0702,4.0616,4.0659,4.0702,4.0616,4.0659,4.0702,4.0702,4.0659,4.043,4.0039,3.9952,3.9733,3.9292,3.9292,3.9305,3.9216,3.9247,3.9261,3.9216,3.927,3.9474,3.9838,3.9519,3.9532,3.9838,3.9627,3.9808,2.5285,2.5984,2.6736,2.6736,2.687,0.0,2.7584,2.8563,2.9498,2.9932,3.0709,3.1352,3.1352,3.1408,3.1728,3.2519,3.2692,3.3215,3.4667,3.5373,3.6069,3.7003,3.7592,3.8311,3.9231,4.0493,4.1354,4.1529,4.2644,4.329,4.329,4.329,4.329,4.329,4.329,4.329,4.329,4.329,4.329,4.329,4.3518,4.3675,4.3754,4.391,4.405,4.4143,4.4281,4.4358,4.4358,4.4534,4.461,4.461,4.461,4.461,4.461,4.461,4.4174,4.356,4.356,4.3086,4.2482,4.2319,4.2237,4.2237,4.2032,4.1463,4.0745,4.0012,3.9675,3.9499,3.9336,3.9305,3.9305,3.9305,3.9305,3.9305,3.9305,3.9305,3.9349,3.9526,3.9865,4.0257,4.0616,4.0702,4.0573,4.017,4.0487,4.0573,4.017,4.0487,4.0702,4.0702,4.0343,4.0083,3.9996,3.9645,3.9292,3.9011,3.9203,3.9127,3.8737,3.889,3.8877,3.8737,3.9165,3.9654,4.0208,3.9851,3.9865,4.0221,4.0161,4.0338,2.4137,2.4884,2.5625,2.6197,2.64,0.0,0.0,2.7851,2.8484,2.9096,2.9727,3.0158,3.0293,3.0383,3.0664,3.1311,3.1896,3.2575,3.3262,3.4139,3.4897,3.5332,3.6005,3.6774,3.7717,3.8697,3.9486,3.9948,4.0917,4.17,4.2158,4.2482,4.2875,4.329,4.329,4.329,4.329,4.329,4.329,4.329,4.3423,4.3557,4.369,4.3793,4.3645,4.3324,4.3403,4.3215,4.2771,4.3001,4.3081,4.316,4.3717,4.3966,4.3888,4.3442,4.3046,4.2644,4.2644,4.236,4.1908,4.1463,4.1296,4.1212,4.0816,4.0331,3.9867,3.9424,3.9305,3.9305,3.9305,3.9305,3.9305,3.9305,3.9305,3.9305,3.9305,3.9305,3.9305,3.9305,3.9482,3.9733,3.9952,3.9996,3.9908,3.9689,3.9865,3.9908,3.9689,3.9719,3.9807,3.9807,3.9513,3.9305,3.9305,3.9083,3.8904,3.8756,3.8904,3.8872,3.8602,3.8933,3.9226,3.9468,3.9688,4.008,4.0547,4.0385,4.0399,4.0547,4.0438,4.061,2.2717,2.3615,2.4414,2.508,2.5742,2.6332,0.0,0.0,0.0,2.8577,2.8808,2.8901,2.9131,2.9315,2.951,2.9817,3.0784,3.1597,3.1663,3.2673,3.3573,3.3979,3.4617,3.5273,3.6043,3.6764,3.7688,3.8804,3.9254,3.9825,4.0654,4.1398,4.2129,4.2842,4.3135,4.329,4.329,4.329,4.321,4.3036,4.3036,4.309,4.309,4.309,4.2765,4.222,4.2246,4.1848,4.1168,4.1489,4.1587,4.1726,4.2655,4.3046,4.2966,4.2278,4.1908,4.1728,4.1728,4.1603,4.1352,4.0617,4.036,4.023,3.9499,3.9305,3.9305,3.9305,3.9305,3.9305,3.9305,3.9305,3.9305,3.9305,3.9305,3.9305,3.9305,3.9305,3.9305,3.9305,3.9247,3.9203,3.9203,3.9203,3.9216,3.9172,3.9172,3.9172,3.9172,3.898,3.8832,3.8832,3.8724,3.8602,3.8602,3.8602,3.8557,3.8512,3.8557,3.861,3.8626,3.917,3.9707,4.0304,4.0317,4.0513,4.0913,4.0913,4.0913,4.0899,4.069,4.084,2.0385,2.1912,2.3226,2.2408,2.3633,2.4913,2.4335,0.0,2.6071,2.6418,0.0,2.686,2.686,0.0,0.0,2.7565,2.8269,2.893,2.9382,3.0295,3.1609,3.3543,3.3819,3.3942,3.4027,3.5323,3.6905,3.8761,3.8723,3.8792,3.9106,4.0435,4.1226,4.1361,4.2644,4.329,4.329,4.329,4.2915,4.2155,4.2155,4.1728,4.0944,4.0944,4.0901,4.0845,4.1028,4.1014,4.0972,4.142,4.1587,4.1643,4.2003,4.2155,4.2155,4.2032,4.1463,4.0774,4.0774,4.0244,3.9601,3.9455,3.9469,3.9424,3.9349,3.9305,3.9305,3.9305,3.9305,3.9305,3.9305,3.9305,3.9305,3.9305,3.9305,3.9305,3.9305,3.9305,3.9305,3.9305,3.91,3.8953,3.8953,3.8953,3.8877,3.8724,3.8692,3.8692,3.8692,3.8647,3.8634,3.8634,3.8602,3.8602,3.8602,3.8602,3.8512,3.8258,3.8453,3.8646,3.8686,3.9275,3.9852,4.0366,4.0366,4.0667,4.1269,4.1269,4.1269,4.1269,4.1219,4.1246,1.9576,2.0708,2.1676,2.171,2.2626,2.3502,2.3493,2.389,2.4541,2.5265,0.0,0.0,0.0,0.0,0.0,0.0,2.7536,2.814,2.8375,2.9261,3.035,3.1697,3.2476,3.3104,3.3628,3.4299,3.4984,3.5837,3.6213,3.6708,3.7373,3.8421,3.9252,3.981,4.0432,4.0926,4.1206,4.1206,4.1188,4.1212,4.1212,4.0986,4.0603,4.0603,4.0289,3.9768,3.9885,3.9637,3.9193,3.9475,3.9651,3.9651,3.9897,4.0503,4.1127,4.0446,4.0071,3.9823,3.9823,3.9631,3.9305,3.9305,3.9305,3.9305,3.9305,3.9305,3.9247,3.91,3.9056,3.9056,3.8904,3.8904,3.8904,3.8904,3.8904,3.8904,3.8904,3.8904,3.8904,3.8904,3.88,3.8666,3.8517,3.8607,3.8724,3.8602,3.8602,3.8602,3.8602,3.8453,3.8349,3.8349,3.8239,3.8207,3.8207,3.7618,3.7466,3.8011,3.8405,3.8548,3.825,3.8651,3.9044,3.9436,3.8798,3.8536,3.8782,3.8782,3.8782,3.8834,4.0338,4.1047,1.8544,1.9324,2.0004,2.0274,2.1092,2.1819,2.1963,2.2316,2.2826,2.3601,2.4156,0.0,0.0,0.0,2.5567,2.5856,0.0,2.7185,2.7155,2.7942,2.8901,3.0033,3.1267,3.2302,3.3147,3.3428,3.3598,3.367,3.4195,3.4799,3.5575,3.6542,3.744,3.8184,3.8583,3.9015,3.9465,3.9479,3.9564,3.9744,3.9744,3.9713,3.9621,3.9621,3.9325,3.8836,3.8836,3.8472,3.79,3.8135,3.82,3.8213,3.8408,3.9131,3.9927,3.9131,3.8935,3.9127,3.9127,3.9127,3.9127,3.9127,3.9127,3.9127,3.9127,3.9127,3.9024,3.8535,3.8387,3.8342,3.82,3.8154,3.8154,3.8154,3.8408,3.8512,3.82,3.8154,3.8258,3.8544,3.8317,3.8109,3.82,3.8349,3.8466,3.833,3.8285,3.8285,3.8181,3.8031,3.7789,3.7487,3.7328,3.7108,3.6849,3.6106,3.6026,3.6925,3.7632,3.7828,3.7445,3.7746,3.8054,3.8299,3.7441,3.7002,3.7002,3.7002,3.7002,3.7056,3.8938,4.002,1.6783,1.7615,1.8237,1.7147,1.8485,1.9826,1.8797,1.9767,2.088,2.0931,2.2206,2.3335,2.3384,2.4214,0.0,0.0,0.0,0.0,0.0,2.5775,2.702,2.9177,3.0496,3.1456,3.1977,3.2711,3.3283,3.367,3.3526,3.3539,3.3781,3.5228,3.6134,3.6371,3.7758,3.8667,3.8913,3.8927,3.8476,3.7614,3.7614,3.7426,3.7114,3.7114,3.7441,3.7946,3.7946,3.7946,3.79,3.8135,3.82,3.82,3.82,3.8395,3.8647,3.8602,3.8602,3.8602,3.8602,3.8602,3.8602,3.8602,3.8602,3.8602,3.8602,3.8602,3.8395,3.7368,3.7065,3.7065,3.7065,3.7065,3.7065,3.7065,3.7854,3.8304,3.7263,3.7065,3.7368,3.8408,3.7579,3.7057,3.8018,3.82,3.8076,3.7598,3.7551,3.7459,3.7155,3.7155,3.6722,3.5678,3.5582,3.5174,3.4107,3.4009,3.4172,3.4678,3.5627,3.6215,3.6273,3.6773,3.7032,3.7056,3.7002,3.7002,3.7002,3.7002,3.7002,3.7002,3.7109,3.776,1.6463,1.7167,1.7674,1.6889,1.7562,1.8394,1.8387,1.8797,1.9457,2.0377,2.099,2.1507,2.1887,2.2291,0.0,0.0,0.0,0.0,0.0,2.5334,2.5897,2.6856,2.8193,2.9624,3.1125,3.1601,3.2183,3.2957,3.327,3.3441,3.3513,3.4104,3.4491,3.4575,3.5068,3.561,3.6233,3.612,3.622,3.6562,3.6432,3.6332,3.6202,3.6322,3.6426,3.6501,3.6666,3.6711,3.6737,3.7219,3.7421,3.746,3.7867,3.807,3.8161,3.8272,3.8453,3.8602,3.8602,3.8602,3.8602,3.8602,3.8109,3.7553,3.7553,3.7078,3.6458,3.5914,3.5759,3.5724,3.557,3.5522,3.5522,3.5522,3.5821,3.5976,3.563,3.5522,3.557,3.5748,3.5414,3.5162,3.5329,3.5365,3.5616,3.6329,3.5688,3.5101,3.5005,3.5005,3.486,3.446,3.446,3.4314,3.3911,3.4179,3.3981,3.318,3.5074,3.5844,3.513,3.5429,3.5519,3.5377,3.4558,3.4168,3.4168,3.4168,3.4168,3.4168,3.4168,3.5311,1.5869,1.6304,1.66,1.6235,1.6444,1.6801,1.7151,1.73,1.763,1.8604,1.9198,1.9801,2.0566,2.0875,0.0,0.0,0.0,0.0,0.0,2.4726,2.5226,2.5411,2.6809,2.8484,3.0204,3.0833,3.1557,3.2624,3.297,3.3185,3.3283,3.3441,3.3513,3.3598,3.3598,3.3862,3.4491,3.4319,3.4585,3.5236,3.5119,3.5192,3.5386,3.5504,3.5621,3.5683,3.5815,3.589,3.5929,3.6319,3.6283,3.5981,3.6352,3.631,3.6197,3.7554,3.8194,3.8298,3.7893,3.7789,3.7743,3.7361,3.6764,3.6235,3.6235,3.5748,3.5126,3.4569,3.4423,3.4387,3.4129,3.4091,3.4042,3.397,3.4215,3.4362,3.4019,3.397,3.397,3.4142,3.3897,3.3688,3.3862,3.3517,3.3627,3.4897,3.4363,3.3775,3.3639,3.3639,3.3491,3.3132,3.3082,3.3012,3.2791,3.3162,3.314,3.2305,3.3956,3.4625,3.3864,3.4022,3.3935,3.3628,3.3031,3.2597,3.2432,3.2597,3.2669,3.2669,3.2669,3.3593]}]]